[[{"header":{"parameterUnit":"m.s-1","parameterCategory":1,"la1":30.6,"la2":29.2853,"lo1":-89.7004,"lo2":-87.6739,"dy":0.0162,"dx":0.0183,"nx":112,"ny":82,"refTime":"2026-04-16T12:00:00:Z","depth":0,"parameterNumber":2,"parameterNumberName":"U-component_of_WINDS"},"data":[0.0,0.0,0.0,0.0,0.0,0.0,0.0,0.0,0.0,0.0,0.0,0.0,0.0,0.0,0.0,0.0,0.0,0.0,0.0,0.0,0.0,0.0,0.0,0.0,0.0,0.0,0.0,0.0,0.0,0.0,0.0,0.0,0.0,0.0,0.0,0.0,0.0,0.0,0.0,0.0,0.0,0.0,0.0,0.0,0.0,0.0,0.0,0.0,0.0,0.0,0.0,0.0,0.0,0.0,0.0,0.0,0.0,0.0,0.0,0.0,0.0,0.0,0.0,0.0,0.0,0.0,0.0,0.0,0.0,0.0,0.0,0.0,0.0,0.0,0.0,0.0,0.0,0.0,0.0,0.0,0.0,0.0,0.0,0.0,0.0,0.0,0.0,0.0,0.0,0.0,0.0,-2.7335,-3.0508,-3.2724,-3.3345,-3.1937,-2.9802,-2.6877,0.0,0.0,0.0,0.0,0.0,0.0,0.0,0.0,0.0,0.0,0.0,0.0,0.0,0.0,0.0,0.0,0.0,0.0,0.0,0.0,0.0,0.0,0.0,0.0,0.0,0.0,0.0,0.0,0.0,0.0,0.0,0.0,0.0,0.0,0.0,0.0,0.0,0.0,0.0,0.0,0.0,0.0,0.0,0.0,0.0,0.0,0.0,0.0,0.0,0.0,0.0,0.0,0.0,0.0,0.0,0.0,0.0,0.0,0.0,0.0,0.0,0.0,0.0,0.0,0.0,0.0,0.0,0.0,0.0,0.0,0.0,0.0,0.0,0.0,0.0,0.0,0.0,0.0,0.0,0.0,0.0,0.0,0.0,0.0,0.0,0.0,0.0,0.0,0.0,0.0,0.0,0.0,0.0,0.0,0.0,0.0,0.0,0.0,0.0,0.0,0.0,0.0,0.0,0.0,-2.5586,-3.0897,-3.2525,-3.3282,-3.3396,-3.1461,-2.9246,-2.686,0.0,0.0,0.0,0.0,0.0,0.0,0.0,0.0,0.0,0.0,0.0,0.0,0.0,0.0,0.0,0.0,0.0,0.0,0.0,0.0,0.0,0.0,0.0,0.0,0.0,0.0,0.0,0.0,0.0,0.0,0.0,0.0,0.0,0.0,0.0,0.0,0.0,0.0,0.0,0.0,0.0,0.0,0.0,0.0,0.0,0.0,0.0,0.0,0.0,0.0,0.0,0.0,0.0,0.0,0.0,0.0,0.0,0.0,0.0,0.0,0.0,0.0,0.0,0.0,0.0,0.0,0.0,0.0,0.0,0.0,0.0,0.0,0.0,0.0,0.0,0.0,0.0,0.0,0.0,0.0,0.0,0.0,0.0,0.0,0.0,0.0,0.0,0.0,0.0,0.0,0.0,0.0,0.0,0.0,0.0,0.0,0.0,0.0,0.0,0.0,0.0,0.0,0.0,-2.4529,-2.7008,-3.1788,-3.2254,-3.2369,-3.2764,-3.0788,-2.8712,-2.681,-2.4247,0.0,0.0,0.0,0.0,0.0,0.0,0.0,0.0,0.0,0.0,0.0,0.0,0.0,0.0,0.0,0.0,0.0,0.0,0.0,0.0,0.0,0.0,0.0,0.0,0.0,0.0,0.0,0.0,0.0,0.0,0.0,0.0,0.0,0.0,0.0,0.0,0.0,0.0,0.0,0.0,0.0,0.0,0.0,0.0,0.0,0.0,0.0,0.0,0.0,0.0,0.0,0.0,0.0,0.0,0.0,0.0,0.0,0.0,0.0,0.0,0.0,0.0,0.0,0.0,0.0,0.0,0.0,0.0,0.0,0.0,0.0,0.0,0.0,0.0,0.0,0.0,0.0,0.0,0.0,0.0,0.0,0.0,0.0,0.0,0.0,0.0,0.0,0.0,0.0,0.0,0.0,0.0,0.0,0.0,0.0,0.0,0.0,0.0,0.0,0.0,0.0,0.0,-2.6955,-2.8726,-3.1966,-3.1808,-3.1686,-3.2256,-3.0107,-2.8144,-2.6793,-2.359,0.0,0.0,0.0,0.0,0.0,0.0,0.0,0.0,0.0,0.0,0.0,0.0,0.0,0.0,0.0,0.0,0.0,0.0,0.0,0.0,0.0,0.0,0.0,0.0,0.0,0.0,0.0,0.0,0.0,0.0,0.0,0.0,0.0,0.0,0.0,0.0,0.0,0.0,0.0,0.0,0.0,0.0,0.0,0.0,0.0,0.0,0.0,0.0,0.0,0.0,0.0,0.0,0.0,0.0,0.0,0.0,0.0,0.0,0.0,0.0,0.0,0.0,0.0,0.0,0.0,0.0,0.0,0.0,0.0,0.0,0.0,0.0,0.0,0.0,0.0,0.0,0.0,0.0,0.0,0.0,0.0,0.0,0.0,0.0,0.0,0.0,0.0,0.0,0.0,0.0,0.0,0.0,0.0,0.0,0.0,0.0,0.0,0.0,0.0,0.0,0.0,0.0,-2.7706,-3.0488,-3.2128,-3.2233,-3.2236,-3.2298,-2.9585,-2.7559,-2.6742,-2.2582,0.0,0.0,0.0,0.0,0.0,0.0,0.0,0.0,0.0,0.0,0.0,0.0,0.0,0.0,0.0,0.0,0.0,0.0,0.0,0.0,0.0,0.0,0.0,0.0,0.0,0.0,0.0,0.0,0.0,0.0,0.0,0.0,0.0,0.0,0.0,0.0,0.0,0.0,0.0,0.0,0.0,0.0,0.0,0.0,0.0,0.0,0.0,0.0,0.0,0.0,0.0,0.0,0.0,0.0,0.0,0.0,0.0,0.0,0.0,0.0,0.0,0.0,0.0,0.0,0.0,0.0,0.0,0.0,0.0,0.0,0.0,0.0,0.0,0.0,0.0,0.0,0.0,0.0,0.0,0.0,0.0,0.0,0.0,0.0,0.0,0.0,0.0,0.0,0.0,0.0,0.0,0.0,0.0,0.0,0.0,0.0,0.0,0.0,0.0,0.0,0.0,0.0,-2.6927,-2.9429,0.0,-3.1594,-3.1419,-3.0962,-2.9012,-2.7087,-2.5432,0.0,0.0,0.0,0.0,0.0,0.0,0.0,0.0,0.0,0.0,0.0,0.0,0.0,0.0,0.0,0.0,0.0,0.0,0.0,0.0,0.0,0.0,0.0,0.0,0.0,0.0,0.0,0.0,0.0,0.0,0.0,0.0,0.0,0.0,0.0,0.0,0.0,0.0,0.0,0.0,0.0,0.0,0.0,0.0,0.0,0.0,0.0,0.0,0.0,0.0,0.0,0.0,0.0,0.0,0.0,0.0,0.0,0.0,0.0,0.0,0.0,0.0,0.0,0.0,0.0,0.0,0.0,0.0,0.0,0.0,0.0,0.0,0.0,0.0,0.0,0.0,0.0,0.0,0.0,0.0,0.0,0.0,0.0,0.0,0.0,0.0,0.0,0.0,0.0,0.0,0.0,0.0,0.0,0.0,0.0,0.0,0.0,0.0,0.0,0.0,0.0,0.0,-2.4132,-2.6638,-2.8959,0.0,-3.119,-3.0892,-3.016,-2.8474,-2.6603,-2.4609,0.0,0.0,0.0,0.0,0.0,0.0,0.0,0.0,0.0,0.0,0.0,0.0,0.0,0.0,0.0,0.0,0.0,0.0,0.0,0.0,0.0,0.0,0.0,0.0,0.0,0.0,0.0,0.0,0.0,0.0,0.0,0.0,0.0,0.0,0.0,0.0,0.0,0.0,0.0,0.0,0.0,0.0,0.0,0.0,0.0,0.0,0.0,0.0,0.0,0.0,0.0,0.0,0.0,0.0,0.0,0.0,0.0,0.0,0.0,0.0,0.0,0.0,0.0,0.0,0.0,0.0,0.0,0.0,0.0,0.0,0.0,0.0,0.0,0.0,0.0,0.0,0.0,0.0,0.0,0.0,0.0,0.0,0.0,0.0,0.0,0.0,0.0,0.0,0.0,0.0,0.0,0.0,0.0,0.0,0.0,0.0,0.0,0.0,0.0,0.0,0.0,0.0,-2.4215,-2.7133,-2.9568,-3.1033,-3.119,-3.0892,-3.016,-2.8005,-2.6058,0.0,0.0,0.0,0.0,0.0,0.0,0.0,0.0,0.0,0.0,0.0,0.0,0.0,0.0,0.0,0.0,0.0,0.0,0.0,0.0,0.0,0.0,0.0,0.0,0.0,0.0,0.0,0.0,0.0,0.0,0.0,0.0,0.0,0.0,0.0,0.0,0.0,0.0,0.0,0.0,0.0,0.0,0.0,0.0,0.0,0.0,0.0,0.0,0.0,0.0,0.0,0.0,0.0,0.0,0.0,0.0,0.0,0.0,0.0,0.0,0.0,0.0,0.0,0.0,0.0,0.0,0.0,0.0,0.0,0.0,0.0,0.0,0.0,0.0,0.0,0.0,0.0,0.0,0.0,0.0,0.0,0.0,0.0,0.0,0.0,0.0,0.0,0.0,0.0,0.0,0.0,0.0,0.0,0.0,0.0,0.0,0.0,0.0,0.0,0.0,0.0,0.0,0.0,-2.4149,-2.7133,-2.9568,-3.1033,-3.119,-3.0701,-2.9429,-2.7715,-2.5623,-2.3113,0.0,0.0,0.0,0.0,0.0,0.0,0.0,0.0,0.0,0.0,0.0,0.0,0.0,0.0,0.0,0.0,0.0,0.0,0.0,0.0,0.0,0.0,0.0,0.0,0.0,0.0,0.0,0.0,0.0,0.0,0.0,0.0,0.0,0.0,0.0,0.0,0.0,0.0,0.0,0.0,0.0,0.0,0.0,0.0,0.0,0.0,0.0,0.0,0.0,0.0,0.0,0.0,0.0,0.0,0.0,0.0,0.0,0.0,0.0,0.0,0.0,0.0,0.0,0.0,0.0,0.0,0.0,0.0,0.0,0.0,0.0,0.0,0.0,0.0,0.0,0.0,0.0,0.0,0.0,0.0,0.0,0.0,0.0,0.0,0.0,0.0,0.0,0.0,0.0,0.0,0.0,0.0,0.0,0.0,0.0,0.0,0.0,0.0,0.0,0.0,0.0,0.0,-2.4116,-2.7133,-2.9568,-3.1033,-3.119,-3.0614,-2.9134,-2.7578,-2.5439,-2.2482,0.0,0.0,0.0,0.0,0.0,0.0,0.0,0.0,0.0,0.0,0.0,0.0,0.0,0.0,0.0,0.0,0.0,0.0,0.0,0.0,0.0,0.0,0.0,0.0,0.0,0.0,0.0,0.0,0.0,0.0,0.0,0.0,0.0,0.0,0.0,0.0,0.0,0.0,0.0,0.0,0.0,0.0,0.0,0.0,0.0,0.0,0.0,0.0,0.0,0.0,0.0,0.0,0.0,0.0,0.0,0.0,0.0,0.0,0.0,0.0,0.0,0.0,0.0,0.0,0.0,0.0,0.0,0.0,0.0,0.0,0.0,0.0,0.0,0.0,0.0,0.0,0.0,0.0,0.0,0.0,0.0,0.0,0.0,0.0,0.0,0.0,0.0,0.0,0.0,0.0,0.0,0.0,0.0,0.0,0.0,0.0,0.0,0.0,0.0,0.0,0.0,0.0,-2.4017,-2.7081,-2.9532,-3.0946,-3.1103,-3.0544,-2.9115,-2.7578,-2.5472,-2.2578,0.0,0.0,0.0,0.0,0.0,0.0,0.0,0.0,0.0,0.0,0.0,0.0,0.0,0.0,0.0,0.0,0.0,0.0,0.0,0.0,0.0,0.0,0.0,0.0,0.0,0.0,0.0,0.0,0.0,0.0,0.0,0.0,0.0,0.0,0.0,0.0,0.0,0.0,0.0,0.0,0.0,0.0,0.0,0.0,0.0,0.0,0.0,0.0,0.0,0.0,0.0,0.0,0.0,0.0,0.0,0.0,0.0,0.0,0.0,0.0,-2.6999,0.0,0.0,0.0,0.0,0.0,0.0,0.0,0.0,0.0,0.0,0.0,0.0,0.0,0.0,0.0,0.0,0.0,0.0,0.0,0.0,0.0,0.0,0.0,0.0,0.0,0.0,0.0,0.0,0.0,0.0,0.0,0.0,0.0,0.0,0.0,0.0,0.0,0.0,0.0,0.0,0.0,-2.3326,-2.6757,-2.9343,-3.0247,-3.0334,-2.9967,-2.9081,-2.7578,-2.569,-2.3309,0.0,0.0,0.0,0.0,0.0,0.0,0.0,0.0,0.0,0.0,0.0,0.0,0.0,0.0,0.0,0.0,0.0,0.0,0.0,0.0,0.0,0.0,0.0,0.0,0.0,0.0,0.0,0.0,0.0,0.0,0.0,0.0,0.0,0.0,0.0,0.0,0.0,0.0,0.0,0.0,0.0,0.0,0.0,0.0,0.0,0.0,0.0,0.0,0.0,0.0,0.0,0.0,0.0,0.0,0.0,0.0,0.0,0.0,0.0,0.0,0.0,-2.8361,0.0,0.0,0.0,0.0,0.0,0.0,0.0,0.0,0.0,0.0,0.0,0.0,0.0,0.0,0.0,0.0,0.0,0.0,0.0,0.0,0.0,0.0,0.0,0.0,0.0,0.0,0.0,0.0,0.0,0.0,0.0,0.0,0.0,0.0,0.0,0.0,0.0,0.0,0.0,0.0,-2.4116,-2.7124,-2.9272,-3.0026,-3.0107,-2.964,-2.8525,-2.7366,-2.5763,-2.3539,-2.1268,0.0,0.0,0.0,0.0,0.0,0.0,0.0,0.0,0.0,0.0,0.0,0.0,0.0,0.0,0.0,0.0,0.0,0.0,0.0,0.0,0.0,0.0,0.0,0.0,0.0,0.0,0.0,0.0,0.0,0.0,0.0,0.0,0.0,0.0,0.0,0.0,0.0,0.0,0.0,0.0,0.0,0.0,0.0,0.0,0.0,0.0,0.0,0.0,0.0,0.0,0.0,0.0,0.0,0.0,-3.3715,-3.4184,-3.4178,-3.4593,-3.5147,-3.2703,-3.1468,-3.1082,0.0,0.0,0.0,0.0,0.0,0.0,0.0,0.0,0.0,0.0,0.0,0.0,0.0,0.0,0.0,0.0,0.0,0.0,0.0,0.0,0.0,0.0,0.0,0.0,0.0,-2.6452,-2.5883,0.0,0.0,0.0,0.0,0.0,0.0,0.0,0.0,0.0,0.0,0.0,0.0,-2.4895,-2.73,-2.9017,-2.963,-2.9707,-2.9173,-2.7913,-2.7131,-2.5816,-2.3719,-2.1711,-1.9658,0.0,0.0,0.0,0.0,0.0,0.0,0.0,0.0,0.0,0.0,0.0,0.0,0.0,0.0,0.0,0.0,0.0,0.0,0.0,0.0,0.0,0.0,0.0,0.0,0.0,0.0,0.0,0.0,0.0,0.0,0.0,0.0,-2.4227,-2.5817,0.0,0.0,0.0,0.0,0.0,0.0,0.0,0.0,0.0,0.0,0.0,0.0,0.0,0.0,-3.2949,-3.4928,-3.5649,-3.5203,-3.7171,-3.7818,-3.7313,-3.731,-3.7708,-3.8393,-3.8012,0.0,-3.3826,-3.1998,0.0,0.0,0.0,0.0,0.0,0.0,0.0,0.0,0.0,0.0,0.0,0.0,0.0,0.0,0.0,0.0,0.0,0.0,0.0,0.0,0.0,0.0,-2.8938,-2.7784,-2.7586,-2.7487,0.0,-2.476,-2.2282,-2.0017,0.0,0.0,0.0,0.0,0.0,0.0,0.0,0.0,-2.3556,-2.6189,-2.7993,-2.8096,-2.8101,-2.8015,-2.7827,-2.7131,-2.6034,-2.4447,-2.3476,-2.2249,-2.0673,-1.8614,0.0,0.0,0.0,0.0,0.0,0.0,0.0,0.0,0.0,0.0,0.0,0.0,0.0,0.0,0.0,0.0,0.0,0.0,0.0,0.0,0.0,0.0,0.0,0.0,0.0,0.0,0.0,0.0,0.0,-2.4224,-2.567,-2.6003,-2.6294,-2.613,0.0,0.0,0.0,0.0,0.0,0.0,0.0,0.0,0.0,-3.4273,-3.3914,-3.481,-3.7127,-3.815,-3.8884,-3.9391,-4.0377,-4.0692,-4.0377,-3.9931,-3.9914,-4.0209,-3.9804,-3.886,-3.7475,-3.5421,-3.371,-3.2262,0.0,0.0,0.0,0.0,0.0,-3.0723,-3.237,-3.2354,0.0,0.0,0.0,0.0,0.0,0.0,0.0,0.0,0.0,0.0,0.0,0.0,0.0,-3.0398,-3.0334,-3.023,-2.9794,-2.8369,-2.6252,0.0,-2.2593,-2.1885,-1.9462,0.0,0.0,0.0,0.0,0.0,-2.5631,-2.7007,-2.7967,-2.843,-2.8083,-2.764,-2.7216,-2.6894,-2.6068,-2.4596,-2.3819,-2.2733,-2.1268,-1.9415,-1.8071,0.0,0.0,0.0,0.0,0.0,0.0,0.0,0.0,0.0,0.0,0.0,0.0,0.0,0.0,0.0,0.0,0.0,0.0,0.0,0.0,0.0,0.0,0.0,0.0,0.0,0.0,0.0,0.0,-2.6076,-2.7101,-2.6792,-2.7964,-2.8132,0.0,0.0,0.0,0.0,0.0,0.0,-3.3055,-3.3529,-3.4934,-3.7557,-3.7259,-3.819,-4.0629,-4.0662,-4.1214,-4.2304,-4.2296,-4.2296,-4.2261,-4.1723,-4.1469,-4.146,-4.0908,-4.0552,-4.0206,-3.7978,-3.6233,-3.4784,-3.3284,-3.2474,-3.2326,-3.3521,-3.3705,-3.3689,-3.5887,-3.5982,-3.5069,-3.4603,0.0,-3.0817,-2.8927,0.0,0.0,0.0,0.0,-2.9291,-3.0379,0.0,-3.1901,-3.2446,-3.2588,-3.2368,-3.1642,-3.105,-2.9609,0.0,-2.5791,-2.5156,-2.1986,0.0,0.0,0.0,0.0,-2.5048,-2.7231,-2.7691,-2.8031,-2.863,-2.7997,-2.73,-2.6742,-2.6691,-2.6068,-2.4596,-2.3968,-2.3022,-2.1527,-2.001,-1.8914,-1.8365,0.0,0.0,0.0,0.0,0.0,0.0,0.0,0.0,0.0,0.0,0.0,0.0,0.0,0.0,0.0,0.0,0.0,0.0,0.0,0.0,0.0,0.0,0.0,0.0,0.0,0.0,0.0,0.0,0.0,-2.9786,-3.1765,0.0,0.0,0.0,0.0,-3.0992,-3.2341,-3.3846,-3.5346,-3.6823,-3.8328,-3.9893,-4.0561,-4.1333,-4.2183,-4.2197,-4.2243,-4.2303,-4.2311,-4.2285,-4.2317,-4.2256,-4.2237,-4.2235,-4.2218,-4.1792,-4.0959,-3.8749,-3.7795,-3.7544,-3.5993,-3.5395,-3.5375,-3.5465,-3.594,-3.6481,-3.5885,-3.6125,-3.6762,-3.7166,-3.5962,-3.4002,-3.2054,-3.0417,0.0,0.0,-3.0692,-3.1226,-3.2,-3.2746,-3.3301,-3.3334,-3.3334,-3.3138,-3.2397,-3.2227,-3.128,0.0,-2.7662,-2.7181,-2.5598,0.0,-2.5139,-2.4444,-2.5593,-2.6589,-2.6742,-2.7374,-2.7817,-2.7862,-2.7199,-2.6742,-2.6691,-2.6691,-2.6068,-2.4596,-2.4462,-2.3773,-2.2296,-2.0749,-1.992,-1.99,-1.7026,0.0,0.0,0.0,0.0,0.0,0.0,0.0,0.0,0.0,0.0,0.0,0.0,0.0,0.0,0.0,0.0,0.0,0.0,0.0,0.0,0.0,0.0,0.0,0.0,0.0,0.0,0.0,0.0,-3.2138,-3.3757,0.0,0.0,-3.2899,-3.3525,-3.4015,-3.5876,-3.7652,-3.914,-4.018,-4.1205,-4.2187,-4.201,-4.2275,-4.3,-4.3022,-4.327,-4.3773,-4.3773,-4.3789,-4.3749,-4.3222,-4.3014,-4.299,-4.25,-4.2149,-4.1809,-4.0535,-3.9724,-3.9211,-3.8179,-3.7802,-3.7788,-3.7788,-3.7968,-3.8238,-3.8439,-3.8363,-3.8087,-3.73,-3.6575,-3.5694,-3.4011,-3.3122,-3.2746,-3.2995,-3.3178,-3.3478,-3.4214,-3.4628,-3.4807,-3.4807,-3.4449,-3.4035,-3.3785,-3.3342,-3.2544,-3.0999,-2.9928,-2.8807,-2.7278,-2.7029,-2.6927,-2.6658,-2.7076,-2.7776,-2.876,-2.826,-2.8002,-2.8511,-2.7453,-2.6691,-2.6691,-2.627,-2.5564,-2.4563,-2.4049,-2.3136,-2.1639,-2.0574,-1.978,-1.9298,-1.7322,-1.5709,0.0,0.0,0.0,0.0,0.0,0.0,0.0,0.0,0.0,0.0,0.0,0.0,0.0,0.0,0.0,0.0,0.0,0.0,0.0,0.0,0.0,0.0,0.0,0.0,0.0,0.0,-3.3326,-3.4066,-3.591,-3.6552,-3.5064,-3.6045,-3.6958,-3.7442,-3.9123,-4.0536,-4.151,-4.2257,-4.2894,-4.3369,-4.3186,-4.3315,-4.3797,-4.3799,-4.407,-4.4615,-4.4615,-4.4615,-4.4598,-4.4052,-4.3811,-4.3766,-4.33,-4.2903,-4.2624,-4.2132,-4.1358,-4.0408,-3.9674,-3.9379,-3.9379,-3.9379,-3.9379,-3.943,-3.9927,-3.9615,-3.8858,-3.807,-3.7691,-3.7343,-3.6236,-3.5801,-3.56,-3.5346,-3.5296,-3.5329,-3.5526,-3.56,-3.56,-3.56,-3.524,-3.4807,-3.4555,-3.4117,-3.3475,-3.2482,-3.1496,-3.0351,-2.8837,-2.8583,-2.8488,-2.8248,-2.8419,-2.8959,-2.9978,-2.922,-2.8691,-2.8956,-2.7844,-2.6962,-2.6725,-2.6017,-2.5296,-2.454,-2.3818,-2.2748,-2.1256,-2.0683,-2.0048,-1.9292,-1.807,-1.6719,-1.524,0.0,0.0,0.0,0.0,0.0,0.0,0.0,0.0,0.0,0.0,0.0,0.0,0.0,0.0,0.0,0.0,0.0,0.0,0.0,0.0,0.0,0.0,0.0,-3.176,-3.3397,-3.4895,-3.565,-3.8328,-3.9588,-3.8176,-3.9986,-4.1238,-4.1238,-4.1914,-4.2323,-4.2336,-4.3037,-4.3454,-4.3435,-4.419,-4.4615,-4.4615,-4.4615,-4.4615,-4.4615,-4.4615,-4.4615,-4.4615,-4.4615,-4.4615,-4.4615,-4.4615,-4.4165,-4.3429,-4.3412,-4.2554,-4.1171,-4.0425,-4.0113,-4.0096,-4.0096,-4.0096,-4.0096,-4.0087,-3.9606,-3.9101,-3.9615,-3.9429,-3.8967,-3.8757,-3.835,-3.778,-3.7035,-3.6825,-3.661,-3.5853,-3.5616,-3.56,-3.56,-3.56,-3.5403,-3.4701,-3.4538,-3.4108,-3.2623,-3.2333,-3.1876,-3.0387,-3.0124,-2.9881,-2.9167,-2.9671,0.0,-3.0124,-3.009,-2.9798,-2.9076,-2.827,-2.7487,-2.6759,-2.6,-2.5256,-2.4554,-2.3755,-2.2683,-2.1256,-2.1172,-2.0794,-1.9986,-1.923,-1.8149,-1.6658,0.0,0.0,0.0,0.0,0.0,0.0,0.0,0.0,0.0,0.0,0.0,0.0,0.0,0.0,0.0,0.0,0.0,0.0,0.0,0.0,0.0,0.0,-3.2924,-3.2924,-3.5265,-3.7432,-3.87,-4.007,-4.095,-4.1068,-4.1644,-4.1999,-4.1999,-4.2668,-4.3085,-4.3105,-4.3847,-4.427,-4.4264,-4.449,-4.4615,-4.4615,-4.5117,-4.5117,-4.4615,-4.5145,-4.5117,-4.4615,-4.4615,-4.4615,-4.4615,-4.4615,-4.4485,-4.4215,-4.3637,-4.2847,-4.1906,-4.118,-4.0552,-4.0096,-4.0096,-4.0096,-4.0027,-3.948,-3.9156,-3.9026,-3.9177,-3.9122,-3.8982,-3.8928,-3.8798,-3.8543,-3.7816,-3.7205,-3.6757,-3.652,-3.6034,-3.56,-3.56,-3.56,-3.5526,-3.5329,-3.5313,-3.4863,-3.3372,-3.3094,-3.2633,-3.1157,-3.0892,-3.0842,-3.0631,0.0,0.0,-3.0892,-2.9967,-2.9215,-2.9017,-2.7806,-2.6928,-2.6725,-2.5531,-2.4724,0.0,-2.2796,-2.1622,-2.1208,-2.0636,-1.9973,-1.9214,-1.8466,-1.7384,0.0,0.0,0.0,0.0,0.0,0.0,0.0,0.0,0.0,0.0,0.0,0.0,0.0,0.0,0.0,0.0,0.0,0.0,0.0,0.0,0.0,0.0,-3.3805,-3.5402,-3.5707,-3.7263,-3.8903,-4.0375,-4.0942,-4.1612,-4.2651,-4.2756,-4.2918,-4.3244,-4.365,-4.3914,-4.3914,-4.4344,-4.4744,-4.5049,-4.5066,-4.5213,-4.5518,-4.597,-4.5807,-4.5081,-4.5484,-4.5309,-4.4615,-4.4615,-4.4615,0.0,-4.4615,-4.4615,-4.4553,-4.4086,-4.3284,0.0,0.0,0.0,0.0,0.0,-3.991,-3.9581,-3.9153,-3.8789,-3.8635,-3.9163,-3.8967,-3.8692,-3.9538,-3.9413,-3.8917,-3.8472,-3.7833,-3.7195,-3.6882,-3.6214,-3.56,-3.56,-3.56,-3.56,-3.56,-3.56,-3.515,-3.3695,0.0,0.0,-3.1436,-3.119,-3.119,-3.119,-3.119,-3.119,0.0,-3.0457,-2.9691,-2.9068,-2.8201,-2.7402,-2.6742,-2.5631,0.0,0.0,0.0,-2.1975,-2.167,-2.0921,0.0,0.0,0.0,0.0,0.0,0.0,0.0,0.0,-1.6098,-1.594,0.0,0.0,0.0,0.0,0.0,0.0,0.0,0.0,0.0,0.0,0.0,0.0,0.0,0.0,0.0,0.0,-3.6349,-3.8278,-3.9005,-3.9199,-3.9757,-4.1153,-4.1393,-4.1988,-4.34,-4.3542,-4.3831,-4.4547,-4.4615,-4.4615,-4.4615,0.0,0.0,0.0,0.0,-4.6028,-4.6664,-4.6857,-4.651,-4.5706,-4.5793,-4.5405,-4.4615,-4.4615,-4.4615,-4.4615,-4.4615,-4.4615,-4.4615,-4.4615,-4.3676,-4.2227,-4.1383,-4.0688,-4.0096,-4.0096,-3.9691,0.0,0.0,0.0,0.0,-3.9225,-3.8768,-3.8112,-4.0001,-3.9766,-3.8883,-3.8883,-3.8346,-3.7619,-3.6978,-3.6214,-3.56,-3.56,-3.56,-3.56,-3.56,-3.56,-3.515,-3.3695,-3.3397,-3.2914,-3.1436,-3.119,-3.119,-3.119,-3.119,0.0,-3.119,-3.112,-3.0542,-2.9145,0.0,0.0,-2.6809,-2.6017,-2.5324,-2.4657,-2.3861,-2.307,-2.2327,-2.167,-2.1591,-2.2167,-2.2168,-2.1808,-2.1063,-2.1063,-2.0732,-2.0091,-1.8035,-1.7764,0.0,0.0,0.0,0.0,0.0,0.0,0.0,0.0,0.0,0.0,0.0,0.0,0.0,0.0,0.0,-3.5919,-3.7665,-3.9039,-3.9791,-4.0408,-4.1095,-4.1974,-4.262,-4.3332,-4.4276,-4.4372,-4.4423,-4.4598,-4.4615,-4.4615,-4.4615,-4.4615,0.0,-4.4823,-4.5391,-4.5784,-4.5915,-4.709,-4.7015,-4.5706,0.0,0.0,-4.4615,-4.4615,-4.4615,-4.4615,-4.4615,-4.4615,-4.4615,-4.4615,-4.3702,-4.2168,-4.0832,-4.0222,-4.0096,-4.0096,-4.0003,-3.98,-3.9211,-3.8509,-3.7933,-3.8207,-3.7709,-3.7195,-3.8176,-3.8326,0.0,-3.8104,-3.7594,-3.6978,-3.6831,-3.6214,-3.56,-3.56,-3.56,-3.56,-3.56,-3.56,-3.515,-3.3695,-3.3397,-3.2914,-3.1436,-3.119,-3.119,-3.119,-3.119,-3.119,-3.119,-3.0684,-2.9976,-2.9094,-2.842,-2.7657,-2.6792,-2.6017,-2.5531,-2.5411,-2.4139,-2.307,-2.2327,-2.2167,-2.1863,-2.1415,-2.1403,-2.1022,-2.0234,-2.0234,-2.0485,-2.0942,-1.986,-1.9517,0.0,0.0,0.0,0.0,0.0,0.0,0.0,0.0,0.0,0.0,0.0,-3.0733,-3.2452,0.0,-3.5912,-3.7631,-3.8843,-3.969,-4.0045,-4.0739,-4.1477,-4.2223,-4.296,-4.3737,-4.4524,-4.4615,-4.4615,-4.4615,-4.4615,-4.4615,-4.4615,-4.4615,-4.4953,-4.5682,-4.607,-4.6582,-4.734,-4.8063,-4.7701,-4.626,-4.6622,-4.6021,-4.4615,-4.4615,-4.4615,-4.4615,-4.4615,-4.4615,-4.4536,-4.3766,-4.2983,-4.2141,-4.0688,-4.0096,-4.0096,-4.0096,-4.0096,-4.0003,-3.9244,-3.8503,-3.7892,-3.7906,-3.7125,-3.64,-3.7541,-3.7631,-3.7438,-3.7804,-3.7364,-3.6787,-3.6803,-3.6214,-3.5673,-3.5943,-3.5797,-3.5673,-3.5943,-3.578,-3.5256,-3.418,-3.3647,-3.3056,-3.1947,-3.1436,-3.119,-3.119,-3.119,-3.119,-3.119,-3.0875,-3.023,-2.9115,-2.8638,-2.7929,-2.6809,-2.6017,-2.5615,-2.5615,-2.4557,-2.3784,-2.3431,-2.3039,-2.2683,-2.2296,-2.1942,-2.1558,-2.1144,-2.1144,-2.1558,-2.2296,-2.1894,-2.151,0.0,0.0,0.0,0.0,0.0,0.0,0.0,0.0,-3.069,-3.1882,-3.2543,-3.3448,-3.5227,-3.6491,-3.7675,-3.8988,-3.9723,-4.0096,-4.0096,-4.073,-4.1416,-4.2013,-4.2851,-4.3723,-4.4507,-4.4615,-4.4615,-4.4615,-4.4615,-4.4615,-4.4615,-4.4615,-4.5145,-4.6344,-4.6505,-4.7153,-4.8357,-4.8506,-4.7914,-4.6586,-4.6576,-4.5891,-4.4615,-4.4615,-4.4615,-4.4615,-4.4615,-4.4615,-4.4485,-4.2948,-4.2297,-4.2141,-4.0688,-4.0096,-4.0096,-4.0096,-4.0096,-4.002,-3.9413,-3.8715,-3.8003,-3.7928,-3.6939,-3.596,-3.7098,-3.7046,-3.6684,-3.7279,-3.7098,-3.6718,-3.6718,-3.6231,-3.5887,-3.6429,-3.6066,-3.5758,-3.6287,-3.5977,-3.5386,-3.4628,-3.3905,-3.3174,-3.2434,-3.1681,-3.119,-3.119,-3.119,-3.119,-3.119,-3.1069,-3.0474,-2.9151,-2.8862,-2.8219,-2.6809,-2.6152,-2.5816,-2.5816,-2.513,-2.4709,-2.4702,-2.4023,-2.3619,-2.361,-2.3039,-2.2731,-2.2731,-2.2731,-2.3039,-2.361,-2.3619,-2.3291,-2.8852,-2.8385,-2.8528,-3.0013,-2.9552,-2.9958,0.0,0.0,-3.3928,-3.5776,-3.6712,-3.7276,-3.753,-3.8217,-3.9005,-3.9842,-4.0045,-4.0096,-4.0096,-4.073,-4.1223,-4.1316,-4.255,-4.3715,-4.4502,-4.4615,-4.4615,-4.4615,-4.4615,-4.4615,-4.4615,-4.4615,-4.4666,-4.484,-4.5479,-4.5896,-4.6065,-4.6734,-4.6636,-4.582,-4.5826,-4.5405,-4.4615,-4.4615,-4.4615,-4.4615,-4.4615,-4.4615,-4.4485,-4.2948,-4.2297,-4.2141,-4.0688,-4.0096,-4.0096,-4.0096,-4.0096,-4.0096,-4.0003,-3.9337,-3.8446,-3.8036,-3.7171,-3.6248,-3.5943,-3.5797,-3.5763,-3.5836,-3.6141,-3.6429,-3.6429,-3.6395,-3.6446,-3.6973,-3.6341,-3.5756,-3.6281,-3.5977,-3.5386,-3.4628,-3.3913,-3.3158,-3.244,-3.1681,-3.119,-3.119,-3.119,-3.119,-3.119,-3.0631,-2.9897,-2.9081,-2.8347,-2.7589,-2.6759,-2.6624,-2.659,-2.659,-2.5883,-2.5481,-2.548,-2.478,-2.437,-2.4381,-2.4312,-2.4247,-2.4247,-2.4247,-2.4312,-2.4381,-2.4387,-2.4317,-3.1945,-3.1183,-3.0875,0.0,-3.2663,-3.3748,-3.5947,-3.6182,-3.6341,-3.7763,-3.8328,-3.8667,-3.9089,-3.9411,-3.974,0.0,-4.0096,-4.0096,-4.0096,-4.0375,-4.0722,-4.1146,-4.1749,-4.2591,-4.3788,-4.3895,-4.4086,-4.4553,-4.4615,-4.4615,-4.4615,-4.4615,-4.4806,-4.523,-4.5527,-4.5925,-4.6333,-4.6641,-4.643,-4.5698,-4.5694,-4.5309,-4.4615,-4.4615,-4.4615,-4.4615,-4.4615,-4.4615,-4.4485,-4.2948,-4.2297,-4.2141,-4.0688,-4.0096,-4.0096,-4.0096,-4.0096,-4.0096,-4.0096,-3.9539,-3.8785,-3.8419,-3.7556,-3.6576,-3.6197,-3.5853,-3.56,-3.56,-3.5977,-3.64,-3.64,-3.6628,-3.6991,-3.7503,-3.6816,-3.6206,-3.6758,-3.6214,-3.56,-3.56,-3.4628,-3.3794,-3.3765,-3.2755,-3.1964,-3.1964,-3.1506,-3.119,-3.119,-3.0929,-3.0287,-2.9116,-2.7895,-2.7029,-2.6725,-2.6691,-2.6691,-2.6691,-2.6404,-2.6236,-2.6236,-2.5531,-2.5145,-2.5147,-2.4715,-2.45,-2.45,-2.45,-2.4715,-2.5147,-2.5145,-2.5379,-3.3783,-3.3243,0.0,-3.3677,-3.5115,-3.6526,-3.6889,-3.7408,-3.8111,-3.9103,-3.9292,-3.9486,-4.0011,-4.0096,-4.0096,-4.0096,-4.0096,-4.0096,-4.0096,-4.0096,-4.0375,-4.1112,-4.1205,-4.1699,-4.297,-4.3277,-4.3637,-4.4215,-4.4485,-4.4615,-4.4615,-4.4615,-4.484,-4.5388,-4.5405,-4.5648,-4.6197,-4.6197,-4.5925,-4.5405,-4.5405,-4.5117,-4.4615,-4.4615,-4.4615,-4.4615,-4.4615,-4.4615,-4.4485,-4.2948,-4.2297,-4.2141,-4.0688,-4.0096,-4.0096,-4.0096,-4.0096,-4.0096,-4.0096,-3.9817,-3.9355,-3.8787,-3.7972,-3.7148,-3.6578,-3.6034,-3.56,-3.56,-3.5977,-3.644,-3.6579,-3.6903,-3.7352,-3.7974,-3.7238,-3.658,-3.7262,-3.6576,-3.5977,-3.652,-3.5536,-3.4671,-3.478,-3.3705,-3.2755,-3.2527,-3.1967,-3.1557,-3.1567,-3.1086,-3.0232,-2.8819,-2.7487,-2.6691,-2.6691,-2.6691,-2.6691,-2.6691,-2.6691,-2.6691,-2.6691,-2.6202,-2.59,-2.59,-2.538,-2.5113,-2.5113,-2.5113,-2.538,-2.59,-2.59,-2.6202,-3.337,0.0,-3.4848,-3.5849,-3.6449,-3.7174,-3.8589,-3.8928,-3.9148,-3.991,-4.0079,-4.0079,-4.0096,-4.0096,-4.0096,-4.0096,-4.0096,-4.0096,-4.0096,-4.0096,-4.0375,-4.1112,-4.1205,-4.1494,0.0,-4.2983,-4.3412,-4.3429,-4.4165,-4.4615,-4.4615,-4.4615,-4.4615,-4.4632,-4.4632,-4.4632,-4.4666,-4.4666,-4.4649,-4.4632,-4.4632,-4.4615,-4.4615,-4.4615,-4.4615,-4.4615,-4.4615,-4.4615,-4.4485,-4.2948,-4.2297,-4.2141,-4.0688,-4.0096,-4.0096,-4.0096,-4.0096,-4.0096,-4.0096,-4.0299,-4.0341,-3.9042,-3.8485,-3.8111,-3.6803,-3.6034,-3.56,-3.56,-3.5977,-3.6509,-3.7043,-3.7186,-3.7439,-3.8431,-3.7515,-3.6669,-3.7659,-3.708,-3.652,-3.7063,-3.6515,-3.57,-3.494,-3.416,-3.3387,-3.2616,-3.2475,-3.2454,-3.2462,-3.0805,-2.9192,-2.7964,-2.7148,-2.6691,-2.6691,-2.6691,-2.6691,-2.6691,-2.6691,-2.6691,-2.6691,-2.6674,-2.6674,-2.6674,-2.6624,-2.6624,-2.6624,-2.6624,-2.6624,-2.6674,-2.6674,-2.6674,-3.4975,0.0,-3.608,-3.7661,-3.816,-3.8539,-3.952,-3.974,-3.9808,-4.0045,-3.9723,-3.9385,-3.9385,-3.9376,-3.9385,-3.9387,-3.9783,-4.0096,-4.0096,-4.0518,-4.0925,-4.1163,-4.1182,0.0,0.0,0.0,0.0,-4.3356,-4.3637,-4.4052,-4.4581,-4.4615,-4.4615,-4.4615,-4.4615,-4.4615,-4.4615,-4.4615,-4.4615,-4.4615,-4.4615,-4.4615,-4.4615,-4.4615,-4.4615,-4.4615,-4.4615,-4.4615,-4.4485,-4.2948,-4.2297,-4.2141,-4.0688,-4.0096,-4.0096,-4.0096,-4.0332,-4.0595,-4.0222,-4.0408,-4.0614,-3.9494,-3.9139,-3.8857,-3.7363,-3.6791,-3.6593,-3.6231,-3.6757,-3.744,-3.7612,-3.7936,-3.8279,-3.8618,-3.8044,-3.749,-3.7841,-3.7386,-3.7095,-3.7578,-3.702,-3.6307,-3.5868,-3.5114,-3.4283,-3.3473,-3.2875,-3.2506,-3.2504,-3.1042,-2.985,-2.9454,-2.8236,-2.7385,-2.7131,-2.7097,-2.6995,-2.6725,-2.6691,-2.6691,-2.6691,-2.6691,-2.6691,-2.6691,-2.6691,-2.6691,-2.6691,-2.6691,-2.6691,-2.6691,-2.6691,-2.6691,-3.6664,-3.7271,-3.7732,-3.9059,-3.9402,-3.9537,-3.9994,-3.991,-3.9639,-3.9385,-3.8742,-3.8125,-3.7838,-3.779,-3.7971,-3.8531,-3.9009,-3.9598,-4.0391,-4.0662,-4.1002,-4.1525,-4.1603,0.0,0.0,0.0,0.0,-4.2966,-4.3512,-4.4052,-4.4581,-4.4615,-4.4615,-4.4615,-4.4615,-4.4615,-4.4615,-4.4615,-4.4615,-4.4615,-4.4615,-4.4615,-4.4615,-4.4615,-4.4615,-4.4615,-4.4615,-4.4615,-4.4485,-4.2948,-4.2297,-4.2141,-4.0688,-4.0222,-4.0425,-4.0391,-4.0739,-4.1146,-4.0595,-4.0908,-4.1388,-4.043,-3.9959,-3.9546,-3.8264,-3.7575,-3.7134,-3.6771,-3.7156,-3.7694,-3.7875,-3.8169,-3.8456,-3.8637,-3.8294,-3.7958,-3.8132,-3.7791,-3.7598,-3.8099,-3.776,-3.7186,-3.6422,-3.5351,-3.4388,-3.3875,-3.3331,-3.2912,-3.277,-3.1653,-3.0695,-3.0237,-2.9074,-2.812,-2.756,-2.7374,-2.7199,-2.6928,-2.6792,-2.6691,-2.6691,-2.6691,-2.6691,-2.6691,-2.6691,-2.6691,-2.6691,-2.6691,-2.6691,-2.6691,-2.6691,-2.6691,-3.8317,-3.9106,-3.9707,-4.0085,-4.013,-4.0096,-4.0045,-3.9462,-3.8717,-3.7939,-3.7161,-3.6366,-3.5526,0.0,-3.6061,-3.7478,-3.7878,-3.8749,-4.0908,-4.0637,-4.0736,0.0,0.0,0.0,0.0,0.0,0.0,-4.2363,0.0,-4.4519,-4.4615,-4.4615,-4.4615,-4.4615,-4.4615,-4.4615,-4.4615,-4.4615,-4.4615,-4.4615,-4.4615,-4.4615,-4.4615,-4.4615,-4.4615,-4.4615,-4.4615,-4.4615,-4.4485,-4.2948,-4.2297,-4.2141,-4.0722,-4.0501,-4.0984,-4.0965,-4.1329,-4.1753,-4.1201,-4.1736,-4.2552,-4.1682,-4.0934,-4.0188,-3.9357,-3.8255,-3.7265,-3.724,-3.7259,-3.7366,-3.783,-3.7937,-3.808,-3.8582,-3.8313,-3.808,-3.86,-3.8313,-3.8099,-3.86,-3.8634,-3.8077,-3.6574,-3.4906,-3.3807,-3.3807,-3.3807,-3.3665,-3.3281,-3.2579,-3.1655,-3.0385,-2.9596,-2.8817,-2.7999,-2.7558,-2.7316,-2.73,-2.6928,-2.6691,-2.6691,-2.6691,-2.6691,-2.6691,-2.6691,-2.6691,-2.6691,-2.6691,-2.6691,-2.6691,-2.6691,-2.6691,-3.9242,-3.9836,-4.0127,-4.0756,-4.0493,-3.996,-3.9419,-3.87,-3.7804,-3.6462,-3.5165,-3.3874,-3.2562,0.0,0.0,-3.54,-3.7722,0.0,-4.1035,-4.1521,0.0,-4.3013,0.0,-4.3123,-4.3122,-4.3128,0.0,0.0,-4.2983,-4.3396,-4.4536,-4.4615,-4.4615,-4.4615,-4.4615,-4.4615,-4.4615,-4.4615,-4.4615,-4.4615,-4.4615,-4.4615,-4.4615,-4.4615,-4.4615,-4.4615,-4.4615,-4.4615,-4.4485,-4.2948,-4.2297,-4.22,-4.1129,-4.0798,-4.0988,-4.1402,-4.1948,-4.2457,-4.2275,-4.2457,-4.2552,-4.1685,-4.1168,-4.0668,-3.946,-3.8729,-3.8231,-3.7831,-3.801,-3.8349,-3.8456,-3.8493,-3.853,-3.8655,-3.86,-3.853,-3.8655,-3.86,-3.853,-3.8655,-3.7734,-3.6772,-3.6376,-3.4922,-3.3807,-3.3807,-3.3807,-3.377,-3.3665,-3.2962,-3.2114,-3.1188,-3.0399,-2.9474,-2.8375,-2.7954,-2.7628,-2.7316,-2.6928,-2.6691,-2.6691,-2.6691,-2.6691,-2.6691,-2.6691,-2.6691,-2.6691,-2.6691,-2.6691,-2.6691,-2.6691,-2.6691,-3.9807,-4.035,-4.0595,-4.0679,-4.0417,-3.974,-3.8352,-3.7449,-3.6226,-3.3853,-3.234,0.0,-3.0128,-3.1722,0.0,0.0,0.0,0.0,-4.0959,-4.1564,-4.2077,0.0,-4.3189,0.0,-4.339,-4.3396,-4.3551,0.0,-4.3538,-4.3698,-4.4536,-4.4615,-4.4615,-4.4615,-4.4615,-4.4727,-4.4987,-4.4727,-4.4727,-4.4987,-4.4727,-4.4615,-4.4615,-4.4615,-4.4615,-4.4615,0.0,-4.4536,-4.439,-4.3188,-4.2632,-4.2474,-4.1647,-4.1449,-4.1732,-4.2087,-4.2551,-4.3059,-4.3059,-4.3059,-4.2969,-4.2496,-4.177,-4.0968,-4.022,-3.939,-3.8637,-3.8349,-3.8475,-3.8707,-3.8707,-3.8707,-3.8707,-3.8707,-3.8707,-3.8707,-3.8707,-3.8707,-3.8707,-3.8707,-3.7704,-3.6703,-3.637,-3.52,-3.4209,-3.3844,-3.3807,-3.3807,-3.3807,-3.3418,-3.2674,-3.1524,-3.0993,-3.0107,-2.8526,-2.8084,-2.7717,-2.7332,-2.6928,-2.6691,-2.6691,-2.6691,-2.6691,-2.6691,-2.6691,-2.6691,-2.6691,-2.6691,-2.6691,-2.6691,-2.6691,-2.6691,-4.024,-4.0629,-4.0899,-4.0265,-4.0028,-3.9385,-3.7151,-3.5876,-3.4219,-3.0842,0.0,-2.8421,-2.7958,-2.9002,-3.0907,-3.3815,0.0,-3.7811,-4.0798,-4.1211,-4.1516,-4.2345,-4.2998,-4.3429,-4.3541,-4.3558,-4.3844,-4.4536,-4.4615,-4.4615,-4.4615,-4.4615,-4.4615,-4.4615,-4.4615,-4.4857,-4.5388,-4.4855,-4.4855,-4.5388,-4.4857,-4.4615,-4.4615,-4.4615,-4.4632,-4.471,0.0,0.0,-4.4367,-4.3515,-4.3066,-4.2829,-4.2182,-4.2246,-4.2714,-4.2787,-4.3096,-4.3515,-4.3515,-4.3515,-4.3515,-4.3515,-4.2405,-4.1113,-4.1106,-3.9986,-3.8707,-3.8707,-3.8707,-3.8707,-3.8707,-3.8707,-3.8707,-3.8707,-3.8707,-3.8707,-3.8707,-3.8707,-3.8707,-3.8707,-3.8059,-3.7286,-3.6579,-3.5657,-3.476,-3.4059,-3.3862,-3.3807,-3.3807,-3.3807,-3.322,-3.172,-3.1568,-3.078,-2.8817,-2.8318,-2.7924,-2.7468,-2.708,-2.6826,-2.6792,-2.6792,-2.6742,-2.6691,-2.6691,-2.6691,-2.6691,-2.6809,-2.6809,-2.6691,-2.6809,-2.686,-4.1018,-4.0646,-4.0265,-4.013,-3.9656,-3.8599,-3.6332,-3.4286,0.0,0.0,-2.7146,-2.6084,-2.5715,-2.7598,-3.007,-3.2751,0.0,0.0,0.0,0.0,-4.1711,0.0,0.0,0.0,0.0,0.0,0.0,0.0,0.0,0.0,-4.4615,-4.4615,-4.4615,-4.4615,-4.4615,-4.4649,-4.4761,-4.4659,-4.4659,-4.4744,-4.4649,-4.4615,-4.4615,-4.4615,-4.4857,-4.5309,0.0,0.0,-4.4933,-4.3529,-4.2936,-4.2885,-4.2648,-4.2596,-4.2751,-4.3205,-4.3424,-4.3515,-4.3515,-4.3515,-4.3515,-4.3515,-4.2405,-4.1113,-4.1106,-3.9986,-3.8707,-3.8707,-3.8707,-3.8707,-3.8707,-3.8707,-3.8707,-3.8707,-3.8707,-3.8707,-3.8707,-3.8707,-3.8707,-3.8707,-3.805,-3.7448,-3.7326,-3.6015,-3.4949,-3.4807,-3.4234,-3.3807,-3.3807,-3.3807,-3.345,-3.2491,-3.239,-3.1715,-3.0028,-2.9537,-2.8994,-2.827,-2.7878,-2.7555,-2.7216,-2.7199,-2.7029,-2.6725,-2.6691,-2.6691,-2.6691,-2.73,-2.73,-2.6725,-2.7334,-2.7623,-4.073,-4.0383,-4.0096,-4.0096,-3.9242,-3.7635,-3.4573,0.0,0.0,0.0,-2.5215,-2.4675,-2.451,0.0,0.0,0.0,0.0,0.0,0.0,0.0,0.0,0.0,0.0,0.0,0.0,0.0,0.0,0.0,0.0,0.0,-4.4615,-4.4615,-4.4615,-4.4615,-4.4615,-4.4744,-4.5066,-4.4755,-4.492,-4.5535,-4.5213,-4.523,-4.5535,-4.5535,-4.5456,-4.5324,-4.4938,0.0,-4.4409,-4.3669,-4.3297,-4.3223,-4.3133,-4.3114,-4.3151,-4.3406,-4.3515,-4.3515,-4.3515,-4.3515,-4.3424,-4.3005,-4.2078,-4.1113,-4.1106,-3.9986,-3.8707,-3.8707,-3.8707,-3.8707,-3.8707,-3.8707,-3.8707,-3.8707,-3.8707,-3.8707,-3.8707,-3.8707,-3.8707,-3.8707,-3.8395,-3.7976,-3.7564,-3.6483,-3.5519,-3.5064,-3.4325,-3.3807,-3.3807,-3.3807,-3.35,-3.2695,-3.2606,-3.2063,-3.0675,-2.9985,-2.9354,-2.8806,-2.8227,-2.7819,-2.7618,-2.7597,-2.7425,-2.7013,-2.7385,-2.7283,-2.6691,-2.7436,-2.7622,-2.7278,-2.764,-2.8014,-4.0265,-4.0096,-4.0096,-4.0096,-3.8853,-3.6745,-3.3209,-3.1162,0.0,0.0,-2.3863,-2.3788,-2.3987,0.0,-2.7341,0.0,0.0,0.0,0.0,0.0,0.0,0.0,0.0,0.0,0.0,0.0,0.0,0.0,0.0,0.0,0.0,-4.4615,-4.4615,-4.4615,-4.4615,-4.4874,-4.5501,-4.5049,-4.5326,-4.6379,-4.5905,-4.5866,-4.6144,-4.6144,-4.5788,-4.5157,-4.4959,0.0,0.0,-4.3806,-4.3642,-4.3515,-4.3515,-4.3515,-4.3515,-4.3515,-4.3515,-4.3515,-4.3515,-4.3387,-4.3133,-4.2514,-4.1752,-4.1059,-4.0906,-3.9841,-3.8707,-3.8707,-3.8707,-3.8707,-3.8707,-3.8707,-3.8707,-3.8707,-3.8707,-3.8707,-3.8707,-3.8707,-3.8707,-3.8707,-3.8707,-3.8505,-3.7878,-3.6945,-3.6064,-3.5371,-3.4431,-3.3807,-3.3807,-3.3807,-3.3568,-3.2913,-3.286,-3.2423,-3.1373,-3.0638,-3.005,-2.9614,-2.9005,-2.8526,-2.8271,-2.844,-2.8227,-2.7561,-2.8271,-2.8166,-2.7182,-2.793,-2.8217,-2.8066,-2.8227,-2.8629,-4.013,-4.0096,-4.0096,-4.0096,-3.8488,-3.6175,-3.3396,0.0,0.0,-2.4847,-2.3733,-2.3487,-2.4216,-2.4289,-2.5497,-2.9454,0.0,-3.2003,0.0,0.0,0.0,0.0,0.0,0.0,0.0,0.0,0.0,0.0,0.0,0.0,0.0,-4.4615,-4.4615,-4.4615,-4.4615,-4.4874,-4.5501,-4.5439,-4.5761,-4.639,-4.635,-4.5969,-4.5307,-4.5307,-4.5198,-4.4979,0.0,0.0,0.0,-4.3825,-4.3533,-4.3515,-4.3515,-4.3515,-4.3515,-4.3515,-4.3515,-4.3515,-4.3515,-4.3005,-4.2405,-4.2315,-4.1752,-4.0968,-4.0239,-3.9409,-3.8707,-3.8707,-3.8707,-3.8707,-3.8707,-3.8707,-3.8707,-3.8707,-3.8707,-3.8707,-3.8707,-3.8707,-3.8707,-3.8707,-3.8707,-3.8689,-3.8597,-3.7312,-3.6266,-3.6193,-3.4816,-3.3807,-3.3807,-3.3807,-3.377,-3.3697,-3.3683,-3.335,-3.2519,-3.2373,-3.1995,-3.1233,-3.1115,-3.0595,-2.9485,-3.0192,-2.9881,-2.832,-2.9076,-2.9259,-2.879,-2.9541,-2.9556,-2.8922,-2.9565,-2.9931,-3.9309,-3.9774,-3.9994,-3.9554,-3.7736,-3.5226,-3.193,0.0,-2.6811,-2.393,-2.325,-2.3307,-2.3612,-2.3952,-2.4969,-2.7308,-2.7731,-2.9131,-3.3069,0.0,0.0,0.0,0.0,0.0,0.0,0.0,0.0,0.0,0.0,0.0,0.0,-4.4615,-4.4615,-4.4615,-4.4615,-4.4874,-4.5501,-4.5509,-4.6006,-4.7007,-4.6511,-4.6299,-4.6337,-4.5847,-4.5333,-4.4802,0.0,0.0,0.0,-4.3625,-4.3515,-4.3515,-4.3515,-4.3515,-4.3515,-4.3515,-4.3515,-4.3424,-4.295,-4.2569,-4.2131,-4.1167,-4.0634,-4.0322,-3.9994,-3.9354,-3.8707,-3.8707,-3.8707,-3.8707,-3.8707,-3.8707,-3.8707,-3.8707,-3.8707,-3.8707,-3.8707,-3.8707,-3.8707,-3.8707,-3.8707,-3.8707,-3.8707,-3.7367,-3.6303,-3.6303,-3.4871,-3.3807,-3.3807,-3.3807,-3.3807,-3.3807,-3.3807,-3.3665,-3.335,-3.2892,-3.2465,-3.2131,-3.1207,-3.057,-3.0326,-3.0202,-2.9779,-2.9079,-2.9814,-2.9811,-2.9001,-2.9744,-2.9952,-2.9656,-2.9953,-3.0334,-3.8075,-3.8894,-3.9309,-3.8802,-3.6881,-3.4283,0.0,-2.8648,-2.6283,-2.355,-2.3097,-2.3187,-2.3207,-2.3653,-2.4392,-2.5425,-2.602,-2.7443,-3.0584,-3.142,0.0,0.0,0.0,0.0,0.0,0.0,0.0,0.0,0.0,0.0,0.0,-4.4328,-4.4553,-4.4857,-4.4632,-4.4891,-4.5682,-4.5477,-4.5877,-4.6942,-4.6391,-4.621,-4.636,-4.5806,-4.5103,0.0,0.0,0.0,0.0,-4.3515,-4.3515,-4.3515,-4.3515,-4.3515,-4.3515,-4.3515,-4.3515,-4.3387,-4.2569,-4.2128,-4.1717,-4.036,-3.9734,-3.9553,-3.9553,-3.9157,-3.8707,-3.8707,-3.8707,-3.8707,-3.8707,-3.8707,-3.8707,-3.8707,-3.8707,-3.8707,-3.8707,-3.8707,-3.8707,-3.8707,-3.8707,-3.8707,-3.8707,-3.7551,-3.656,-3.634,-3.5073,-3.4082,-3.3825,-3.3807,-3.3807,-3.3807,-3.3807,-3.3807,-3.3807,-3.3293,-3.2941,-3.2962,-3.1884,-3.1223,-3.1154,-3.0832,-3.0413,-2.9849,-3.0559,-3.0517,-2.964,-3.0174,-3.0421,-3.0421,-3.0421,-3.0701,-3.6423,-3.7347,-3.7922,-3.7922,-3.5954,-3.3478,0.0,-2.8757,-2.6129,-2.4111,-2.3434,-2.3204,-2.3195,-2.3213,-2.3476,-2.4288,-2.5693,-2.7606,-3.0245,0.0,0.0,0.0,0.0,0.0,0.0,0.0,0.0,0.0,0.0,0.0,0.0,0.0,-4.4468,-4.5456,-4.4727,-4.4919,-4.6169,-4.5383,-4.5308,-4.5913,-4.5895,-4.5498,-4.472,-4.472,0.0,0.0,0.0,0.0,0.0,-4.3515,-4.3515,-4.3515,-4.3515,-4.3515,-4.3515,-4.3515,-4.3515,-4.3387,-4.2569,-4.1785,-4.0979,-4.0148,-3.9372,-3.8707,-3.8707,-3.8707,-3.8707,-3.8707,-3.8707,-3.8707,-3.8707,-3.8707,-3.8707,-3.8707,-3.8707,-3.8707,-3.8707,-3.8707,-3.8707,-3.8707,-3.8707,-3.8707,-3.8707,-3.8028,-3.7217,-3.6413,-3.5555,-3.4692,-3.3899,-3.3807,-3.3807,-3.3807,-3.3807,-3.3807,-3.3807,-3.3788,-3.3788,-3.3788,-3.377,-3.3232,-3.2035,-3.2745,-3.2348,-3.0612,-3.1373,-3.1585,-3.1173,-3.1173,-3.119,-3.119,-3.119,-3.119,-3.3046,-3.3897,-3.4151,-3.3116,-3.2431,-3.1319,-2.8607,-2.7327,-2.6135,-2.4116,-2.3443,-2.333,-2.3804,-2.3501,-2.4064,-2.6702,-2.7397,0.0,0.0,0.0,0.0,0.0,0.0,0.0,0.0,0.0,0.0,0.0,0.0,0.0,0.0,0.0,-4.3779,-4.4456,-4.4233,-4.4521,-4.5356,-4.513,-4.5295,-4.59,-4.5332,-4.4945,-4.4665,-4.4135,0.0,0.0,0.0,0.0,0.0,-4.3515,-4.3515,-4.3515,-4.3515,-4.3515,-4.344,-4.2887,-4.2687,-4.2481,-4.1139,-4.0487,-4.0148,-3.9354,-3.8906,-3.8707,-3.8707,-3.8707,-3.8707,-3.8707,-3.8707,-3.8707,-3.8707,-3.8707,-3.8707,-3.8707,-3.8707,-3.8707,-3.8707,-3.8707,-3.8707,-3.8707,-3.8707,-3.8707,-3.8707,-3.8028,-3.7235,-3.6413,-3.5555,-3.4711,-3.3899,-3.3807,-3.3807,-3.3807,-3.3807,-3.3807,-3.3807,-3.3807,-3.3807,-3.3807,-3.3293,-3.2938,-3.283,-3.2535,-3.2086,-3.1435,-3.1661,-3.1603,-3.119,-3.119,-3.119,-3.119,-3.119,-3.119,-2.9976,-3.1086,-3.1482,-3.0514,-3.0072,-2.9284,-2.7098,-2.6206,-2.5383,-2.3842,-2.3342,-2.3339,-2.3753,-2.3584,-2.407,-2.6115,-2.6903,0.0,0.0,0.0,0.0,0.0,0.0,0.0,0.0,0.0,0.0,0.0,0.0,0.0,0.0,0.0,-4.3266,-4.3796,-4.3883,-4.4144,-4.4591,-4.4482,-4.4628,-4.4976,-4.4482,-4.4262,-4.4227,0.0,0.0,0.0,0.0,0.0,0.0,-4.3515,-4.3515,-4.3515,-4.3515,-4.3309,-4.2984,-4.2479,-4.2115,-4.1659,-4.0357,-3.9895,-3.9768,-3.8958,-3.8707,-3.8707,-3.8707,-3.8707,-3.8707,-3.8707,-3.8707,-3.8707,-3.8707,-3.8707,-3.8707,-3.8707,-3.8707,-3.8707,-3.8707,-3.8707,-3.8707,-3.8707,-3.8707,-3.8707,-3.8707,-3.8285,-3.7584,-3.6468,-3.5844,-3.5078,-3.3954,-3.3807,-3.3807,-3.3807,-3.3807,-3.3807,-3.3807,-3.3807,-3.3807,-3.3807,-3.333,-3.3103,-3.3194,-3.2723,-3.2321,-3.2062,-3.1892,-3.1678,-3.143,-3.1271,-3.119,-3.119,-3.119,-3.119,0.0,-2.8734,-2.952,-2.9476,-2.8535,-2.7418,-2.6614,-2.5414,0.0,-2.3447,-2.325,-2.3262,-2.3336,-2.3537,-2.3687,-2.3618,-2.5098,0.0,0.0,0.0,0.0,0.0,0.0,0.0,0.0,0.0,0.0,0.0,0.0,0.0,0.0,0.0,0.0,-4.3354,-4.3642,-4.3806,-4.3861,-4.3606,-4.3515,-4.3515,-4.3515,-4.3515,-4.3515,0.0,0.0,0.0,0.0,0.0,0.0,-4.3351,-4.3332,-4.333,-4.3332,-4.2859,-4.2211,-4.2156,-4.1665,-4.0908,-4.0093,-3.9804,-3.9697,-3.894,-3.8707,-3.8707,-3.8707,-3.8707,-3.8707,-3.8707,-3.8707,-3.8707,-3.8707,-3.8707,-3.8707,-3.8707,-3.8707,-3.8707,-3.8707,-3.8707,-3.8707,-3.8707,-3.8707,-3.8707,-3.8707,-3.8707,-3.8175,-3.6615,-3.634,-3.5716,-3.4082,-3.3844,-3.3807,-3.3807,-3.3807,-3.3807,-3.3807,-3.3807,-3.3807,-3.3807,-3.3807,-3.362,-3.3258,-3.3243,-3.3014,-3.2568,-3.2057,-3.1789,-3.1752,-3.1372,-3.119,-3.119,-3.119,-3.119,-2.4649,0.0,-2.5866,-2.53,-2.5554,-2.5739,0.0,-2.4969,-2.4933,-2.4132,-2.3757,-2.3845,-2.4728,-2.4225,-2.4555,-2.7217,-2.8273,0.0,0.0,0.0,0.0,0.0,0.0,0.0,0.0,0.0,0.0,0.0,0.0,0.0,0.0,0.0,0.0,-4.2206,-4.3096,-4.357,-4.3588,-4.3533,-4.3515,-4.3515,-4.3515,-4.3515,-4.3515,0.0,0.0,0.0,0.0,0.0,-4.2532,-4.1933,-4.1666,-4.1657,-4.1653,-4.1557,-4.1309,-4.0695,-4.0335,-4.0073,-3.9252,-3.8977,-3.8958,-3.8762,-3.8707,-3.8707,-3.8707,-3.8707,-3.8707,-3.8707,-3.8707,-3.8707,-3.8707,-3.8707,-3.8707,-3.8707,-3.8707,-3.8707,-3.8707,-3.8707,-3.8707,-3.8707,-3.8707,-3.8707,-3.8707,-3.8707,-3.8358,-3.7382,-3.6703,-3.5917,-3.4857,-3.4192,-3.3807,-3.3807,-3.3807,-3.3807,-3.3807,-3.3807,-3.3807,-3.3807,-3.3807,-3.3748,-3.3666,-3.3666,-3.3473,-3.3049,-3.2231,-3.1641,-3.1332,-3.1249,-3.119,-3.119,-3.119,-3.119,-2.3898,-2.4486,-2.4976,-2.4585,-2.4835,-2.5069,-2.4622,-2.4569,-2.4508,-2.4054,-2.3941,-2.4024,-2.4337,-2.4435,-2.5122,-2.7115,-2.8193,0.0,0.0,0.0,0.0,0.0,0.0,0.0,0.0,0.0,0.0,0.0,0.0,0.0,0.0,0.0,0.0,0.0,-4.2078,-4.2641,-4.3133,-4.3387,-4.3515,-4.3515,-4.3133,-4.295,-4.295,0.0,0.0,0.0,0.0,0.0,-4.1711,-4.1277,-4.1098,-4.1108,-4.1103,-4.0868,-4.0507,-4.0062,-3.9666,-3.9294,-3.8854,-3.8707,-3.8707,-3.8707,-3.8707,-3.8707,-3.8707,-3.8707,-3.8707,-3.8707,-3.8707,-3.8707,-3.8707,-3.8707,-3.8707,-3.8707,-3.8707,-3.8707,-3.8707,-3.8707,-3.8707,-3.8707,-3.8707,-3.8707,-3.8707,-3.8707,-3.8432,-3.7621,-3.6831,-3.5991,-3.5114,-3.4289,-3.3807,-3.3807,-3.3807,-3.3807,-3.3807,-3.3807,-3.3807,-3.3807,-3.3807,-3.3807,-3.3807,-3.3807,-3.3512,-3.2884,-3.2162,-3.1603,-3.119,-3.119,-3.119,-3.119,-3.119,-3.119,-2.41,-2.4886,-2.5437,-2.5249,-2.5062,-2.4879,-2.4817,-2.4236,-2.371,-2.3775,-2.3959,-2.4024,-2.3692,-2.4617,0.0,0.0,0.0,0.0,0.0,0.0,0.0,0.0,0.0,0.0,0.0,0.0,0.0,0.0,0.0,0.0,0.0,0.0,0.0,0.0,-4.1112,-4.1546,-4.2436,-4.2913,-4.3205,-4.3297,-4.2514,-4.2131,-4.209,-4.142,0.0,0.0,0.0,0.0,-4.0923,-4.0779,-4.0726,-4.0726,-4.0726,-4.0327,-3.9715,-3.9715,-3.9283,-3.8707,-3.8707,-3.8707,-3.8707,-3.8707,-3.8707,-3.8707,-3.8707,-3.8707,-3.8707,-3.8707,-3.8707,-3.8707,-3.8707,-3.8707,-3.8707,-3.8707,-3.8707,-3.8707,-3.8707,-3.8707,-3.8707,-3.8707,-3.8707,-3.8707,-3.8707,-3.8707,-3.8469,-3.7786,-3.7015,-3.6211,-3.5481,-3.4559,-3.399,-3.399,-3.3862,-3.3807,-3.3807,-3.3807,-3.3807,-3.3807,-3.3807,-3.3762,-3.3707,-3.3707,-3.3284,-3.2417,-3.2004,-3.1603,-3.119,-3.119,-3.119,-3.119,-3.119,-3.119,-2.4513,-2.53,-2.5656,-2.4639,-2.464,-2.4798,-2.4398,-2.3987,-2.3775,-2.407,-2.3941,-2.4153,0.0,-2.5518,-2.6114,0.0,0.0,0.0,0.0,0.0,0.0,0.0,0.0,0.0,0.0,0.0,0.0,0.0,0.0,0.0,0.0,0.0,0.0,0.0,0.0,-4.1175,-4.1354,-4.1432,-4.1806,-4.246,-4.1679,-4.1286,-4.1283,-4.1156,-4.1101,0.0,0.0,-4.0083,-4.0038,-3.9354,-3.9068,-3.9068,-3.9068,-3.8995,-3.8888,-3.8888,-3.8814,-3.8707,-3.8707,-3.8707,-3.8707,-3.8707,-3.8707,-3.8707,-3.8707,-3.8707,-3.8707,-3.8707,-3.8707,-3.8707,-3.8707,-3.8707,-3.8707,-3.8707,-3.8707,-3.8707,-3.8707,-3.8707,-3.8707,-3.8707,-3.8707,-3.8707,-3.8707,-3.8707,-3.867,-3.8524,-3.7826,-3.7272,-3.7125,-3.5771,-3.4821,-3.4821,-3.4211,-3.3807,-3.3807,-3.3807,-3.3807,-3.3807,-3.3807,-3.3652,-3.3302,-3.3288,-3.2856,-3.1933,-3.1843,-3.1603,-3.119,-3.119,-3.119,-3.119,-3.119,-3.119,-2.4064,-2.4658,-2.5048,-2.4623,-2.5341,-2.6081,-2.5859,-2.5524,-2.5253,-2.5188,-2.504,0.0,0.0,0.0,0.0,0.0,0.0,0.0,0.0,0.0,0.0,0.0,0.0,0.0,0.0,0.0,0.0,0.0,0.0,0.0,0.0,0.0,0.0,0.0,0.0,0.0,-4.0453,-4.0013,-4.0439,-4.1634,-4.0836,-4.0446,-4.0437,-4.0004,-3.9804,-3.9786,0.0,-3.9246,-3.9228,-3.8851,-3.8707,-3.8707,-3.8707,-3.8707,-3.8707,-3.8707,-3.8707,-3.8707,-3.8707,-3.8707,-3.8707,-3.8707,-3.8707,-3.8707,-3.8707,-3.8707,-3.8707,-3.8707,-3.8707,-3.8707,-3.8707,-3.8707,-3.8707,-3.8707,-3.8707,-3.8707,-3.8707,-3.8707,-3.8707,-3.8707,-3.8707,-3.8707,-3.8707,-3.8707,-3.8707,-3.8707,-3.8025,-3.7492,-3.7492,-3.6046,-3.5004,-3.5004,-3.427,-3.3807,-3.3807,-3.3807,-3.3807,-3.3807,-3.3807,-3.3721,-3.3536,-3.3075,-3.2632,-3.2196,-3.1732,-3.1372,-3.119,-3.119,-3.119,-3.119,-3.119,-3.119,-2.3671,-2.3919,-2.414,-2.4707,-2.5669,-2.6578,-2.7085,-2.6782,-2.6423,-2.6656,-2.6559,0.0,0.0,0.0,0.0,0.0,0.0,0.0,0.0,0.0,0.0,0.0,0.0,0.0,0.0,0.0,0.0,0.0,0.0,0.0,0.0,0.0,0.0,0.0,0.0,0.0,-3.9608,-3.9013,-3.9409,-4.0815,-4.0004,-3.9623,-3.959,-3.8977,-3.8707,-3.8707,-3.8707,-3.8707,-3.8707,-3.8707,-3.8707,-3.8707,-3.8707,-3.8707,-3.8707,-3.8707,-3.8707,-3.8707,-3.8707,-3.8707,-3.8707,-3.8707,-3.8707,-3.8707,-3.8707,-3.8707,-3.8707,-3.8707,-3.8707,-3.8707,-3.8707,-3.8707,-3.8707,-3.8707,-3.8707,-3.8707,-3.8707,-3.8707,-3.8707,-3.8707,-3.8707,-3.8707,-3.8707,-3.8707,-3.8707,-3.8707,-3.8175,-3.7786,-3.7786,-3.6505,-3.55,-3.5316,-3.4564,-3.4009,-3.3825,-3.3807,-3.3807,-3.3807,-3.3807,-3.3748,-3.3666,-3.3029,-3.2567,-3.235,-3.1677,-3.1291,-3.119,-3.119,-3.119,-3.119,-3.119,-3.119,-2.3783,-2.354,-2.3171,-2.4613,-2.4586,-2.4759,-2.6758,-2.6408,-2.625,-2.8347,-2.8255,0.0,0.0,0.0,0.0,0.0,0.0,0.0,0.0,0.0,0.0,0.0,0.0,0.0,0.0,0.0,0.0,0.0,0.0,0.0,0.0,0.0,0.0,0.0,0.0,0.0,-3.8781,-3.8726,-3.9139,-3.9986,-3.9157,-3.8781,-3.8781,-3.8726,-3.8707,-3.8707,-3.8707,-3.8707,-3.8707,-3.8707,-3.8707,-3.8707,-3.8707,-3.8707,-3.8707,-3.8707,-3.8707,-3.8707,-3.8707,-3.8707,-3.8707,-3.8707,-3.8707,-3.8707,-3.8707,-3.8707,-3.8707,-3.8707,-3.8707,-3.8707,-3.8707,-3.8707,-3.8707,-3.8707,-3.8707,-3.8707,-3.8707,-3.8707,-3.8707,-3.8707,-3.8707,-3.8707,-3.8707,-3.8707,-3.8707,-3.8707,-3.8652,-3.8615,-3.8615,-3.7845,-3.7033,-3.6285,-3.5426,-3.4619,-3.3862,-3.3807,-3.3807,-3.3807,-3.3807,-3.362,-3.3258,-3.3184,-3.2745,-3.1879,-3.1789,-3.1565,-3.119,-3.119,-3.119,-3.119,-3.119,-3.119,-2.2754,-2.2851,-2.2891,-2.344,-2.4137,-2.5139,-2.6863,-2.826,-2.9346,-2.9895,-3.0667,0.0,0.0,0.0,0.0,0.0,0.0,0.0,0.0,0.0,0.0,0.0,0.0,0.0,0.0,0.0,0.0,0.0,0.0,0.0,0.0,0.0,0.0,0.0,0.0,0.0,0.0,-3.8707,-3.8851,-3.9157,-3.8851,-3.8707,-3.8707,-3.8707,-3.8707,-3.8707,-3.8707,-3.8707,-3.8707,-3.8707,-3.8707,-3.8707,-3.8707,-3.8707,-3.8707,-3.8707,-3.8707,-3.8707,-3.8707,-3.8707,-3.8707,-3.8707,-3.8707,-3.8707,-3.8707,-3.8707,-3.8707,-3.8707,-3.8707,-3.8707,-3.8707,-3.8707,-3.8707,-3.8707,-3.8707,-3.8707,-3.8707,-3.8707,-3.8707,-3.8707,-3.8707,-3.8707,-3.8707,-3.8707,-3.8707,-3.8707,-3.8707,-3.8707,-3.8707,-3.7991,-3.7382,-3.7088,-3.5811,-3.4674,-3.3862,-3.3807,-3.3807,-3.3807,-3.3807,-3.3734,-3.3578,-3.3332,-3.3029,-3.2679,-3.2109,-3.1861,-3.2003,-3.1449,-3.1331,-3.1577,-3.1331,-3.1436,-2.1913,-2.2111,-2.2446,-2.3076,-2.4459,-2.5992,-2.7348,-2.9515,-3.1362,-3.1729,-3.2674,-3.3364,-3.3194,0.0,0.0,0.0,0.0,0.0,0.0,0.0,0.0,0.0,0.0,0.0,0.0,0.0,0.0,0.0,0.0,0.0,0.0,0.0,0.0,0.0,0.0,0.0,0.0,-3.8707,-3.8707,-3.8707,-3.8707,-3.8707,-3.8707,-3.8707,-3.8707,-3.8707,-3.8707,-3.8707,-3.8707,-3.8707,-3.8707,-3.8707,-3.8707,-3.8707,-3.8707,-3.8707,-3.8707,-3.8707,-3.8707,-3.8707,-3.8707,-3.8707,-3.8707,-3.8707,-3.8707,-3.8707,-3.8707,-3.8707,-3.8707,-3.8707,-3.8707,-3.8707,-3.8707,-3.8707,-3.8707,-3.8707,-3.8707,-3.8707,-3.8707,-3.8707,-3.8707,-3.8707,-3.8707,-3.8707,-3.8707,-3.8707,-3.8707,-3.8707,-3.8707,-3.8212,-3.7786,-3.7529,-3.6009,-3.4784,-3.4215,-3.3954,-3.3807,-3.3807,-3.3807,-3.3807,-3.3807,-3.3536,-3.3332,-3.3199,-3.2565,-3.2317,-3.2489,-3.1751,-3.1528,-3.1805,-3.163,-3.1822,-2.1514,-2.1392,-2.1699,-2.3862,-2.5603,-2.7085,-2.8179,-2.9787,-3.1684,-3.3954,-3.405,-3.3867,-3.433,0.0,0.0,0.0,0.0,0.0,0.0,0.0,0.0,0.0,0.0,0.0,0.0,0.0,0.0,0.0,0.0,0.0,0.0,0.0,0.0,0.0,0.0,0.0,0.0,-3.8707,-3.8707,-3.8707,-3.8707,-3.8707,-3.8707,-3.8707,-3.8707,-3.8707,-3.8707,-3.8707,-3.8707,-3.8707,-3.8707,-3.8707,-3.8707,-3.8707,-3.8707,-3.8707,-3.8707,-3.8707,-3.8707,-3.8707,-3.8707,-3.8707,-3.8707,-3.8707,-3.8707,-3.8707,-3.8707,-3.8707,-3.8707,-3.8707,-3.8707,-3.8707,-3.8707,-3.8707,-3.8707,-3.8707,-3.8707,-3.8707,-3.8707,-3.8707,-3.8707,-3.8707,-3.8707,-3.8707,-3.8707,-3.8707,-3.8707,-3.8707,-3.8707,-3.8707,-3.8395,-3.7584,-3.6009,-3.5023,-3.5023,-3.427,-3.3825,-3.3825,-3.3825,-3.3807,-3.3807,-3.3807,-3.3606,-3.3214,-3.3199,-3.2981,-3.2512,-3.2022,-3.1804,-3.1825,-3.2159,-3.2315,-2.0798,-2.1008,0.0,-2.368,0.0,0.0,-2.9577,-3.1728,-3.3988,-3.6361,-3.6297,-3.5983,-3.6487,0.0,0.0,0.0,0.0,0.0,0.0,0.0,0.0,0.0,0.0,0.0,0.0,0.0,0.0,0.0,0.0,0.0,0.0,0.0,0.0,0.0,0.0,0.0,0.0,0.0,-3.8707,-3.8707,-3.8707,-3.8707,-3.8707,-3.8707,-3.8707,-3.8707,-3.8707,-3.8707,-3.8707,-3.8707,-3.8707,-3.8707,-3.8707,-3.8707,-3.8707,-3.8707,-3.8707,-3.8707,-3.8707,-3.8707,-3.8707,-3.8707,-3.8707,-3.8707,-3.8707,-3.8707,-3.8707,-3.8707,-3.8707,-3.8707,-3.8707,-3.8707,-3.8707,-3.8707,-3.8707,-3.8707,-3.8707,-3.8707,-3.8707,-3.8707,-3.8707,-3.8707,-3.8707,-3.8707,-3.8707,-3.8707,-3.8707,-3.8707,-3.8707,-3.8707,-3.8395,-3.7584,-3.707,-3.6523,-3.5973,-3.5697,-3.555,-3.555,-3.4968,-3.438,-3.3825,-3.3807,-3.3734,-3.362,-3.3349,-3.3139,-3.3002,-3.2179,-3.2091,-3.2645,-3.2417,-3.2873,-2.0607,-2.1208,0.0,-2.4576,-2.6632,-2.8711,-3.1257,0.0,0.0,0.0,0.0,-3.6892,0.0,0.0,0.0,0.0,0.0,0.0,0.0,0.0,0.0,0.0,0.0,0.0,0.0,0.0,0.0,0.0,0.0,0.0,0.0,0.0,0.0,0.0,0.0,0.0,0.0,0.0,0.0,-3.8707,-3.8707,-3.8707,-3.8707,-3.8707,-3.8707,-3.8707,-3.8707,-3.8707,-3.8707,-3.8707,-3.8707,-3.8707,-3.8707,-3.8707,-3.8707,-3.8707,-3.8707,-3.8707,-3.8707,-3.8707,-3.8707,-3.8707,-3.8707,-3.8707,-3.8707,-3.8707,-3.8707,-3.8707,-3.8707,-3.8707,-3.8707,-3.8707,-3.8707,-3.8707,-3.8707,-3.8707,-3.8707,-3.8707,-3.8707,-3.8707,-3.8707,-3.8707,-3.8707,-3.8707,-3.8707,-3.8707,-3.8707,-3.8707,-3.8707,-3.8707,-3.8505,-3.8028,-3.7694,-3.7309,-3.6831,-3.6468,-3.6303,-3.6303,-3.5807,-3.5293,-3.4821,-3.4151,-3.3807,-3.3807,-3.3407,-3.3201,-3.3195,-3.2254,-3.2207,-3.2989,-3.2827,-3.3359,-2.0667,-2.1635,-2.2946,-2.6085,-2.8243,0.0,-3.3047,-3.4852,-3.6437,-3.8105,0.0,0.0,0.0,0.0,0.0,0.0,0.0,0.0,0.0,0.0,0.0,0.0,0.0,0.0,0.0,0.0,0.0,0.0,0.0,0.0,0.0,0.0,0.0,0.0,0.0,0.0,0.0,0.0,0.0,0.0,-3.8707,-3.8707,-3.8707,-3.8707,-3.8707,-3.8707,-3.8707,-3.8707,-3.8707,-3.8707,-3.8707,-3.8707,-3.8707,-3.8707,-3.8707,-3.8707,-3.8707,-3.8707,-3.8707,-3.8707,-3.8707,-3.8707,-3.8707,-3.8707,-3.8707,-3.8707,-3.8707,-3.8707,-3.8707,-3.8707,-3.8707,-3.8707,-3.8707,-3.8707,-3.8707,-3.8707,-3.8707,-3.8707,-3.8707,-3.8707,-3.8707,-3.8707,-3.8707,-3.8707,-3.8707,-3.8707,-3.8707,-3.8707,-3.8707,-3.8707,-3.8707,-3.8707,-3.8046,-3.7621,-3.7621,-3.6942,-3.6523,-3.6523,-3.645,-3.6405,-3.6407,-3.4876,-3.3985,-3.3912,-3.3523,-3.3254,-3.3131,-3.2309,-3.2296,-3.3029,-3.3374,-3.389,-1.9854,-2.0828,0.0,0.0,-2.9977,-3.2929,-3.3994,-3.4938,-3.5803,0.0,0.0,0.0,0.0,0.0,0.0,0.0,0.0,0.0,0.0,0.0,0.0,0.0,0.0,0.0,0.0,0.0,0.0,0.0,0.0,0.0,0.0,0.0,0.0,0.0,0.0,0.0,-3.8707,-3.8707,-3.8707,0.0,-3.8707,-3.8707,-3.8707,-3.8707,-3.8707,-3.8707,-3.8707,-3.8707,-3.8707,-3.8707,-3.8707,-3.8707,-3.8707,-3.8707,-3.8707,-3.8707,-3.8707,-3.8707,-3.8707,-3.8707,-3.8707,-3.8707,-3.8707,-3.8707,-3.8707,-3.8707,-3.8707,-3.8707,-3.8707,-3.8707,-3.8707,-3.8707,-3.8707,-3.8707,-3.8707,-3.8707,-3.8707,-3.8707,-3.8707,-3.8707,-3.8707,-3.8707,-3.8707,-3.8707,-3.8707,-3.8707,-3.8707,-3.8707,-3.8707,-3.8707,-3.8707,-3.8707,-3.856,-3.8432,-3.8432,-3.8285,-3.8193,-3.8193,-3.7588,-3.7235,-3.7232,-3.6287,-3.5432,-3.476,-3.4352,-3.3654,-3.2654,-3.2712,-3.2944,-3.3337,-3.3967,-3.4645,-1.9631,0.0,0.0,-2.7416,0.0,-3.272,-3.3364,-3.4258,-3.5022,0.0,0.0,0.0,0.0,0.0,0.0,0.0,0.0,0.0,0.0,0.0,0.0,0.0,0.0,0.0,0.0,0.0,0.0,0.0,0.0,0.0,0.0,0.0,0.0,0.0,0.0,0.0,-3.8707,-3.8707,-3.8707,-3.8707,-3.8707,-3.8707,-3.8707,-3.8707,-3.8707,-3.8707,-3.8707,-3.8707,-3.8707,-3.8707,-3.8707,-3.8707,-3.8707,-3.8707,-3.8707,-3.8707,-3.8707,-3.8707,-3.8707,-3.8707,-3.8707,-3.8707,-3.8707,-3.8707,-3.8707,-3.8707,-3.8707,-3.8707,-3.8707,-3.8707,-3.8707,-3.8707,-3.8707,-3.8707,-3.8707,-3.8707,-3.8707,-3.8707,-3.8707,-3.8707,-3.8707,-3.8707,-3.8707,-3.8707,-3.8707,-3.8707,-3.8707,-3.8707,-3.8707,-3.8707,-3.8707,-3.8707,-3.8707,-3.8707,-3.8707,-3.8707,-3.8707,-3.8707,-3.8303,-3.8065,-3.8065,-3.7672,-3.6879,-3.5652,-3.4816,-3.4262,-3.3983,-3.3557,-3.3669,-3.4327,-3.4706,-3.515,-1.9116,0.0,-2.4338,-2.8317,-3.0245,0.0,-3.2229,-3.3295,0.0,0.0,0.0,0.0,0.0,0.0,0.0,0.0,0.0,0.0,0.0,0.0,0.0,0.0,0.0,0.0,0.0,0.0,0.0,0.0,0.0,0.0,0.0,0.0,0.0,0.0,0.0,-3.7616,-3.8279,-3.8294,-3.8294,-3.8294,-3.8438,-3.8582,-3.8707,-3.8707,-3.8707,-3.8707,-3.8707,-3.8707,-3.8707,-3.8707,-3.8707,-3.8707,-3.8707,-3.8707,-3.8707,-3.8707,-3.8707,-3.8707,-3.8707,-3.8707,-3.8707,-3.8707,-3.8707,-3.8707,-3.8707,-3.8707,-3.8707,-3.8707,-3.8707,-3.8707,-3.8707,-3.8707,-3.8707,-3.8707,-3.8707,-3.8707,-3.8707,-3.8707,-3.8707,-3.8707,-3.8707,-3.8707,-3.8707,-3.8707,-3.8707,-3.8707,-3.8707,-3.8707,-3.8707,-3.8707,-3.8707,-3.8707,-3.8707,-3.8707,-3.8707,-3.8707,-3.8707,-3.8707,-3.8707,-3.8707,-3.8707,-3.8707,-3.8071,-3.6743,-3.5463,-3.5081,-3.5597,-3.4588,-3.4552,-3.5419,-3.5555,-3.5713,-1.6987,0.0,-2.4166,0.0,-2.9239,-3.0678,0.0,0.0,0.0,0.0,0.0,0.0,0.0,0.0,0.0,0.0,0.0,0.0,0.0,0.0,0.0,0.0,0.0,0.0,0.0,0.0,0.0,0.0,0.0,0.0,0.0,0.0,-3.6406,-3.6616,-3.6509,0.0,-3.6617,-3.6617,-3.6617,-3.6635,-3.7329,-3.8044,-3.8707,-3.8707,-3.8707,-3.8707,-3.8707,-3.8707,-3.8707,-3.8707,-3.8707,-3.8707,-3.8707,-3.8707,-3.8707,-3.8707,-3.8707,-3.8707,-3.8707,-3.8707,-3.8707,-3.8707,-3.8707,-3.8707,-3.8707,-3.8707,-3.8707,-3.8707,-3.8707,-3.8707,-3.8707,-3.8707,-3.8707,-3.8707,-3.8707,-3.8707,-3.8707,-3.8707,-3.8707,-3.8707,-3.8707,-3.8707,-3.8707,-3.8707,-3.8707,-3.8707,-3.8707,-3.8707,-3.8707,-3.8707,-3.8707,-3.8707,-3.8707,-3.8707,-3.8707,-3.8707,-3.8707,-3.8707,-3.8707,-3.8707,-3.8707,-3.8707,-3.8615,-3.838,-3.7122,-3.6188,-3.5608,-3.5651,-3.5776,-3.5925,-3.6629,-3.6964,-1.8961,-2.1376,-2.3958,0.0,-2.8526,-2.9558,-3.1028,0.0,0.0,0.0,0.0,0.0,0.0,0.0,0.0,0.0,0.0,0.0,0.0,0.0,0.0,0.0,0.0,0.0,0.0,0.0,0.0,0.0,0.0,0.0,0.0,-3.5147,-3.533,-3.6268,-3.5823,0.0,-3.6309,-3.6309,-3.6309,-3.6309,-3.665,-3.7241,-3.8044,-3.8044,-3.8261,-3.8707,-3.8707,-3.8707,-3.8707,-3.8707,-3.8707,-3.8707,-3.8707,-3.8707,-3.8707,-3.8707,-3.8707,-3.8707,-3.8707,-3.8707,-3.8707,-3.8707,-3.8707,-3.8707,-3.8707,-3.8707,-3.8707,-3.8707,-3.8707,-3.8707,-3.8707,-3.8707,-3.8707,-3.8707,-3.8707,-3.8707,-3.8707,-3.8707,-3.8707,-3.8707,-3.8707,-3.8707,-3.8707,-3.8707,-3.8707,-3.8707,-3.8707,-3.8707,-3.8707,-3.8707,-3.8707,-3.8707,-3.8707,-3.8707,-3.8707,-3.8707,-3.8707,-3.8707,-3.8707,-3.8707,-3.8707,-3.8707,-3.8707,-3.8707,-3.7711,-3.7241,-3.7342,-3.7005,-3.6934,-3.7076,-3.7435,-3.7451,0.0,0.0,-2.2957,-2.5985,-2.7272,-2.8212,0.0,0.0,0.0,0.0,0.0,0.0,0.0,0.0,0.0,0.0,0.0,0.0,0.0,0.0,0.0,0.0,0.0,0.0,0.0,0.0,0.0,0.0,0.0,0.0,-3.4654,-3.4123,-3.437,-3.5628,-3.5026,-3.5008,-3.566,-3.566,-3.5771,-3.5982,-3.5966,-3.6391,-3.7209,-3.7195,-3.7509,-3.8099,-3.8511,-3.8582,-3.8404,-3.8618,-3.8707,-3.8707,-3.8707,-3.8707,-3.8707,-3.8707,-3.8707,-3.8707,-3.8707,-3.8707,-3.8707,-3.8707,-3.8707,-3.8707,-3.8707,-3.8707,-3.8707,-3.8707,-3.8707,-3.8707,-3.8707,-3.8707,-3.8707,-3.8707,-3.8707,-3.8707,-3.8707,-3.8707,-3.8707,-3.8707,-3.8707,-3.8707,-3.8707,-3.8707,-3.8707,-3.8707,-3.8707,-3.8707,-3.8707,-3.8707,-3.8707,-3.8707,-3.8707,-3.8707,-3.8707,-3.8707,-3.8707,-3.8707,-3.8707,-3.8707,-3.8707,-3.8707,-3.8707,-3.8707,-3.8102,-3.8102,-3.8707,-3.8102,-3.7911,-3.8099,-3.8099,-3.7929,0.0,-1.9647,0.0,-2.3161,-2.4987,0.0,0.0,0.0,0.0,0.0,0.0,0.0,0.0,0.0,0.0,0.0,0.0,0.0,0.0,0.0,0.0,0.0,0.0,0.0,0.0,0.0,0.0,0.0,0.0,0.0,-3.3857,-3.3825,-3.3844,-3.393,-3.3894,-3.3875,-3.393,-3.393,-3.4301,-3.5076,-3.5068,-3.5514,-3.6352,-3.6351,-3.6385,-3.651,-3.8044,-3.8261,-3.7616,-3.8386,-3.8707,-3.8707,-3.8707,-3.8707,-3.8707,-3.8707,-3.8707,-3.8707,-3.8707,-3.8707,-3.8707,-3.8707,-3.8707,-3.8707,-3.8707,-3.8707,-3.8707,-3.8707,-3.8707,-3.8707,-3.8707,-3.8707,-3.8707,-3.8707,-3.8707,-3.8707,-3.8707,-3.8707,-3.8707,-3.8707,-3.8707,-3.8707,-3.8707,-3.8707,-3.8707,-3.8707,-3.8707,-3.8707,-3.8707,-3.8707,-3.8707,-3.8707,-3.8707,-3.8707,-3.8707,-3.8707,-3.8707,-3.8707,-3.8707,-3.8707,-3.8707,-3.8707,-3.8707,-3.8707,-3.867,-3.867,-3.8707,-3.867,-3.8637,-3.8658,-3.8658,-3.8643,0.0,0.0,0.0,-2.1907,-2.327,0.0,0.0,0.0,0.0,0.0,0.0,0.0,0.0,0.0,0.0,0.0,0.0,0.0,0.0,0.0,0.0,0.0,0.0,0.0,0.0,0.0,0.0,0.0,0.0,0.0,-3.3807,-3.3807,-3.3807,-3.3807,-3.3807,-3.3807,-3.3807,-3.3807,-3.393,-3.4228,-3.4228,-3.4778,-3.5789,-3.5781,-3.5887,-3.6084,-3.7206,-3.7404,-3.7043,-3.7668,-3.8044,-3.8224,-3.8582,-3.8707,-3.8707,-3.8707,-3.8814,-3.8958,-3.8958,-3.9102,-3.9283,-3.9283,-3.9283,-3.9283,-3.9283,-3.9283,-3.9283,-3.9283,-3.9121,-3.8958,-3.8958,-3.8833,-3.8707,-3.8707,-3.8707,-3.8707,-3.8707,-3.8707,-3.8707,-3.8707,-3.8707,-3.8707,-3.8707,-3.8707,-3.8707,-3.8707,-3.8707,-3.8707,-3.8707,-3.8707,-3.8707,-3.8707,-3.8707,-3.8707,-3.8707,-3.8707,-3.8707,-3.8707,-3.8707,-3.8707,-3.8707,-3.8707,-3.8707,-3.8707,-3.8707,-3.8707,-3.8707,-3.8707,-3.8707,-3.8707,-3.8707,-3.8707,-1.6029,0.0,0.0,0.0,0.0,0.0,0.0,0.0,0.0,0.0,0.0,0.0,0.0,0.0,0.0,0.0,0.0,0.0,0.0,0.0,0.0,0.0,0.0,0.0,0.0,0.0,0.0,0.0,0.0,0.0,-3.3016,-3.3245,-3.34,-3.34,-3.3665,-3.3807,-3.3807,-3.3894,-3.393,-3.393,-3.4054,-3.4494,-3.5232,-3.5228,-3.5327,-3.5537,-3.6058,-3.6348,-3.6494,-3.7113,-3.747,-3.7686,-3.8331,-3.8582,-3.86,-3.8888,-3.9121,-3.9267,-3.9275,-3.9413,-3.9607,-3.9607,-3.9607,-3.9607,-3.9607,-3.9607,-3.9576,-3.9464,-3.9269,-3.9091,-3.8988,-3.8833,-3.8707,-3.8707,-3.8707,-3.8707,-3.8707,-3.8707,-3.8707,-3.8707,-3.8707,-3.8707,-3.8707,-3.8707,-3.8707,-3.8707,-3.8707,-3.8707,-3.8707,-3.8707,-3.8707,-3.8707,-3.8707,-3.8707,-3.8707,-3.8707,-3.8707,-3.8707,-3.8707,-3.8707,-3.8707,-3.8707,-3.8707,-3.8707,-3.8707,-3.8707,-3.8707,-3.8707,-3.8707,-3.8707,-3.8707,-3.8707,0.0,0.0,0.0,0.0,0.0,0.0,0.0,0.0,0.0,0.0,0.0,0.0,0.0,0.0,0.0,0.0,0.0,0.0,0.0,0.0,0.0,0.0,0.0,0.0,0.0,0.0,0.0,0.0,0.0,-3.2223,-3.1447,-3.2137,-3.2574,-3.256,-3.3331,-3.3752,-3.377,-3.4036,-3.4186,-3.4207,-3.4542,-3.4703,-3.4705,-3.4713,-3.4723,-3.4723,-3.4723,-3.5173,-3.596,-3.674,-3.7077,-3.7171,-3.7958,-3.8282,-3.8407,-3.9252,-3.9592,-3.96,-3.9605,-3.9619,-3.9619,-3.9619,-3.9619,-3.9619,-3.9619,-3.9619,-3.9562,-3.9227,-3.9127,-3.9059,-3.8762,-3.8707,-3.8707,-3.8707,-3.8707,-3.8707,-3.8707,-3.8707,-3.8707,-3.8707,-3.8707,-3.8707,-3.8707,-3.8707,-3.8707,-3.8707,-3.8707,-3.8707,-3.8707,-3.8707,-3.8707,-3.8707,-3.8707,-3.8707,-3.8707,-3.8707,-3.8707,-3.8707,-3.8707,-3.8707,-3.8707,-3.8707,-3.8707,-3.8707,-3.8707,-3.8707,-3.8707,-3.8707,-3.8707,-3.8707,-3.8707,-3.8692,-1.5453,0.0,0.0,0.0,0.0,0.0,0.0,0.0,0.0,0.0,0.0,0.0,0.0,0.0,0.0,0.0,0.0,0.0,0.0,0.0,0.0,0.0,0.0,0.0,0.0,0.0,0.0,0.0,0.0,-3.1629,-3.1405,-3.1623,-3.1734,-3.1737,-3.1951,-3.2351,-3.293,-3.3208,-3.3626,-3.42,-3.4541,-3.4805,-3.4994,-3.499,-3.5102,-3.5282,-3.5282,-3.5404,-3.5647,-3.6051,-3.6354,-3.6577,-3.7195,-3.7785,-3.8327,-3.8565,-3.9203,-3.9967,-3.9959,-4.0096,-4.0258,-4.0258,-4.0258,-4.0258,-4.0258,-4.0258,-4.02,-3.9904,-3.9644,-3.9346,-3.8829,-3.8707,-3.8707,-3.8707,-3.8707,-3.8707,-3.8707,-3.8707,-3.8707,-3.8707,-3.8707,-3.8707,-3.8707,-3.8707,-3.8707,-3.8707,-3.8707,-3.8707,-3.8707,-3.8707,-3.8707,-3.8707,-3.8707,-3.8707,-3.8707,-3.8707,-3.8707,-3.8707,-3.8707,-3.8707,-3.8707,-3.8707,-3.8707,-3.8707,-3.8707,-3.8707,-3.8707,-3.8707,-3.8707,-3.8707,-3.8707,-3.8481,-1.6064,-1.6519,-1.7286,0.0,0.0,0.0,0.0,0.0,0.0,0.0,0.0,0.0,0.0,0.0,0.0,0.0,0.0,0.0,0.0,0.0,0.0,0.0,0.0,0.0,0.0,0.0,0.0,0.0,-3.0699,-3.0887,-3.0899,-3.1016,-3.1077,-3.1076,-3.1475,-3.1929,-3.2384,-3.3023,-3.3583,-3.403,-3.4704,-3.5121,-3.5262,-3.5262,-3.5339,-3.55,-3.55,-3.55,-3.5519,-3.568,-3.5834,-3.6033,-3.6689,-3.7214,-3.7716,-3.8451,-3.9169,-3.98,-4.0162,-4.0373,-4.0496,-4.0496,-4.0496,-4.0496,-4.0496,-4.0496,-4.0439,-4.0181,-3.9853,-3.9516,-3.9157,-3.8977,-3.8869,-3.8869,-3.8781,-3.8707,-3.8707,-3.8707,-3.8707,-3.8707,-3.8707,-3.8707,-3.8707,-3.8707,-3.8707,-3.8707,-3.8707,-3.8707,-3.8707,-3.8707,-3.8707,-3.8707,-3.8707,-3.8707,-3.8707,-3.8707,-3.8707,-3.8707,-3.8707,-3.8707,-3.8707,-3.8707,-3.8707,-3.8707,-3.8707,-3.8707,-3.8707,-3.8707,-3.8707,-3.8707,-3.8707,-3.853,-1.7187,-1.7692,-1.8511,-1.9139,0.0,0.0,-1.9641,-1.9614,0.0,0.0,0.0,0.0,0.0,0.0,0.0,0.0,0.0,0.0,0.0,0.0,0.0,0.0,0.0,0.0,0.0,0.0,0.0,-2.9005,-2.9692,-3.0107,-3.0107,-3.0351,-3.0494,-3.0505,-3.1373,-3.1882,-3.1968,-3.2988,-3.3631,-3.3812,-3.4864,-3.5404,-3.55,-3.55,-3.55,-3.55,-3.55,-3.55,-3.55,-3.55,-3.55,-3.5577,-3.629,-3.6612,-3.6901,-3.8442,-3.9073,-3.9265,-4.0096,-4.0373,-4.0373,-4.0477,-4.0496,-4.0496,-4.0496,-4.0496,-4.0439,-4.0181,-3.9848,-3.9604,-3.9604,-3.9371,-3.9165,-3.9166,-3.894,-3.8744,-3.8781,-3.8744,-3.8707,-3.8744,-3.8726,-3.8707,-3.8707,-3.8707,-3.8707,-3.8707,-3.8707,-3.8707,-3.8707,-3.8707,-3.8707,-3.8707,-3.8707,-3.8707,-3.8707,-3.8707,-3.8707,-3.8707,-3.8707,-3.8707,-3.8707,-3.8707,-3.8707,-3.8707,-3.8707,-3.8707,-3.8707,-3.8707,-3.8707,-3.8707,-3.8707,-3.8658,-1.9778,-1.9881,-1.9914,-1.9413,0.0,0.0,0.0,-1.7969,0.0,0.0,0.0,0.0,0.0,0.0,0.0,0.0,0.0,0.0,0.0,0.0,0.0,0.0,0.0,0.0,0.0,0.0,-2.9005,-2.9005,-2.9352,-2.9559,-2.9559,-2.9747,-2.9871,-2.9889,-3.0063,-3.0486,-3.1125,-3.1575,-3.246,-3.3812,-3.4248,-3.4826,-3.55,-3.55,-3.55,-3.55,-3.55,-3.55,-3.55,-3.55,-3.55,-3.5519,-3.568,-3.6136,-3.6747,-3.7086,-3.7647,-3.837,-3.9246,-3.9523,-3.9646,-4.0296,-4.0496,-4.0496,-4.0496,-4.0496,-4.0439,-4.0181,-3.9859,-3.9594,-3.9594,-3.9556,-3.9494,-3.9489,-3.9265,-3.9102,-3.9372,-3.9032,-3.8762,-3.8977,-3.8851,-3.8707,-3.8707,-3.8707,-3.8707,-3.8707,-3.8707,-3.8707,-3.8707,-3.8707,-3.8707,-3.8707,-3.8707,-3.8707,-3.8707,-3.8707,-3.8707,-3.8707,-3.8707,-3.8707,-3.8707,-3.8707,-3.8707,-3.8707,-3.8707,-3.8707,-3.8707,-3.8707,-3.8707,-3.8707,-3.8707,-3.8465,-2.1212,-2.1148,-2.1048,-2.0649,0.0,0.0,0.0,0.0,0.0,0.0,0.0,0.0,0.0,0.0,0.0,0.0,0.0,0.0,0.0,0.0,0.0,0.0,0.0,0.0,0.0,0.0,-2.7999,-2.8507,-2.8684,-2.8981,-2.9519,-2.9742,-2.9847,-2.9855,-2.9988,-3.0244,-3.0641,-3.1216,-3.1922,-3.2763,-3.33,-3.3773,-3.4229,-3.4646,-3.4845,-3.4883,-3.5301,-3.55,-3.55,-3.55,-3.55,-3.55,-3.55,-3.5757,-3.6155,-3.6554,-3.6976,-3.7531,-3.8837,-3.9304,-3.9427,-4.0239,-4.0496,-4.0496,-4.0496,-4.0496,-4.0477,-4.0335,-4.0181,-4.0058,-4.0058,-3.9942,-3.9849,-3.9851,-3.9599,-3.9401,-3.9571,-3.9219,-3.8939,-3.9073,-3.8888,-3.8707,-3.8707,-3.8707,-3.8707,-3.8707,-3.8707,-3.8707,-3.8707,-3.8707,-3.8707,-3.8707,-3.8707,-3.8707,-3.8707,-3.8707,-3.8707,-3.8707,-3.8707,-3.8707,-3.8707,-3.8707,-3.8707,-3.8707,-3.8707,-3.8707,-3.8707,-3.8707,-3.8707,-3.8707,-3.8707,-3.8562,0.0,0.0,0.0,0.0,0.0,-2.0016,0.0,0.0,0.0,-1.9473,0.0,0.0,0.0,0.0,0.0,0.0,0.0,0.0,0.0,0.0,0.0,0.0,0.0,0.0,0.0,0.0,-2.6815,-2.7798,-2.78,-2.8194,-2.9224,-2.9631,-2.9829,-2.9829,-3.0206,-3.0404,-3.0404,-3.1095,-3.1536,-3.1709,-3.2359,-3.2749,-3.2909,-3.3627,-3.4031,-3.4248,-3.4941,-3.5339,-3.55,-3.55,-3.55,-3.55,-3.55,-3.55,-3.5577,-3.6232,-3.647,-3.6689,-3.8252,-3.8806,-3.8931,-3.9742,-4.0019,-4.0019,-4.0019,-4.0142,-4.0277,-4.0277,-4.0373,-4.0496,-4.0496,-4.0335,-4.0181,-4.0181,-3.9923,-3.9705,-3.9756,-3.9467,-3.9232,-3.9271,-3.9013,-3.8762,-3.8707,-3.8707,-3.8707,-3.8707,-3.8707,-3.8707,-3.8707,-3.8707,-3.8707,-3.8707,-3.8707,-3.8707,-3.8707,-3.8707,-3.8707,-3.8707,-3.8707,-3.8707,-3.8707,-3.8707,-3.8707,-3.8707,-3.8707,-3.8707,-3.8707,-3.8707,-3.8707,-3.8707,-3.8707,-3.8707,0.0,0.0,0.0,0.0,-2.2189,0.0,0.0,0.0,-1.8697,-1.7553,0.0,0.0,0.0,0.0,0.0,0.0,0.0,0.0,0.0,0.0,0.0,0.0,0.0,0.0,0.0,0.0,0.0,-2.6978,-2.6703,-2.688,-2.7717,-2.8673,-2.919,-2.919,-2.9988,-3.0404,-3.0404,-3.05,-3.0941,-3.169,-3.18,-3.221,-3.2902,-3.3004,-3.3468,-3.4209,-3.4306,-3.4787,-3.55,-3.55,-3.55,-3.55,-3.55,-3.55,-3.5519,-3.5596,-3.5641,-3.5776,-3.6689,-3.7005,-3.7141,-3.7997,-3.8274,-3.8274,-3.8274,-3.8827,-3.9446,-3.9446,-3.9942,-4.0496,-4.0496,-4.0477,-4.0458,-4.0458,-4.0239,-4.0111,-4.0347,-3.9948,-3.9632,-3.9935,-3.9479,-3.8977,-3.8744,-3.8707,-3.8707,-3.8707,-3.8707,-3.8707,-3.8707,-3.8707,-3.8707,-3.8707,-3.8707,-3.8707,-3.8707,-3.8707,-3.8707,-3.8707,-3.8707,-3.8707,-3.8707,-3.8707,-3.8707,-3.8707,-3.8707,-3.8707,-3.8707,-3.8707,-3.8707,-3.8707,-3.8707,-3.8707,0.0,0.0,0.0,0.0,0.0,0.0,0.0,0.0,-1.868,0.0,0.0,0.0,0.0,0.0,0.0,0.0,0.0,0.0,0.0,0.0,0.0,0.0,0.0,0.0,0.0,0.0,0.0,0.0,0.0,-2.5477,-2.6907,-2.7876,-2.8621,-2.9094,-2.9452,-2.9886,-3.0404,-3.0404,-3.0583,-3.096,-3.096,-3.1114,-3.1472,-3.1971,-3.2402,-3.2776,-3.3242,-3.3934,-3.4749,-3.4749,-3.5044,-3.55,-3.55,-3.55,-3.55,-3.55,-3.55,-3.5622,-3.6412,-3.6706,-3.6851,-3.7719,-3.8003,-3.8003,-3.8003,-3.8614,-3.9295,-3.93,-3.9877,-4.0496,-4.0496,-4.0496,-4.0496,-4.0496,-4.0419,-4.0354,-4.0477,-4.0181,-3.9934,-4.0062,-3.9727,-3.9298,-3.8999,-3.8799,-3.8707,-3.8707,-3.8707,-3.8707,-3.8707,-3.8707,-3.8707,-3.8707,-3.8707,-3.8707,-3.8707,-3.8707,-3.8707,-3.8707,-3.8707,-3.8707,-3.8707,-3.8707,-3.8707,-3.8707,-3.8707,-3.8707,-3.8707,-3.8707,-3.8707,-3.8707,-3.8707,-3.8707,-2.3922,0.0,0.0,0.0,0.0,0.0,0.0,0.0,0.0,0.0,0.0,0.0,0.0,0.0,0.0,0.0,0.0,0.0,0.0,0.0,0.0,0.0,0.0,0.0,0.0,0.0,0.0,0.0,0.0,0.0,-2.5803,-2.6713,-2.7551,-2.8387,-2.885,-2.9388,-3.0046,-3.0283,-3.0404,-3.0404,-3.0404,-3.0404,-3.0423,-3.1056,-3.1472,-3.1728,-3.2321,-3.3064,-3.3852,-3.4101,-3.4569,-3.5166,-3.5404,-3.55,-3.55,-3.55,-3.55,-3.5577,-3.6175,-3.6374,-3.647,-3.7107,-3.7306,-3.7306,-3.7306,-3.7917,-3.8592,-3.86,-3.9189,-3.9858,-4.0115,-4.0181,-4.0239,-4.0458,-4.0496,-4.0496,-4.0496,-4.0354,-4.0219,-4.0219,-3.9942,-3.963,-3.9283,-3.9005,-3.8781,-3.8707,-3.8707,-3.8707,-3.8707,-3.8707,-3.8707,-3.8707,-3.8707,-3.8707,-3.8707,-3.8707,-3.8707,-3.8707,-3.8707,-3.8707,-3.8707,-3.8707,-3.8707,-3.8707,-3.8707,-3.8707,-3.8707,-3.8707,-3.8597,-3.8377,-3.8597,-3.8707,0.0,0.0,0.0,-2.1193,0.0,0.0,0.0,0.0,-2.044,0.0,0.0,0.0,0.0,0.0,0.0,-1.8359,0.0,0.0,0.0,0.0,0.0,0.0,0.0,0.0,0.0,0.0,0.0,0.0,0.0,0.0,-2.4044,-2.4947,-2.5779,-2.6651,-2.8253,-2.9113,-2.9133,-2.9988,-3.0404,-3.0404,-3.0404,-3.0404,-3.0404,-3.0423,-3.0897,-3.169,-3.1728,-3.2202,-3.3004,-3.3859,-3.4229,-3.4332,-3.5166,-3.55,-3.55,-3.55,-3.55,-3.55,-3.5538,-3.5538,-3.5538,-3.5577,-3.5577,-3.5577,-3.5577,-3.6136,-3.679,-3.6773,-3.7417,-3.8274,-3.9123,-3.9342,-3.9523,-4.0315,-4.0496,-4.0496,-4.0496,-4.0496,-4.0496,-4.0496,-4.0277,-3.9973,-3.9645,-3.9306,-3.8995,-3.8744,-3.8707,-3.8707,-3.8707,-3.8707,-3.8707,-3.8707,-3.8707,-3.8707,-3.8707,-3.8707,-3.8707,-3.8707,-3.8707,-3.8707,-3.8707,-3.8707,-3.8707,-3.8707,-3.8707,-3.8707,-3.8707,-3.8707,-3.8303,-3.7566,-3.834,-3.8707,0.0,0.0,-2.3871,-2.2492,0.0,0.0,0.0,0.0,0.0,0.0,0.0,0.0,0.0,0.0,-2.0146,-1.9077,-1.8045,0.0,0.0,0.0,0.0,0.0,0.0,0.0,0.0,0.0,0.0,0.0,0.0,0.0,0.0,-2.4553,-2.5447,-2.5721,-2.7411,-2.8549,-2.9094,-2.9969,-3.0404,-3.0404,-3.0404,-3.0404,-3.0404,-3.0404,-3.0564,-3.0839,-3.0839,-3.1312,-3.2164,-3.2999,-3.368,-3.4286,-3.5159,-3.55,-3.55,-3.55,-3.55,-3.55,-3.55,-3.55,-3.55,-3.55,-3.55,-3.55,-3.55,-3.6052,-3.6701,-3.6692,-3.7334,-3.8068,-3.8363,-3.8442,-3.8512,-3.8789,-3.8846,-3.9008,-3.9581,-3.9704,-3.9858,-4.04,-4.0439,-4.02,-3.9685,-3.9512,-3.9265,-3.8762,-3.8707,-3.8707,-3.8707,-3.8707,-3.8707,-3.8707,-3.8707,-3.8707,-3.8707,-3.8707,-3.8707,-3.8707,-3.8707,-3.8707,-3.8707,-3.8707,-3.8707,-3.8707,-3.8707,-3.8707,-3.8707,-3.8172,-3.7764,-3.7489,-3.7235,-3.711,-2.3858,-2.3979,0.0,0.0,-2.241,0.0,-2.0754,0.0,0.0,0.0,0.0,0.0,0.0,0.0,0.0,-1.9616,-1.8315,0.0,0.0,0.0,0.0,0.0,0.0,0.0,0.0,0.0,-1.9067,-2.0933,-2.0493,0.0,0.0,0.0,-2.5009,-2.5288,-2.6694,-2.7834,-2.8679,-2.9509,-3.0084,-3.0404,-3.0404,-3.0404,-3.0404,-3.0404,-3.0404,-3.0404,-3.0404,-3.0717,-3.1293,-3.2125,-3.2801,-3.3433,-3.4588,-3.5044,-3.5082,-3.5378,-3.55,-3.55,-3.55,-3.55,-3.55,-3.55,-3.55,-3.55,-3.55,-3.586,-3.6271,-3.6271,-3.6689,-3.7184,-3.746,-3.7534,-3.7632,-3.7928,-3.8243,-3.8623,-3.9176,-3.9527,-3.9877,-4.04,-4.0496,-4.0354,-3.9858,-3.9674,-3.9409,-3.8781,-3.8707,-3.8707,-3.8707,-3.8707,-3.8707,-3.8707,-3.8707,-3.8707,-3.8707,-3.8707,-3.8707,-3.8707,-3.8707,-3.8707,-3.8707,-3.8707,-3.8707,-3.8707,-3.8707,-3.8707,-3.8707,-3.7893,-3.7353,-3.704,-3.6225,-3.5679]},{"header":{"parameterUnit":"m.s-1","parameterCategory":1,"la1":30.6,"la2":29.2853,"lo1":-89.7004,"lo2":-87.6739,"dy":0.0162,"dx":0.0183,"nx":112,"ny":82,"refTime":"2026-04-16T12:00:00:Z","depth":0,"parameterNumber":3,"parameterNumberName":"V-component_of_WINDS"},"data":[0.0,0.0,0.0,0.0,0.0,0.0,0.0,0.0,0.0,0.0,0.0,0.0,0.0,0.0,0.0,0.0,0.0,0.0,0.0,0.0,0.0,0.0,0.0,0.0,0.0,0.0,0.0,0.0,0.0,0.0,0.0,0.0,0.0,0.0,0.0,0.0,0.0,0.0,0.0,0.0,0.0,0.0,0.0,0.0,0.0,0.0,0.0,0.0,0.0,0.0,0.0,0.0,0.0,0.0,0.0,0.0,0.0,0.0,0.0,0.0,0.0,0.0,0.0,0.0,0.0,0.0,0.0,0.0,0.0,0.0,0.0,0.0,0.0,0.0,0.0,0.0,0.0,0.0,0.0,0.0,0.0,0.0,0.0,0.0,0.0,0.0,0.0,0.0,0.0,0.0,0.0,-1.5584,-1.8696,-2.0498,-2.0234,-1.8859,-1.7249,-1.5518,0.0,0.0,0.0,0.0,0.0,0.0,0.0,0.0,0.0,0.0,0.0,0.0,0.0,0.0,0.0,0.0,0.0,0.0,0.0,0.0,0.0,0.0,0.0,0.0,0.0,0.0,0.0,0.0,0.0,0.0,0.0,0.0,0.0,0.0,0.0,0.0,0.0,0.0,0.0,0.0,0.0,0.0,0.0,0.0,0.0,0.0,0.0,0.0,0.0,0.0,0.0,0.0,0.0,0.0,0.0,0.0,0.0,0.0,0.0,0.0,0.0,0.0,0.0,0.0,0.0,0.0,0.0,0.0,0.0,0.0,0.0,0.0,0.0,0.0,0.0,0.0,0.0,0.0,0.0,0.0,0.0,0.0,0.0,0.0,0.0,0.0,0.0,0.0,0.0,0.0,0.0,0.0,0.0,0.0,0.0,0.0,0.0,0.0,0.0,0.0,0.0,0.0,0.0,0.0,-1.411,-1.7259,-1.9399,-1.9998,-1.8512,-1.8164,-1.727,-1.5508,0.0,0.0,0.0,0.0,0.0,0.0,0.0,0.0,0.0,0.0,0.0,0.0,0.0,0.0,0.0,0.0,0.0,0.0,0.0,0.0,0.0,0.0,0.0,0.0,0.0,0.0,0.0,0.0,0.0,0.0,0.0,0.0,0.0,0.0,0.0,0.0,0.0,0.0,0.0,0.0,0.0,0.0,0.0,0.0,0.0,0.0,0.0,0.0,0.0,0.0,0.0,0.0,0.0,0.0,0.0,0.0,0.0,0.0,0.0,0.0,0.0,0.0,0.0,0.0,0.0,0.0,0.0,0.0,0.0,0.0,0.0,0.0,0.0,0.0,0.0,0.0,0.0,0.0,0.0,0.0,0.0,0.0,0.0,0.0,0.0,0.0,0.0,0.0,0.0,0.0,0.0,0.0,0.0,0.0,0.0,0.0,0.0,0.0,0.0,0.0,0.0,0.0,0.0,-1.5551,-1.6632,-1.9147,-2.0106,-1.9884,-1.8161,-1.8,-1.7252,-1.5517,-1.3823,0.0,0.0,0.0,0.0,0.0,0.0,0.0,0.0,0.0,0.0,0.0,0.0,0.0,0.0,0.0,0.0,0.0,0.0,0.0,0.0,0.0,0.0,0.0,0.0,0.0,0.0,0.0,0.0,0.0,0.0,0.0,0.0,0.0,0.0,0.0,0.0,0.0,0.0,0.0,0.0,0.0,0.0,0.0,0.0,0.0,0.0,0.0,0.0,0.0,0.0,0.0,0.0,0.0,0.0,0.0,0.0,0.0,0.0,0.0,0.0,0.0,0.0,0.0,0.0,0.0,0.0,0.0,0.0,0.0,0.0,0.0,0.0,0.0,0.0,0.0,0.0,0.0,0.0,0.0,0.0,0.0,0.0,0.0,0.0,0.0,0.0,0.0,0.0,0.0,0.0,0.0,0.0,0.0,0.0,0.0,0.0,0.0,0.0,0.0,0.0,0.0,0.0,-1.6681,-1.8522,-1.983,-1.9972,-1.9465,-1.811,-1.8001,-1.7246,-1.5508,-1.3827,0.0,0.0,0.0,0.0,0.0,0.0,0.0,0.0,0.0,0.0,0.0,0.0,0.0,0.0,0.0,0.0,0.0,0.0,0.0,0.0,0.0,0.0,0.0,0.0,0.0,0.0,0.0,0.0,0.0,0.0,0.0,0.0,0.0,0.0,0.0,0.0,0.0,0.0,0.0,0.0,0.0,0.0,0.0,0.0,0.0,0.0,0.0,0.0,0.0,0.0,0.0,0.0,0.0,0.0,0.0,0.0,0.0,0.0,0.0,0.0,0.0,0.0,0.0,0.0,0.0,0.0,0.0,0.0,0.0,0.0,0.0,0.0,0.0,0.0,0.0,0.0,0.0,0.0,0.0,0.0,0.0,0.0,0.0,0.0,0.0,0.0,0.0,0.0,0.0,0.0,0.0,0.0,0.0,0.0,0.0,0.0,0.0,0.0,0.0,0.0,0.0,0.0,-1.5956,-1.8048,-1.8177,-1.819,-1.8145,-1.7995,-1.7997,-1.7263,-1.5517,-1.3838,0.0,0.0,0.0,0.0,0.0,0.0,0.0,0.0,0.0,0.0,0.0,0.0,0.0,0.0,0.0,0.0,0.0,0.0,0.0,0.0,0.0,0.0,0.0,0.0,0.0,0.0,0.0,0.0,0.0,0.0,0.0,0.0,0.0,0.0,0.0,0.0,0.0,0.0,0.0,0.0,0.0,0.0,0.0,0.0,0.0,0.0,0.0,0.0,0.0,0.0,0.0,0.0,0.0,0.0,0.0,0.0,0.0,0.0,0.0,0.0,0.0,0.0,0.0,0.0,0.0,0.0,0.0,0.0,0.0,0.0,0.0,0.0,0.0,0.0,0.0,0.0,0.0,0.0,0.0,0.0,0.0,0.0,0.0,0.0,0.0,0.0,0.0,0.0,0.0,0.0,0.0,0.0,0.0,0.0,0.0,0.0,0.0,0.0,0.0,0.0,0.0,0.0,-1.6541,-1.799,0.0,-1.8012,-1.8003,-1.8012,-1.7997,-1.6803,-1.4025,0.0,0.0,0.0,0.0,0.0,0.0,0.0,0.0,0.0,0.0,0.0,0.0,0.0,0.0,0.0,0.0,0.0,0.0,0.0,0.0,0.0,0.0,0.0,0.0,0.0,0.0,0.0,0.0,0.0,0.0,0.0,0.0,0.0,0.0,0.0,0.0,0.0,0.0,0.0,0.0,0.0,0.0,0.0,0.0,0.0,0.0,0.0,0.0,0.0,0.0,0.0,0.0,0.0,0.0,0.0,0.0,0.0,0.0,0.0,0.0,0.0,0.0,0.0,0.0,0.0,0.0,0.0,0.0,0.0,0.0,0.0,0.0,0.0,0.0,0.0,0.0,0.0,0.0,0.0,0.0,0.0,0.0,0.0,0.0,0.0,0.0,0.0,0.0,0.0,0.0,0.0,0.0,0.0,0.0,0.0,0.0,0.0,0.0,0.0,0.0,0.0,0.0,-1.497,-1.6929,-1.8008,0.0,-1.8008,-1.8016,-1.7988,-1.7492,-1.5945,-1.3085,0.0,0.0,0.0,0.0,0.0,0.0,0.0,0.0,0.0,0.0,0.0,0.0,0.0,0.0,0.0,0.0,0.0,0.0,0.0,0.0,0.0,0.0,0.0,0.0,0.0,0.0,0.0,0.0,0.0,0.0,0.0,0.0,0.0,0.0,0.0,0.0,0.0,0.0,0.0,0.0,0.0,0.0,0.0,0.0,0.0,0.0,0.0,0.0,0.0,0.0,0.0,0.0,0.0,0.0,0.0,0.0,0.0,0.0,0.0,0.0,0.0,0.0,0.0,0.0,0.0,0.0,0.0,0.0,0.0,0.0,0.0,0.0,0.0,0.0,0.0,0.0,0.0,0.0,0.0,0.0,0.0,0.0,0.0,0.0,0.0,0.0,0.0,0.0,0.0,0.0,0.0,0.0,0.0,0.0,0.0,0.0,0.0,0.0,0.0,0.0,0.0,0.0,-1.4948,-1.6913,-1.7987,-1.8007,-1.8008,-1.8016,-1.7988,-1.6414,-1.4668,0.0,0.0,0.0,0.0,0.0,0.0,0.0,0.0,0.0,0.0,0.0,0.0,0.0,0.0,0.0,0.0,0.0,0.0,0.0,0.0,0.0,0.0,0.0,0.0,0.0,0.0,0.0,0.0,0.0,0.0,0.0,0.0,0.0,0.0,0.0,0.0,0.0,0.0,0.0,0.0,0.0,0.0,0.0,0.0,0.0,0.0,0.0,0.0,0.0,0.0,0.0,0.0,0.0,0.0,0.0,0.0,0.0,0.0,0.0,0.0,0.0,0.0,0.0,0.0,0.0,0.0,0.0,0.0,0.0,0.0,0.0,0.0,0.0,0.0,0.0,0.0,0.0,0.0,0.0,0.0,0.0,0.0,0.0,0.0,0.0,0.0,0.0,0.0,0.0,0.0,0.0,0.0,0.0,0.0,0.0,0.0,0.0,0.0,0.0,0.0,0.0,0.0,0.0,-1.4944,-1.6913,-1.7987,-1.8007,-1.8008,-1.7994,-1.799,-1.6407,-1.4682,-1.301,0.0,0.0,0.0,0.0,0.0,0.0,0.0,0.0,0.0,0.0,0.0,0.0,0.0,0.0,0.0,0.0,0.0,0.0,0.0,0.0,0.0,0.0,0.0,0.0,0.0,0.0,0.0,0.0,0.0,0.0,0.0,0.0,0.0,0.0,0.0,0.0,0.0,0.0,0.0,0.0,0.0,0.0,0.0,0.0,0.0,0.0,0.0,0.0,0.0,0.0,0.0,0.0,0.0,0.0,0.0,0.0,0.0,0.0,0.0,0.0,0.0,0.0,0.0,0.0,0.0,0.0,0.0,0.0,0.0,0.0,0.0,0.0,0.0,0.0,0.0,0.0,0.0,0.0,0.0,0.0,0.0,0.0,0.0,0.0,0.0,0.0,0.0,0.0,0.0,0.0,0.0,0.0,0.0,0.0,0.0,0.0,0.0,0.0,0.0,0.0,0.0,0.0,-1.496,-1.6913,-1.7987,-1.8007,-1.8008,-1.7988,-1.7985,-1.6407,-1.4687,-1.3013,0.0,0.0,0.0,0.0,0.0,0.0,0.0,0.0,0.0,0.0,0.0,0.0,0.0,0.0,0.0,0.0,0.0,0.0,0.0,0.0,0.0,0.0,0.0,0.0,0.0,0.0,0.0,0.0,0.0,0.0,0.0,0.0,0.0,0.0,0.0,0.0,0.0,0.0,0.0,0.0,0.0,0.0,0.0,0.0,0.0,0.0,0.0,0.0,0.0,0.0,0.0,0.0,0.0,0.0,0.0,0.0,0.0,0.0,0.0,0.0,0.0,0.0,0.0,0.0,0.0,0.0,0.0,0.0,0.0,0.0,0.0,0.0,0.0,0.0,0.0,0.0,0.0,0.0,0.0,0.0,0.0,0.0,0.0,0.0,0.0,0.0,0.0,0.0,0.0,0.0,0.0,0.0,0.0,0.0,0.0,0.0,0.0,0.0,0.0,0.0,0.0,0.0,-1.4971,-1.6922,-1.8009,-1.8002,-1.8003,-1.7992,-1.8017,-1.6407,-1.4669,-1.3003,0.0,0.0,0.0,0.0,0.0,0.0,0.0,0.0,0.0,0.0,0.0,0.0,0.0,0.0,0.0,0.0,0.0,0.0,0.0,0.0,0.0,0.0,0.0,0.0,0.0,0.0,0.0,0.0,0.0,0.0,0.0,0.0,0.0,0.0,0.0,0.0,0.0,0.0,0.0,0.0,0.0,0.0,0.0,0.0,0.0,0.0,0.0,0.0,0.0,0.0,0.0,0.0,0.0,0.0,0.0,0.0,0.0,0.0,0.0,0.0,-1.3608,0.0,0.0,0.0,0.0,0.0,0.0,0.0,0.0,0.0,0.0,0.0,0.0,0.0,0.0,0.0,0.0,0.0,0.0,0.0,0.0,0.0,0.0,0.0,0.0,0.0,0.0,0.0,0.0,0.0,0.0,0.0,0.0,0.0,0.0,0.0,0.0,0.0,0.0,0.0,0.0,0.0,-1.4968,-1.6923,-1.7981,-1.7995,-1.8002,-1.8006,-1.7996,-1.6407,-1.4683,-1.302,0.0,0.0,0.0,0.0,0.0,0.0,0.0,0.0,0.0,0.0,0.0,0.0,0.0,0.0,0.0,0.0,0.0,0.0,0.0,0.0,0.0,0.0,0.0,0.0,0.0,0.0,0.0,0.0,0.0,0.0,0.0,0.0,0.0,0.0,0.0,0.0,0.0,0.0,0.0,0.0,0.0,0.0,0.0,0.0,0.0,0.0,0.0,0.0,0.0,0.0,0.0,0.0,0.0,0.0,0.0,0.0,0.0,0.0,0.0,0.0,0.0,-1.4803,0.0,0.0,0.0,0.0,0.0,0.0,0.0,0.0,0.0,0.0,0.0,0.0,0.0,0.0,0.0,0.0,0.0,0.0,0.0,0.0,0.0,0.0,0.0,0.0,0.0,0.0,0.0,0.0,0.0,0.0,0.0,0.0,0.0,0.0,0.0,0.0,0.0,0.0,0.0,0.0,-1.496,-1.6177,-1.7071,-1.7908,-1.8001,-1.7678,-1.6802,-1.592,-1.5025,-1.4143,-1.2497,0.0,0.0,0.0,0.0,0.0,0.0,0.0,0.0,0.0,0.0,0.0,0.0,0.0,0.0,0.0,0.0,0.0,0.0,0.0,0.0,0.0,0.0,0.0,0.0,0.0,0.0,0.0,0.0,0.0,0.0,0.0,0.0,0.0,0.0,0.0,0.0,0.0,0.0,0.0,0.0,0.0,0.0,0.0,0.0,0.0,0.0,0.0,0.0,0.0,0.0,0.0,0.0,0.0,0.0,-1.9416,-1.9736,-1.8994,-1.8929,-1.9382,-1.855,-1.7758,-1.6964,0.0,0.0,0.0,0.0,0.0,0.0,0.0,0.0,0.0,0.0,0.0,0.0,0.0,0.0,0.0,0.0,0.0,0.0,0.0,0.0,0.0,0.0,0.0,0.0,0.0,-1.5855,-1.5475,0.0,0.0,0.0,0.0,0.0,0.0,0.0,0.0,0.0,0.0,0.0,0.0,-1.4995,-1.5683,-1.6417,-1.7847,-1.7718,-1.6971,-1.5512,-1.5389,-1.5397,-1.5403,-1.3831,-1.2105,0.0,0.0,0.0,0.0,0.0,0.0,0.0,0.0,0.0,0.0,0.0,0.0,0.0,0.0,0.0,0.0,0.0,0.0,0.0,0.0,0.0,0.0,0.0,0.0,0.0,0.0,0.0,0.0,0.0,0.0,0.0,0.0,-1.1588,-1.2383,0.0,0.0,0.0,0.0,0.0,0.0,0.0,0.0,0.0,0.0,0.0,0.0,0.0,0.0,-1.9023,-2.0166,-2.0323,-1.9563,-2.1084,-2.1724,-2.1543,-2.1432,-2.1443,-2.1501,-2.1342,0.0,-1.9925,-1.8288,0.0,0.0,0.0,0.0,0.0,0.0,0.0,0.0,0.0,0.0,0.0,0.0,0.0,0.0,0.0,0.0,0.0,0.0,0.0,0.0,0.0,0.0,-1.5508,-1.7235,-1.7659,-1.7596,0.0,-1.4804,-1.2929,-1.4147,0.0,0.0,0.0,0.0,0.0,0.0,0.0,0.0,-1.5151,-1.6725,-1.7747,-1.7985,-1.6636,-1.5649,-1.5425,-1.5389,-1.5412,-1.5388,-1.3828,-1.2112,-1.0363,-1.0291,0.0,0.0,0.0,0.0,0.0,0.0,0.0,0.0,0.0,0.0,0.0,0.0,0.0,0.0,0.0,0.0,0.0,0.0,0.0,0.0,0.0,0.0,0.0,0.0,0.0,0.0,0.0,0.0,0.0,-1.1457,-1.2729,-1.379,-1.3615,-1.3206,0.0,0.0,0.0,0.0,0.0,0.0,0.0,0.0,0.0,-1.9738,-1.958,-2.0098,-2.1435,-2.1694,-2.1943,-2.2117,-2.2555,-2.2672,-2.2555,-2.2592,-2.2582,-2.2576,-2.2578,-2.2379,-2.1964,-2.1178,-1.9267,-1.6616,0.0,0.0,0.0,0.0,0.0,-1.4204,-1.57,-1.5911,0.0,0.0,0.0,0.0,0.0,0.0,0.0,0.0,0.0,0.0,0.0,0.0,0.0,-1.7816,-1.8002,-1.7985,-1.7991,-1.6836,-1.5696,0.0,-1.3441,-1.1759,-1.1752,0.0,0.0,0.0,0.0,0.0,-1.5173,-1.6068,-1.6556,-1.6538,-1.5848,-1.54,-1.5398,-1.541,-1.5393,-1.5407,-1.3821,-1.2569,-1.1789,-1.1753,-1.1292,0.0,0.0,0.0,0.0,0.0,0.0,0.0,0.0,0.0,0.0,0.0,0.0,0.0,0.0,0.0,0.0,0.0,0.0,0.0,0.0,0.0,0.0,0.0,0.0,0.0,0.0,0.0,0.0,-1.2965,-1.4221,-1.5313,-1.5581,-1.5275,0.0,0.0,0.0,0.0,0.0,0.0,-1.9036,-1.9309,-2.0118,-2.1629,-2.1403,-2.1938,-2.3339,-2.3005,-2.314,-2.3752,-2.3324,-2.3324,-2.3788,-2.3786,-2.3522,-2.31,-2.3086,-2.3119,-2.3096,-2.3102,-2.161,-1.9231,-1.8592,-1.5664,-1.1806,-1.1829,-1.5006,-1.95,-2.0772,-2.0409,-1.924,-1.8788,0.0,-1.5449,-1.7424,0.0,0.0,0.0,0.0,-1.7039,-1.8344,0.0,-1.8651,-1.8685,-1.8673,-1.8546,-1.8085,-1.8017,-1.7616,0.0,-1.4703,-1.3552,-1.3539,0.0,0.0,0.0,0.0,-1.3992,-1.525,-1.5787,-1.59,-1.5464,-1.54,-1.5407,-1.54,-1.541,-1.5393,-1.5407,-1.3838,-1.2893,-1.2903,-1.2902,-1.2078,-1.0337,0.0,0.0,0.0,0.0,0.0,0.0,0.0,0.0,0.0,0.0,0.0,0.0,0.0,0.0,0.0,0.0,0.0,0.0,0.0,0.0,0.0,0.0,0.0,0.0,0.0,0.0,0.0,0.0,0.0,-1.7197,-1.834,0.0,0.0,0.0,0.0,-1.7803,-1.8672,-1.9541,-2.0458,-2.126,-2.2129,-2.2974,-2.3065,-2.3326,-2.3927,-2.4178,-2.39,-2.3148,-2.3093,-2.3984,-2.5553,-2.5578,-2.4694,-2.3111,-2.3101,-2.3106,-2.3115,-2.311,-2.2991,-2.2839,-2.282,-2.1637,-2.0014,-2.0014,-2.1223,-2.2851,-2.2916,-2.2903,-2.2583,-2.0974,-1.9273,-1.7842,-1.7951,-1.7783,0.0,0.0,-1.8993,-2.0375,-2.0435,-2.0462,-2.0457,-2.0477,-2.0477,-2.001,-1.8376,-1.8002,-1.7969,0.0,-1.6457,-1.5261,-1.5267,0.0,-1.2913,-1.2895,-1.4259,-1.5313,-1.54,-1.6857,-1.7256,-1.5563,-1.5388,-1.54,-1.541,-1.541,-1.5393,-1.5407,-1.384,-1.2907,-1.2905,-1.2903,-1.2088,-1.0332,-1.0306,0.0,0.0,0.0,0.0,0.0,0.0,0.0,0.0,0.0,0.0,0.0,0.0,0.0,0.0,0.0,0.0,0.0,0.0,0.0,0.0,0.0,0.0,0.0,0.0,0.0,0.0,0.0,0.0,-1.8555,-1.9539,0.0,0.0,-1.8994,-1.9355,-1.9639,-2.0713,-2.1738,-2.2598,-2.3023,-2.3551,-2.4234,-2.4072,-2.404,-2.4266,-2.3786,-2.3985,-2.4765,-2.4765,-2.5091,-2.5706,-2.5714,-2.5337,-2.4758,-2.4785,-2.4766,-2.4689,-2.358,-2.3109,-2.3097,-2.3111,-2.2714,-2.2203,-2.2203,-2.2589,-2.3089,-2.3096,-2.3108,-2.2998,-2.2412,-2.1064,-1.9684,-1.9686,-1.9657,-1.9676,-1.9679,-2.0133,-2.0616,-2.0609,-2.0601,-2.0605,-2.0605,-2.0597,-2.0451,-1.9802,-1.8768,-1.7993,-1.7988,-1.7497,-1.7053,-1.7087,-1.5645,-1.4506,-1.4512,-1.5008,-1.5795,-1.6941,-1.7616,-1.7328,-1.5601,-1.5414,-1.541,-1.541,-1.5397,-1.5399,-1.5386,-1.3815,-1.289,-1.2906,-1.2887,-1.2092,-1.0342,-1.0306,-0.9984,0.0,0.0,0.0,0.0,0.0,0.0,0.0,0.0,0.0,0.0,0.0,0.0,0.0,0.0,0.0,0.0,0.0,0.0,0.0,0.0,0.0,0.0,0.0,0.0,0.0,0.0,-1.9192,-1.9668,-2.0732,-2.1103,-2.0244,-2.081,-2.1338,-2.1672,-2.2588,-2.3344,-2.3845,-2.4152,-2.4454,-2.4725,-2.4808,-2.4819,-2.4842,-2.4278,-2.4554,-2.5693,-2.5693,-2.5693,-2.5684,-2.569,-2.5678,-2.5716,-2.5697,-2.5715,-2.5611,-2.4447,-2.3638,-2.3095,-2.3079,-2.308,-2.308,-2.308,-2.308,-2.311,-2.311,-2.3103,-2.3118,-2.3102,-2.2368,-2.1452,-2.1451,-2.1036,-2.0605,-2.0613,-2.0584,-2.0604,-2.0615,-2.0605,-2.0605,-2.0605,-2.0603,-2.0605,-2.0609,-1.9697,-1.8891,-1.8895,-1.8414,-1.8012,-1.8019,-1.7048,-1.6282,-1.6268,-1.6284,-1.6677,-1.7835,-1.7994,-1.7324,-1.5599,-1.5394,-1.541,-1.5391,-1.5402,-1.5162,-1.46,-1.351,-1.2903,-1.2898,-1.2336,-1.1487,-1.0312,-1.0302,-1.0021,-0.9408,0.0,0.0,0.0,0.0,0.0,0.0,0.0,0.0,0.0,0.0,0.0,0.0,0.0,0.0,0.0,0.0,0.0,0.0,0.0,0.0,0.0,0.0,0.0,-1.7065,-1.8751,-2.0146,-2.0635,-2.2129,-2.2799,-2.2041,-2.3086,-2.3809,-2.3809,-2.4199,-2.4312,-2.4013,-2.4598,-2.4773,-2.4449,-2.5257,-2.5693,-2.5693,-2.5693,-2.5693,-2.5693,-2.5693,-2.5693,-2.5693,-2.5693,-2.5693,-2.5693,-2.5693,-2.5691,-2.571,-2.57,-2.4692,-2.3175,-2.3105,-2.3101,-2.3091,-2.3091,-2.3091,-2.3091,-2.3028,-2.304,-2.309,-2.3103,-2.2994,-2.2896,-2.3058,-2.1974,-2.0673,-2.0688,-2.0623,-2.0608,-2.0596,-2.0615,-2.0605,-2.0605,-2.0605,-2.0594,-2.0594,-2.0599,-2.0595,-2.0584,-1.9188,-1.7989,-1.7989,-1.8011,-1.7999,-1.8005,-1.8005,0.0,-1.8011,-1.7991,-1.7334,-1.5664,-1.543,-1.5393,-1.541,-1.5392,-1.4692,-1.3021,-1.2898,-1.2899,-1.2898,-1.1228,-1.0339,-1.0377,-1.0387,-0.9549,-0.7857,0.0,0.0,0.0,0.0,0.0,0.0,0.0,0.0,0.0,0.0,0.0,0.0,0.0,0.0,0.0,0.0,0.0,0.0,0.0,0.0,0.0,0.0,-1.8675,-1.8675,-2.0207,-2.1611,-2.2344,-2.3135,-2.3643,-2.3711,-2.4043,-2.4248,-2.4248,-2.4573,-2.475,-2.4636,-2.5188,-2.5431,-2.5363,-2.5557,-2.5693,-2.5693,-2.5721,-2.5721,-2.5693,-2.5672,-2.5721,-2.5693,-2.5693,-2.5693,-2.5693,-2.5693,-2.5684,-2.5721,-2.5704,-2.5428,-2.487,-2.3596,-2.3119,-2.3091,-2.3091,-2.3091,-2.2935,-2.1716,-2.2097,-2.3103,-2.3077,-2.0692,-1.8489,-2.2024,-2.2797,-2.2421,-2.2386,-2.1535,-2.0585,-2.0609,-2.0595,-2.0605,-2.0605,-2.0605,-2.0615,-2.0604,-2.0594,-2.0587,-2.0601,-1.9203,-1.7996,-1.7988,-1.8016,-1.7986,-1.7998,0.0,0.0,-1.8016,-1.8006,-1.7816,-1.7349,-1.6135,-1.539,-1.5391,-1.5416,-1.4673,0.0,-1.2897,-1.2896,-1.2901,-1.1234,-1.0901,-1.2152,-1.2194,-1.1948,0.0,0.0,0.0,0.0,0.0,0.0,0.0,0.0,0.0,0.0,0.0,0.0,0.0,0.0,0.0,0.0,0.0,0.0,0.0,0.0,0.0,0.0,-1.898,-2.0439,-2.0615,-2.1514,-2.2461,-2.331,-2.346,-2.3783,-2.4563,-2.4499,-2.453,-2.4904,-2.5138,-2.5226,-2.5226,-2.5538,-2.5703,-2.5682,-2.5692,-2.571,-2.5687,-2.5679,-2.6048,-2.6754,-2.6062,-2.57,-2.5693,-2.5693,-2.5693,0.0,-2.5693,-2.5693,-2.5723,-2.571,-2.5687,0.0,0.0,0.0,0.0,0.0,-2.31,-2.2967,-2.1983,-2.1834,-2.2026,-2.2045,-2.061,-1.9396,-2.2256,-2.31,-2.3096,-2.3116,-2.2396,-2.1475,-2.0761,-2.0593,-2.0605,-2.0605,-2.0605,-2.0605,-2.0605,-2.0605,-2.0602,-2.0598,0.0,0.0,-1.8012,-1.8008,-1.8008,-1.8008,-1.8008,-1.8008,0.0,-1.7985,-1.7708,-1.6995,-1.5996,-1.5385,-1.54,-1.5401,0.0,0.0,0.0,-1.2912,-1.2892,-1.1927,0.0,0.0,0.0,0.0,0.0,0.0,0.0,0.0,-0.8786,-0.879,0.0,0.0,0.0,0.0,0.0,0.0,0.0,0.0,0.0,0.0,0.0,0.0,0.0,0.0,0.0,0.0,-2.0513,-2.21,-2.2519,-2.2574,-2.2896,-2.376,-2.3538,-2.3756,-2.4868,-2.4697,-2.4861,-2.5654,-2.5693,-2.5693,-2.5693,0.0,0.0,0.0,0.0,-2.5975,-2.5999,-2.5973,-2.6785,-2.8284,-2.6505,-2.5689,-2.5693,-2.5693,-2.5693,-2.5693,-2.5693,-2.5693,-2.5693,-2.5693,-2.5599,-2.5247,-2.3712,-2.3079,-2.3091,-2.3091,-2.3089,0.0,0.0,0.0,0.0,-2.0582,-2.1711,-2.307,-2.2863,-2.2959,-2.3076,-2.3076,-2.3098,-2.2716,-2.1028,-2.0593,-2.0605,-2.0605,-2.0605,-2.0605,-2.0605,-2.0605,-2.0602,-2.0598,-1.9185,-1.8011,-1.8012,-1.8008,-1.8008,-1.8008,-1.8008,0.0,-1.8008,-1.8012,-1.7412,-1.5866,0.0,0.0,-1.54,-1.5402,-1.4769,-1.3284,-1.2989,-1.2887,-1.2891,-1.2892,-1.2909,-1.2895,-1.1387,-1.0578,-1.0588,-1.0588,-1.0592,-1.0598,-1.0597,-1.0595,0.0,0.0,0.0,0.0,0.0,0.0,0.0,0.0,0.0,0.0,0.0,0.0,0.0,0.0,0.0,-2.0322,-2.1637,-2.2539,-2.2916,-2.2978,-2.331,-2.4173,-2.4421,-2.4829,-2.5499,-2.5489,-2.5518,-2.5684,-2.5693,-2.5693,-2.5693,-2.5693,0.0,-2.5683,-2.7072,-2.7783,-2.7793,-2.7807,-2.7971,-2.8284,0.0,0.0,-2.5693,-2.5693,-2.5693,-2.5693,-2.5693,-2.5693,-2.5693,-2.5693,-2.4851,-2.3555,-2.322,-2.3106,-2.3091,-2.3091,-2.3096,-2.3095,-2.3097,-2.201,-2.0596,-2.0583,-2.1717,-2.2849,-2.1489,-2.2016,0.0,-2.3122,-2.3094,-2.2716,-2.105,-2.0593,-2.0605,-2.0605,-2.0605,-2.0605,-2.0605,-2.0605,-2.0602,-2.0598,-1.9185,-1.8011,-1.8012,-1.8008,-1.8008,-1.8008,-1.8008,-1.8008,-1.8008,-1.7984,-1.7878,-1.7525,-1.6243,-1.5409,-1.5391,-1.5402,-1.5265,-1.4931,-1.3657,-1.2887,-1.2891,-1.2895,-1.2911,-1.2899,-1.2576,-1.2414,-1.2399,-1.2399,-1.24,-1.2397,-1.241,-1.2404,0.0,0.0,0.0,0.0,0.0,0.0,0.0,0.0,0.0,0.0,0.0,-1.5999,-1.7346,0.0,-2.0215,-2.1617,-2.237,-2.2857,-2.3062,-2.3343,-2.3706,-2.4132,-2.4059,-2.4431,-2.5577,-2.5693,-2.5693,-2.5693,-2.5693,-2.5693,-2.5693,-2.5693,-2.5693,-2.5714,-2.6532,-2.7439,-2.8304,-2.8311,-2.8309,-2.8279,-2.6512,-2.5707,-2.5693,-2.5693,-2.5693,-2.5693,-2.5693,-2.5693,-2.5713,-2.5716,-2.4691,-2.3119,-2.3079,-2.3091,-2.3091,-2.3091,-2.3091,-2.3096,-2.3117,-2.2567,-2.1712,-2.085,-2.1165,-2.171,-2.0863,-2.1183,-2.1833,-2.1826,-2.1845,-2.1669,-2.0822,-2.0593,-2.0596,-2.0595,-2.0615,-2.0596,-2.0595,-2.0605,-2.0612,-2.0588,-1.9182,-1.7995,-1.7983,-1.8012,-1.8008,-1.8008,-1.8008,-1.8008,-1.8008,-1.8006,-1.7985,-1.8017,-1.6451,-1.5402,-1.54,-1.5402,-1.5391,-1.5391,-1.461,-1.3766,-1.2921,-1.2903,-1.2899,-1.2905,-1.2892,-1.2889,-1.2894,-1.2894,-1.2889,-1.2905,-1.2897,-1.2893,0.0,0.0,0.0,0.0,0.0,0.0,0.0,0.0,-1.4229,-1.607,-1.7258,-1.8255,-1.9276,-2.0541,-2.1697,-2.251,-2.2877,-2.3091,-2.3091,-2.3516,-2.3851,-2.383,-2.3692,-2.4174,-2.5567,-2.5693,-2.5693,-2.5693,-2.5693,-2.5693,-2.5693,-2.5693,-2.5672,-2.5689,-2.6044,-2.6882,-2.8272,-2.8288,-2.8294,-2.8269,-2.6553,-2.57,-2.5693,-2.5693,-2.5693,-2.5693,-2.5693,-2.5693,-2.5684,-2.5678,-2.4667,-2.3119,-2.3079,-2.3091,-2.3091,-2.3091,-2.3091,-2.3105,-2.31,-2.309,-2.2835,-2.1132,-2.0581,-2.0605,-2.0616,-2.0588,-2.0596,-2.0611,-2.0616,-2.0616,-2.0616,-2.0603,-2.0615,-2.0611,-1.994,-1.9567,-2.0426,-2.0615,-2.0585,-2.0601,-1.9477,-1.8389,-1.8071,-1.8016,-1.8008,-1.8008,-1.8008,-1.8008,-1.8008,-1.7983,-1.7995,-1.7995,-1.6454,-1.5401,-1.54,-1.5405,-1.5397,-1.5397,-1.5399,-1.4774,-1.3447,-1.3385,-1.3227,-1.292,-1.2903,-1.2893,-1.2893,-1.2893,-1.2903,-1.292,-1.3227,-1.3211,-1.1111,-1.1181,-1.2367,-1.4155,-1.4214,-1.4896,0.0,0.0,-1.823,-2.0138,-2.0983,-2.1413,-2.1559,-2.2009,-2.2519,-2.2945,-2.3062,-2.3091,-2.3091,-2.3162,-2.3204,-2.3197,-2.4504,-2.5494,-2.5693,-2.5693,-2.5693,-2.5693,-2.5693,-2.5693,-2.5693,-2.5693,-2.5723,-2.5693,-2.7192,-2.8125,-2.8298,-2.8289,-2.8299,-2.8285,-2.6525,-2.5689,-2.5693,-2.5693,-2.5693,-2.5693,-2.5693,-2.5693,-2.5684,-2.5678,-2.4667,-2.3119,-2.3079,-2.3091,-2.3091,-2.3091,-2.3091,-2.3091,-2.3096,-2.3113,-2.2816,-2.1138,-2.0604,-2.0613,-2.0595,-2.0615,-2.0596,-2.0586,-2.0604,-2.0611,-2.0611,-2.0591,-2.062,-2.06,-1.7627,-1.5873,-1.975,-2.0615,-2.0585,-2.0601,-2.0427,-1.9825,-1.826,-1.8016,-1.8008,-1.8008,-1.8008,-1.8008,-1.8008,-1.7998,-1.8009,-1.7996,-1.6449,-1.5411,-1.541,-1.541,-1.539,-1.539,-1.5399,-1.531,-1.5121,-1.5111,-1.4427,-1.293,-1.2893,-1.2892,-1.2892,-1.2892,-1.2893,-1.293,-1.4437,-1.4324,-1.3519,-1.3802,-1.4479,0.0,-1.6732,-1.7568,-1.967,-1.9645,-1.968,-2.1583,-2.2129,-2.2324,-2.2568,-2.2754,-2.2886,0.0,-2.3091,-2.3091,-2.3091,-2.3076,-2.3098,-2.3102,-2.3741,-2.459,-2.56,-2.5727,-2.571,-2.5723,-2.5693,-2.5693,-2.5693,-2.5693,-2.5674,-2.572,-2.6418,-2.6783,-2.6818,-2.6793,-2.6807,-2.6784,-2.605,-2.57,-2.5693,-2.5693,-2.5693,-2.5693,-2.5693,-2.5693,-2.5684,-2.5678,-2.4667,-2.3119,-2.3079,-2.3091,-2.3091,-2.3091,-2.3091,-2.3091,-2.3091,-2.3116,-2.2393,-1.8171,-1.8521,-2.0589,-2.0584,-2.0596,-2.0605,-2.0605,-2.0615,-2.0021,-1.746,-1.6837,-1.7446,-1.9993,-1.7266,-1.5276,-1.9648,-2.0593,-2.0605,-2.0605,-2.0601,-2.0055,-1.8285,-1.8016,-1.7992,-1.7992,-1.8007,-1.8008,-1.8008,-1.7992,-1.7619,-1.6599,-1.5823,-1.5409,-1.5391,-1.541,-1.541,-1.541,-1.5399,-1.5416,-1.5416,-1.5416,-1.5072,-1.4373,-1.4341,-1.436,-1.436,-1.436,-1.4341,-1.4373,-1.5072,-1.5024,-1.4733,-1.5501,0.0,-1.7578,-1.8868,-1.9832,-2.0186,-2.0417,-2.0963,-2.2349,-2.2685,-2.274,-2.3042,-2.3091,-2.3091,-2.3091,-2.3091,-2.3091,-2.3091,-2.3091,-2.3076,-2.3083,-2.3076,-2.3592,-2.4871,-2.5429,-2.5704,-2.5721,-2.5684,-2.5693,-2.5693,-2.5693,-2.5693,-2.5679,-2.5689,-2.5695,-2.5673,-2.5673,-2.5719,-2.5689,-2.5689,-2.5721,-2.5693,-2.5693,-2.5693,-2.5693,-2.5693,-2.5693,-2.5684,-2.5678,-2.4667,-2.3119,-2.3079,-2.3091,-2.3091,-2.3091,-2.3091,-2.3091,-2.3091,-2.3104,-2.238,-1.7984,-1.7606,-1.903,-2.0224,-2.0595,-2.0605,-2.0605,-2.0615,-1.958,-1.5245,-1.4119,-1.4902,-1.8062,-1.6385,-1.5293,-1.9656,-2.0589,-2.0615,-2.0609,-1.9647,-1.829,-1.6683,-1.6439,-1.642,-1.6439,-1.642,-1.6824,-1.786,-1.7993,-1.7323,-1.5607,-1.5393,-1.541,-1.541,-1.541,-1.541,-1.541,-1.541,-1.541,-1.541,-1.5396,-1.5409,-1.5409,-1.5401,-1.5389,-1.5389,-1.5389,-1.5401,-1.5409,-1.5409,-1.5396,-1.3908,0.0,-1.6856,-1.8861,-2.0256,-2.1354,-2.2223,-2.2418,-2.2545,-2.2984,-2.3081,-2.3081,-2.3091,-2.3091,-2.3091,-2.3091,-2.3091,-2.3091,-2.3091,-2.3091,-2.3076,-2.3083,-2.3076,-2.3119,0.0,-2.4691,-2.57,-2.571,-2.5691,-2.5693,-2.5693,-2.5693,-2.5693,-2.5703,-2.5703,-2.5703,-2.5723,-2.5723,-2.5713,-2.5703,-2.5703,-2.5693,-2.5693,-2.5693,-2.5693,-2.5693,-2.5693,-2.5693,-2.5684,-2.5678,-2.4667,-2.3119,-2.3079,-2.3091,-2.3091,-2.3091,-2.3091,-2.3091,-2.3091,-2.3091,-2.3057,-2.2883,-1.8979,-1.5108,-1.9312,-2.0595,-2.0605,-2.0605,-2.0615,-1.9617,-1.5249,-1.4089,-1.4138,-1.4273,-1.4213,-1.5283,-1.9656,-2.0607,-2.0609,-2.0597,-1.7173,-1.3928,-1.2674,-1.2476,-1.2483,-1.2479,-1.2466,-1.3818,-1.7534,-1.801,-1.7324,-1.5581,-1.5399,-1.541,-1.541,-1.541,-1.541,-1.541,-1.541,-1.541,-1.541,-1.54,-1.54,-1.54,-1.541,-1.541,-1.541,-1.541,-1.541,-1.54,-1.54,-1.54,-1.6682,0.0,-1.8882,-2.093,-2.1755,-2.2194,-2.276,-2.2886,-2.2925,-2.3062,-2.2877,-2.2682,-2.2682,-2.2619,-2.2682,-2.3028,-2.3085,-2.3091,-2.3091,-2.31,-2.3095,-2.3111,-2.4137,0.0,0.0,0.0,0.0,-2.5603,-2.5704,-2.569,-2.5674,-2.5693,-2.5693,-2.5693,-2.5693,-2.5693,-2.5693,-2.5693,-2.5693,-2.5693,-2.5693,-2.5693,-2.5693,-2.5693,-2.5693,-2.5693,-2.5693,-2.5693,-2.5684,-2.5678,-2.4667,-2.3119,-2.3079,-2.3091,-2.3091,-2.3091,-2.311,-2.3084,-2.3106,-2.3095,-2.2571,-1.9316,-1.6362,-1.4916,-1.9295,-2.0604,-2.0598,-2.0603,-2.0585,-2.0276,-1.8804,-1.6249,-1.4122,-1.4104,-1.4082,-1.529,-1.9646,-1.8336,-1.6274,-1.6291,-1.5098,-1.3982,-1.3544,-1.2824,-1.2309,-1.2307,-1.2291,-1.2763,-1.4049,-1.6419,-1.7321,-1.5579,-1.5411,-1.5415,-1.5389,-1.5409,-1.539,-1.5391,-1.541,-1.541,-1.541,-1.541,-1.541,-1.541,-1.541,-1.541,-1.541,-1.541,-1.541,-1.541,-1.541,-1.541,-1.8732,-1.9765,-2.0434,-2.2268,-2.2691,-2.2769,-2.3033,-2.2984,-2.2828,-2.2682,-2.2311,-2.2012,-2.1846,-2.1928,-2.22,-2.298,-2.3093,-2.3093,-2.3086,-2.3123,-2.3316,-2.3975,-2.4997,0.0,0.0,0.0,0.0,-2.4682,-2.5376,-2.569,-2.5674,-2.5693,-2.5693,-2.5693,-2.5693,-2.5693,-2.5693,-2.5693,-2.5693,-2.5693,-2.5693,-2.5693,-2.5693,-2.5693,-2.5693,-2.5693,-2.5693,-2.5693,-2.5684,-2.5678,-2.4667,-2.3119,-2.3079,-2.3106,-2.3105,-2.3086,-2.3108,-2.3102,-2.3084,-2.3086,-2.2297,-1.737,-1.5039,-1.4638,-1.7438,-1.9352,-2.0267,-1.8736,-1.8273,-1.8283,-1.8269,-1.6202,-1.4092,-1.411,-1.408,-1.4856,-1.768,-1.609,-1.4104,-1.4103,-1.4118,-1.4089,-1.4118,-1.3086,-1.2304,-1.2288,-1.2297,-1.2305,-1.2293,-1.4425,-1.5388,-1.3859,-1.3673,-1.3677,-1.3666,-1.4747,-1.5388,-1.539,-1.5391,-1.541,-1.541,-1.541,-1.541,-1.541,-1.541,-1.541,-1.541,-1.541,-1.541,-1.541,-1.541,-1.541,-2.0,-2.0848,-2.1503,-2.2795,-2.311,-2.3091,-2.3062,-2.2783,-2.2353,-2.1904,-2.1455,-2.0996,-2.0615,0.0,-2.1668,-2.2798,-2.3042,-2.311,-2.3086,-2.3167,-2.3816,0.0,0.0,0.0,0.0,0.0,0.0,-2.3121,0.0,-2.5703,-2.5693,-2.5693,-2.5693,-2.5693,-2.5693,-2.5693,-2.5693,-2.5693,-2.5693,-2.5693,-2.5693,-2.5693,-2.5693,-2.5693,-2.5693,-2.5693,-2.5693,-2.5693,-2.5684,-2.5678,-2.4667,-2.3119,-2.3098,-2.309,-2.307,-2.2824,-2.2732,-2.2729,-2.2721,-2.272,-2.1974,-1.7319,-1.5051,-1.4182,-1.413,-1.6982,-1.9399,-1.5283,-1.4116,-1.411,-1.4097,-1.409,-1.4096,-1.409,-1.4087,-1.4096,-1.4097,-1.4087,-1.4103,-1.4097,-1.4062,-1.4047,-1.3994,-1.3051,-1.2305,-1.2305,-1.2305,-1.2295,-1.2319,-1.2302,-1.1875,-1.0797,-1.0626,-1.0595,-1.0608,-1.3404,-1.5219,-1.5407,-1.539,-1.541,-1.541,-1.541,-1.541,-1.541,-1.541,-1.541,-1.541,-1.541,-1.541,-1.541,-1.541,-1.541,-2.1864,-2.2481,-2.2761,-2.3471,-2.3379,-2.3013,-2.2701,-2.2344,-2.1826,-2.1104,-2.0303,-1.9804,-1.9905,0.0,0.0,-2.1061,-2.2276,0.0,-2.3099,-2.4215,0.0,-2.3843,0.0,-2.4088,-2.4959,-2.5026,0.0,0.0,-2.4691,-2.569,-2.5713,-2.5693,-2.5693,-2.5693,-2.5693,-2.5693,-2.5693,-2.5693,-2.5693,-2.5693,-2.5693,-2.5693,-2.5693,-2.5693,-2.5693,-2.5693,-2.5693,-2.5693,-2.5684,-2.5678,-2.4667,-2.3092,-2.3092,-2.3082,-2.2662,-1.9032,-1.7644,-1.7641,-1.7673,-1.7641,-1.7463,-1.6211,-1.5597,-1.5205,-1.4362,-1.4867,-1.5543,-1.4427,-1.4117,-1.41,-1.4092,-1.4105,-1.4119,-1.4117,-1.4097,-1.4119,-1.4117,-1.4097,-1.4119,-1.4117,-1.3734,-1.3293,-1.2837,-1.2495,-1.2305,-1.2305,-1.2305,-1.2291,-1.2295,-1.2283,-1.2207,-1.1894,-1.1102,-1.0618,-1.0609,-1.1365,-1.2846,-1.5259,-1.539,-1.541,-1.541,-1.541,-1.541,-1.541,-1.541,-1.541,-1.541,-1.541,-1.541,-1.541,-1.541,-1.541,-2.2809,-2.3237,-2.3437,-2.3486,-2.3276,-2.2886,-2.2087,-2.1621,-2.081,-1.9056,-1.8437,0.0,-1.7658,-1.7584,0.0,0.0,0.0,0.0,-2.3115,-2.4605,-2.5345,0.0,-2.4249,0.0,-2.5622,-2.569,-2.5271,0.0,-2.5137,-2.5676,-2.5713,-2.5693,-2.5693,-2.5693,-2.5693,-2.5693,-2.5712,-2.5693,-2.5693,-2.5712,-2.5693,-2.5693,-2.5693,-2.5693,-2.5693,-2.5693,0.0,-2.5713,-2.5693,-2.5694,-2.4675,-2.3121,-2.3085,-2.1807,-1.9571,-1.6791,-1.5803,-1.5779,-1.5779,-1.5779,-1.5799,-1.5783,-1.5825,-1.5573,-1.4441,-1.4094,-1.411,-1.41,-1.4099,-1.4088,-1.4088,-1.4088,-1.4088,-1.4088,-1.4088,-1.4088,-1.4088,-1.4088,-1.4088,-1.4088,-1.3817,-1.3313,-1.2435,-1.2293,-1.2282,-1.2318,-1.2305,-1.2305,-1.2305,-1.2287,-1.2216,-1.1943,-1.1127,-1.0587,-1.0594,-1.0605,-1.198,-1.519,-1.539,-1.541,-1.541,-1.541,-1.541,-1.541,-1.541,-1.541,-1.541,-1.541,-1.541,-1.541,-1.541,-1.541,-2.3232,-2.3457,-2.3613,-2.3188,-2.3052,-2.2682,-2.1395,-2.0713,-1.9558,-1.6833,0.0,-1.6162,-1.5022,-1.5138,-1.6046,-1.8027,0.0,-2.3114,-2.3082,-2.4396,-2.5441,-2.5695,-2.5708,-2.571,-2.5712,-2.5722,-2.5698,-2.5713,-2.5693,-2.5693,-2.5693,-2.5693,-2.5693,-2.5693,-2.5693,-2.5703,-2.5679,-2.4992,-2.4992,-2.5679,-2.5703,-2.5693,-2.5693,-2.5693,-2.5703,-2.5684,0.0,0.0,-2.5615,-2.4745,-2.3505,-2.2118,-2.2134,-1.9532,-1.5811,-1.5785,-1.5792,-1.5784,-1.5784,-1.5784,-1.5784,-1.5784,-1.5802,-1.5576,-1.4456,-1.4111,-1.4088,-1.4088,-1.4088,-1.4088,-1.4088,-1.4088,-1.4088,-1.4088,-1.4088,-1.4088,-1.4088,-1.4088,-1.4088,-1.4088,-1.4041,-1.3709,-1.2729,-1.2408,-1.2309,-1.2354,-1.2325,-1.2305,-1.2305,-1.2305,-1.2091,-1.1584,-1.1024,-1.0674,-1.0595,-1.0977,-1.2432,-1.5226,-1.5399,-1.541,-1.5391,-1.5391,-1.54,-1.541,-1.541,-1.541,-1.541,-1.54,-1.54,-1.541,-1.54,-1.5391,-2.3682,-2.3467,-2.3188,-2.311,-2.2838,-2.2285,-2.0977,-1.9795,0.0,0.0,-1.5871,-1.5327,-1.4401,-1.4868,-1.6454,-1.963,0.0,0.0,0.0,0.0,-2.4082,0.0,0.0,0.0,0.0,0.0,0.0,0.0,0.0,0.0,-2.5693,-2.5693,-2.5693,-2.5693,-2.5693,-2.5713,-2.5713,-2.1241,-2.1241,-2.5703,-2.5713,-2.5693,-2.5693,-2.5693,-2.5703,-2.57,0.0,0.0,-2.5293,-1.978,-1.7347,-1.7055,-1.7069,-1.6565,-1.5825,-1.5779,-1.5805,-1.5784,-1.5784,-1.5784,-1.5784,-1.5784,-1.5802,-1.5576,-1.4456,-1.4111,-1.4088,-1.4088,-1.4088,-1.4088,-1.4088,-1.4088,-1.4088,-1.4088,-1.4088,-1.4088,-1.4088,-1.4088,-1.4088,-1.4088,-1.3896,-1.3722,-1.377,-1.2975,-1.2419,-1.2755,-1.2502,-1.2305,-1.2305,-1.2305,-1.2257,-1.2148,-1.1629,-1.1076,-1.0634,-1.3035,-1.4813,-1.5349,-1.5413,-1.5392,-1.5398,-1.5388,-1.5409,-1.5391,-1.541,-1.541,-1.541,-1.5407,-1.5407,-1.5391,-1.5386,-1.539,-2.3516,-2.3257,-2.3091,-2.3091,-2.2656,-2.1728,-1.9961,0.0,0.0,0.0,-1.4013,-1.3537,-1.2556,0.0,0.0,0.0,0.0,0.0,0.0,0.0,0.0,0.0,0.0,0.0,0.0,0.0,0.0,0.0,0.0,0.0,-2.5693,-2.5693,-2.5693,-2.5693,-2.5693,-2.5703,-2.5692,-2.3112,-2.3135,-2.5697,-2.571,-2.572,-2.5697,-2.5697,-2.5718,-2.5513,-2.2712,0.0,-2.0297,-1.7092,-1.5812,-1.5785,-1.5806,-1.5799,-1.5812,-1.5798,-1.5784,-1.5784,-1.5784,-1.5784,-1.5805,-1.5812,-1.5785,-1.5576,-1.4456,-1.4111,-1.4088,-1.4088,-1.4088,-1.4088,-1.4088,-1.4088,-1.4088,-1.4088,-1.4088,-1.4088,-1.4088,-1.4088,-1.4088,-1.4088,-1.3975,-1.3869,-1.3858,-1.3234,-1.2796,-1.2849,-1.2536,-1.2305,-1.2305,-1.2305,-1.2234,-1.2102,-1.1948,-1.167,-1.1203,-1.2229,-1.2916,-1.29,-1.2901,-1.2899,-1.2915,-1.3722,-1.4276,-1.4553,-1.5415,-1.5712,-1.541,-1.5404,-1.5867,-1.6716,-1.5837,-1.5409,-2.3188,-2.3091,-2.3091,-2.3091,-2.2432,-2.1161,-1.8885,-1.7184,0.0,0.0,-1.2489,-1.2252,-1.1409,0.0,-1.3224,0.0,0.0,0.0,0.0,0.0,0.0,0.0,0.0,0.0,0.0,0.0,0.0,0.0,0.0,0.0,0.0,-2.5693,-2.5693,-2.5693,-2.5693,-2.5713,-2.5678,-2.5682,-2.5709,-2.5708,-2.4537,-2.394,-2.3957,-2.3957,-2.3963,-2.3695,-1.92,0.0,0.0,-1.5782,-1.5777,-1.5784,-1.5784,-1.5784,-1.5784,-1.5784,-1.5784,-1.5784,-1.5784,-1.5792,-1.5806,-1.579,-1.5819,-1.5607,-1.4436,-1.4109,-1.4088,-1.4088,-1.4088,-1.4088,-1.4088,-1.4088,-1.4088,-1.4088,-1.4088,-1.4088,-1.4088,-1.4088,-1.4088,-1.4088,-1.4088,-1.4015,-1.374,-1.3447,-1.3126,-1.2918,-1.2532,-1.2305,-1.2305,-1.2305,-1.2218,-1.202,-1.2163,-1.2163,-1.1847,-1.1303,-1.0863,-1.0632,-1.0593,-1.0594,-1.0605,-1.1926,-1.3087,-1.3967,-1.551,-1.6098,-1.5693,-1.5482,-1.6087,-1.741,-1.6421,-1.5951,-2.311,-2.3091,-2.3091,-2.3091,-2.2165,-2.0623,-1.8227,0.0,0.0,-1.2797,-1.2652,-1.2819,-1.2741,-1.2813,-1.2505,-1.1233,0.0,-1.7922,0.0,0.0,0.0,0.0,0.0,0.0,0.0,0.0,0.0,0.0,0.0,0.0,0.0,-2.5693,-2.5693,-2.5693,-2.5693,-2.5713,-2.5678,-2.5708,-2.5693,-2.5648,-2.0697,-1.834,-1.8363,-1.8363,-1.8319,-1.8287,0.0,0.0,0.0,-1.5789,-1.5791,-1.5784,-1.5784,-1.5784,-1.5784,-1.5784,-1.5784,-1.5784,-1.5784,-1.5812,-1.5802,-1.5821,-1.5819,-1.5573,-1.4447,-1.4101,-1.4088,-1.4088,-1.4088,-1.4088,-1.4088,-1.4088,-1.4088,-1.4088,-1.4088,-1.4088,-1.4088,-1.4088,-1.4088,-1.4088,-1.4088,-1.4082,-1.4048,-1.3581,-1.32,-1.3173,-1.2672,-1.2305,-1.2305,-1.2305,-1.2291,-1.2265,-1.2301,-1.2303,-1.2239,-1.2184,-1.1685,-1.0678,-1.06,-1.061,-1.0586,-1.1213,-1.253,-1.4586,-1.5746,-1.6386,-1.658,-1.579,-1.5468,-1.5662,-1.7112,-1.7763,-2.2695,-2.2906,-2.3033,-2.2779,-2.1787,-2.0236,-1.7973,0.0,-1.4557,-1.3027,-1.1497,-1.093,-1.2588,-1.2904,-1.2688,-1.2087,-1.2857,-1.4366,-1.6623,0.0,0.0,0.0,0.0,0.0,0.0,0.0,0.0,0.0,0.0,0.0,0.0,-2.5693,-2.5693,-2.5693,-2.5693,-2.5713,-2.5678,-2.2443,-2.0845,-2.0806,-1.8615,-1.7599,-1.7555,-1.6857,-1.65,-1.6473,0.0,0.0,0.0,-1.5824,-1.5784,-1.5784,-1.5784,-1.5784,-1.5784,-1.5784,-1.5784,-1.5805,-1.5792,-1.581,-1.57,-1.4983,-1.479,-1.4676,-1.4261,-1.4081,-1.4088,-1.4088,-1.4088,-1.4088,-1.4088,-1.4088,-1.4088,-1.4088,-1.4088,-1.4088,-1.4088,-1.4088,-1.4088,-1.4088,-1.4088,-1.4088,-1.4088,-1.3601,-1.3213,-1.3213,-1.2692,-1.2305,-1.2305,-1.2305,-1.2305,-1.2305,-1.2305,-1.2295,-1.2303,-1.2134,-1.1937,-1.1655,-1.1166,-1.0976,-1.1075,-1.1897,-1.2871,-1.4026,-1.5438,-1.6439,-1.6955,-1.6957,-1.6946,-1.6993,-1.7687,-1.8002,-2.1982,-2.2399,-2.2695,-2.2402,-2.1079,-1.9446,0.0,-1.5757,-1.3719,-1.2032,-1.0163,-0.9398,-1.1319,-1.1696,-1.1963,-1.2781,-1.2411,-1.3237,-1.6735,-1.9301,0.0,0.0,0.0,0.0,0.0,0.0,0.0,0.0,0.0,0.0,0.0,-2.5722,-2.5723,-2.5703,-2.5703,-2.5722,-2.5714,-2.0307,-1.761,-1.7609,-1.7576,-1.7392,-1.7046,-1.6164,-1.5806,0.0,0.0,0.0,0.0,-1.5784,-1.5784,-1.5784,-1.5784,-1.5784,-1.5784,-1.5784,-1.5784,-1.5792,-1.581,-1.5594,-1.5184,-1.4342,-1.4119,-1.4104,-1.4104,-1.4107,-1.4088,-1.4088,-1.4088,-1.4088,-1.4088,-1.4088,-1.4088,-1.4088,-1.4088,-1.4088,-1.4088,-1.4088,-1.4088,-1.4088,-1.4088,-1.4088,-1.4088,-1.3667,-1.3307,-1.3227,-1.2766,-1.2405,-1.2311,-1.2305,-1.2305,-1.2305,-1.2305,-1.2305,-1.2305,-1.2118,-1.2112,-1.2283,-1.1763,-1.1635,-1.2037,-1.2889,-1.366,-1.4317,-1.5613,-1.6613,-1.7372,-1.7774,-1.8009,-1.8009,-1.8009,-1.7994,-2.0976,-2.1562,-2.1894,-2.1894,-1.9981,-1.8036,0.0,-1.493,-1.1805,-0.9346,-0.882,-0.882,-0.8846,-0.8853,-0.9724,-1.2476,-1.4279,-1.5381,-1.5411,0.0,0.0,0.0,0.0,0.0,0.0,0.0,0.0,0.0,0.0,0.0,0.0,0.0,-2.5674,-2.5718,-2.5693,-2.5673,-2.5724,-2.0325,-1.7619,-1.7624,-1.7617,-1.6955,-1.5836,-1.5836,0.0,0.0,0.0,0.0,0.0,-1.5784,-1.5784,-1.5784,-1.5784,-1.5784,-1.5784,-1.5784,-1.5784,-1.5792,-1.581,-1.5054,-1.411,-1.4119,-1.4087,-1.4088,-1.4088,-1.4088,-1.4088,-1.4088,-1.4088,-1.4088,-1.4088,-1.4088,-1.4088,-1.4088,-1.4088,-1.4088,-1.4088,-1.4088,-1.4088,-1.4088,-1.4088,-1.4088,-1.4088,-1.3841,-1.35,-1.3253,-1.2985,-1.267,-1.2338,-1.2305,-1.2305,-1.2305,-1.2305,-1.2305,-1.2305,-1.2298,-1.2298,-1.2298,-1.2291,-1.2673,-1.3557,-1.3984,-1.4784,-1.6063,-1.6419,-1.706,-1.7998,-1.7998,-1.8008,-1.8008,-1.8008,-1.8008,-1.8176,-1.957,-2.0825,-2.0046,-2.0265,-1.9905,-1.6893,-1.6218,-1.5356,-1.2254,-1.1592,-1.16,-1.161,-1.0067,-0.9087,-0.995,-1.2126,0.0,0.0,0.0,0.0,0.0,0.0,0.0,0.0,0.0,0.0,0.0,0.0,0.0,0.0,0.0,-2.0999,-2.5538,-2.2114,-1.9764,-1.8961,-1.7211,-1.6374,-1.6367,-1.6388,-1.6192,-1.5817,-1.5792,0.0,0.0,0.0,0.0,0.0,-1.5784,-1.5784,-1.5784,-1.5784,-1.5784,-1.5704,-1.4924,-1.4907,-1.5252,-1.5228,-1.4736,-1.4119,-1.4081,-1.4113,-1.4088,-1.4088,-1.4088,-1.4088,-1.4088,-1.4088,-1.4088,-1.4088,-1.4088,-1.4088,-1.4088,-1.4088,-1.4088,-1.4088,-1.4088,-1.4088,-1.4088,-1.4088,-1.4088,-1.4088,-1.3841,-1.3507,-1.3253,-1.2985,-1.2677,-1.2338,-1.2305,-1.2305,-1.2305,-1.2305,-1.2305,-1.2305,-1.2305,-1.2305,-1.2305,-1.2118,-1.2233,-1.2684,-1.3269,-1.4792,-1.7335,-1.6879,-1.707,-1.8008,-1.8008,-1.8008,-1.8008,-1.8008,-1.8008,-1.6745,-1.7993,-1.8823,-1.7617,-1.8248,-1.8881,-1.7766,-1.6296,-1.4471,-1.1887,-1.1353,-1.1668,-1.2696,-1.0655,-0.8791,-0.8801,-1.135,0.0,0.0,0.0,0.0,0.0,0.0,0.0,0.0,0.0,0.0,0.0,0.0,0.0,0.0,0.0,-1.9604,-2.1896,-1.8684,-1.656,-1.5791,-1.5807,-1.5804,-1.5816,-1.5807,-1.5783,-1.5825,0.0,0.0,0.0,0.0,0.0,0.0,-1.5784,-1.5784,-1.5784,-1.5784,-1.5549,-1.5063,-1.4368,-1.4347,-1.465,-1.4639,-1.4422,-1.4082,-1.4083,-1.4088,-1.4088,-1.4088,-1.4088,-1.4088,-1.4088,-1.4088,-1.4088,-1.4088,-1.4088,-1.4088,-1.4088,-1.4088,-1.4088,-1.4088,-1.4088,-1.4088,-1.4088,-1.4088,-1.4088,-1.4088,-1.3935,-1.3633,-1.3273,-1.3046,-1.2811,-1.2358,-1.2305,-1.2305,-1.2305,-1.2305,-1.2305,-1.2305,-1.2305,-1.2305,-1.2305,-1.2131,-1.2294,-1.2825,-1.3221,-1.456,-1.6913,-1.6735,-1.6888,-1.7467,-1.7828,-1.8008,-1.8008,-1.8008,-1.8008,0.0,-1.6715,-1.6279,-1.4898,-1.4422,-1.5276,-1.9159,-1.5232,0.0,-0.9059,-0.8809,-0.9576,-1.2148,-1.0664,-0.9034,-0.883,-1.157,0.0,0.0,0.0,0.0,0.0,0.0,0.0,0.0,0.0,0.0,0.0,0.0,0.0,0.0,0.0,0.0,-1.594,-1.5777,-1.5782,-1.5802,-1.5818,-1.5784,-1.5784,-1.5784,-1.5784,-1.5784,0.0,0.0,0.0,0.0,0.0,0.0,-1.5778,-1.5772,-1.5664,-1.5772,-1.5124,-1.4124,-1.4105,-1.4093,-1.4136,-1.4099,-1.4095,-1.4106,-1.4077,-1.4088,-1.4088,-1.4088,-1.4088,-1.4088,-1.4088,-1.4088,-1.4088,-1.4088,-1.4088,-1.4088,-1.4088,-1.4088,-1.4088,-1.4088,-1.4088,-1.4088,-1.4088,-1.4088,-1.4088,-1.4088,-1.4088,-1.3895,-1.3327,-1.3227,-1.2999,-1.2405,-1.2318,-1.2305,-1.2305,-1.2305,-1.2305,-1.2305,-1.2305,-1.2305,-1.2305,-1.2305,-1.2696,-1.3564,-1.36,-1.4099,-1.51,-1.6114,-1.6636,-1.6706,-1.7569,-1.8008,-1.8008,-1.8008,-1.8008,-1.3175,0.0,-1.5312,-1.3737,-1.1747,-1.0992,0.0,-1.3487,-1.1693,-0.9293,-0.8794,-0.9004,-0.9647,-1.0944,-1.1255,-0.914,-0.9494,0.0,0.0,0.0,0.0,0.0,0.0,0.0,0.0,0.0,0.0,0.0,0.0,0.0,0.0,0.0,0.0,-1.5833,-1.5792,-1.5804,-1.5811,-1.5791,-1.5784,-1.5784,-1.5784,-1.5784,-1.5784,0.0,0.0,0.0,0.0,0.0,-1.5797,-1.5782,-1.5268,-1.4598,-1.547,-1.528,-1.4527,-1.4211,-1.4234,-1.4388,-1.419,-1.409,-1.4083,-1.4108,-1.4088,-1.4088,-1.4088,-1.4088,-1.4088,-1.4088,-1.4088,-1.4088,-1.4088,-1.4088,-1.4088,-1.4088,-1.4088,-1.4088,-1.4088,-1.4088,-1.4088,-1.4088,-1.4088,-1.4088,-1.4088,-1.4088,-1.3961,-1.356,-1.3313,-1.3073,-1.273,-1.2445,-1.2305,-1.2305,-1.2305,-1.2305,-1.2305,-1.2305,-1.2305,-1.2305,-1.2305,-1.2409,-1.2629,-1.2629,-1.3185,-1.4413,-1.5851,-1.6957,-1.7681,-1.7906,-1.8008,-1.8008,-1.8008,-1.8008,-1.0954,-1.1679,-1.2148,-1.1236,-0.9908,-0.9186,-1.0674,-1.1035,-1.0593,-0.9113,-0.8803,-0.8803,-0.8798,-1.0466,-1.1185,-0.9138,-0.8788,0.0,0.0,0.0,0.0,0.0,0.0,0.0,0.0,0.0,0.0,0.0,0.0,0.0,0.0,0.0,0.0,0.0,-1.5785,-1.5784,-1.5806,-1.5792,-1.5784,-1.5784,-1.5806,-1.5792,-1.5792,0.0,0.0,0.0,0.0,0.0,-1.5027,-1.5023,-1.4655,-1.4155,-1.4757,-1.4774,-1.4394,-1.4187,-1.4193,-1.4302,-1.4142,-1.4088,-1.4088,-1.4088,-1.4088,-1.4088,-1.4088,-1.4088,-1.4088,-1.4088,-1.4088,-1.4088,-1.4088,-1.4088,-1.4088,-1.4088,-1.4088,-1.4088,-1.4088,-1.4088,-1.4088,-1.4088,-1.4088,-1.4088,-1.4088,-1.4088,-1.3988,-1.3646,-1.336,-1.31,-1.2824,-1.2522,-1.2305,-1.2305,-1.2305,-1.2305,-1.2305,-1.2305,-1.2305,-1.2305,-1.2305,-1.2305,-1.2305,-1.2305,-1.3032,-1.4641,-1.5948,-1.707,-1.8008,-1.8008,-1.8008,-1.8008,-1.8008,-1.8008,-0.9952,-0.9119,-0.8852,-0.9034,-0.9091,-0.9024,-0.8849,-0.8791,-0.8806,-0.8801,-0.8809,-0.8803,-0.8799,-0.9977,0.0,0.0,0.0,0.0,0.0,0.0,0.0,0.0,0.0,0.0,0.0,0.0,0.0,0.0,0.0,0.0,0.0,0.0,0.0,0.0,-1.5525,-1.5534,-1.555,-1.5725,-1.5779,-1.5812,-1.579,-1.57,-1.5528,-1.5538,0.0,0.0,0.0,0.0,-1.4091,-1.4091,-1.4123,-1.4123,-1.4123,-1.4083,-1.4113,-1.4113,-1.4104,-1.4088,-1.4088,-1.4088,-1.4088,-1.4088,-1.4088,-1.4088,-1.4088,-1.4088,-1.4088,-1.4088,-1.4088,-1.4088,-1.4088,-1.4088,-1.4088,-1.4088,-1.4088,-1.4088,-1.4088,-1.4088,-1.4088,-1.4088,-1.4088,-1.4088,-1.4088,-1.4088,-1.4001,-1.3706,-1.3427,-1.318,-1.2958,-1.2579,-1.2371,-1.2371,-1.2325,-1.2305,-1.2305,-1.2305,-1.2305,-1.2305,-1.2305,-1.2372,-1.2519,-1.2519,-1.3448,-1.5376,-1.6175,-1.707,-1.8008,-1.8008,-1.8008,-1.8008,-1.8008,-1.8008,-1.1758,-1.0577,-0.9054,-1.008,-1.0332,-1.0051,-0.9031,-0.879,-0.8801,-0.8791,-0.8803,-0.8791,0.0,-1.0864,-1.2073,0.0,0.0,0.0,0.0,0.0,0.0,0.0,0.0,0.0,0.0,0.0,0.0,0.0,0.0,0.0,0.0,0.0,0.0,0.0,0.0,-1.4379,-1.434,-1.5337,-1.5787,-1.5822,-1.5791,-1.5282,-1.4366,-1.4372,-1.4353,0.0,0.0,-1.4244,-1.408,-1.4081,-1.4123,-1.4123,-1.4123,-1.4097,-1.4106,-1.4106,-1.4079,-1.4088,-1.4088,-1.4088,-1.4088,-1.4088,-1.4088,-1.4088,-1.4088,-1.4088,-1.4088,-1.4088,-1.4088,-1.4088,-1.4088,-1.4088,-1.4088,-1.4088,-1.4088,-1.4088,-1.4088,-1.4088,-1.4088,-1.4088,-1.4088,-1.4088,-1.4088,-1.4088,-1.4075,-1.4021,-1.3768,-1.352,-1.3467,-1.3019,-1.2717,-1.2717,-1.2452,-1.2305,-1.2305,-1.2305,-1.2305,-1.2305,-1.2305,-1.2666,-1.3455,-1.3491,-1.4414,-1.6358,-1.6532,-1.707,-1.8008,-1.8008,-1.8008,-1.8008,-1.8008,-1.8008,-1.0339,-1.1498,-1.2488,-1.3058,-1.1415,-0.9881,-1.081,-0.9862,-0.8788,-0.8796,-0.8806,0.0,0.0,0.0,0.0,0.0,0.0,0.0,0.0,0.0,0.0,0.0,0.0,0.0,0.0,0.0,0.0,0.0,0.0,0.0,0.0,0.0,0.0,0.0,0.0,0.0,-1.4077,-1.4613,-1.4869,-1.4897,-1.4863,-1.4621,-1.4121,-1.4117,-1.4095,-1.4089,0.0,-1.4091,-1.4084,-1.4093,-1.4088,-1.4088,-1.4088,-1.4088,-1.4088,-1.4088,-1.4088,-1.4088,-1.4088,-1.4088,-1.4088,-1.4088,-1.4088,-1.4088,-1.4088,-1.4088,-1.4088,-1.4088,-1.4088,-1.4088,-1.4088,-1.4088,-1.4088,-1.4088,-1.4088,-1.4088,-1.4088,-1.4088,-1.4088,-1.4088,-1.4088,-1.4088,-1.4088,-1.4088,-1.4088,-1.4088,-1.3793,-1.36,-1.36,-1.312,-1.2784,-1.2784,-1.2516,-1.2305,-1.2305,-1.2305,-1.2305,-1.2305,-1.2305,-1.2482,-1.2915,-1.3954,-1.4914,-1.5834,-1.6828,-1.7569,-1.8008,-1.8008,-1.8008,-1.8008,-1.8008,-1.8008,-0.8968,-1.1281,-1.4008,-1.4663,-1.2554,-1.0704,-1.2059,-1.0719,-0.9227,-0.9211,-0.9831,0.0,0.0,0.0,0.0,0.0,0.0,0.0,0.0,0.0,0.0,0.0,0.0,0.0,0.0,0.0,0.0,0.0,0.0,0.0,0.0,0.0,0.0,0.0,0.0,0.0,-1.4123,-1.4103,-1.4101,-1.4104,-1.4117,-1.408,-1.4117,-1.409,-1.4088,-1.4088,-1.4088,-1.4088,-1.4088,-1.4088,-1.4088,-1.4088,-1.4088,-1.4088,-1.4088,-1.4088,-1.4088,-1.4088,-1.4088,-1.4088,-1.4088,-1.4088,-1.4088,-1.4088,-1.4088,-1.4088,-1.4088,-1.4088,-1.4088,-1.4088,-1.4088,-1.4088,-1.4088,-1.4088,-1.4088,-1.4088,-1.4088,-1.4088,-1.4088,-1.4088,-1.4088,-1.4088,-1.4088,-1.4088,-1.4088,-1.4088,-1.3895,-1.3706,-1.3706,-1.3287,-1.2965,-1.2898,-1.2623,-1.2378,-1.2311,-1.2305,-1.2305,-1.2305,-1.2305,-1.2409,-1.2629,-1.4063,-1.5057,-1.5517,-1.6932,-1.7794,-1.8008,-1.8008,-1.8008,-1.8008,-1.8008,-1.8008,-0.9488,-0.9036,-0.9895,-1.244,-1.4016,-1.4187,-1.1392,-1.0603,-1.0473,-1.0458,-1.2839,0.0,0.0,0.0,0.0,0.0,0.0,0.0,0.0,0.0,0.0,0.0,0.0,0.0,0.0,0.0,0.0,0.0,0.0,0.0,0.0,0.0,0.0,0.0,0.0,0.0,-1.4115,-1.4095,-1.4101,-1.4111,-1.4107,-1.4115,-1.4115,-1.4095,-1.4088,-1.4088,-1.4088,-1.4088,-1.4088,-1.4088,-1.4088,-1.4088,-1.4088,-1.4088,-1.4088,-1.4088,-1.4088,-1.4088,-1.4088,-1.4088,-1.4088,-1.4088,-1.4088,-1.4088,-1.4088,-1.4088,-1.4088,-1.4088,-1.4088,-1.4088,-1.4088,-1.4088,-1.4088,-1.4088,-1.4088,-1.4088,-1.4088,-1.4088,-1.4088,-1.4088,-1.4088,-1.4088,-1.4088,-1.4088,-1.4088,-1.4088,-1.4068,-1.4055,-1.4055,-1.3774,-1.3433,-1.3206,-1.2938,-1.2643,-1.2325,-1.2305,-1.2305,-1.2305,-1.2305,-1.2696,-1.3564,-1.3745,-1.4665,-1.6463,-1.6636,-1.7139,-1.8008,-1.8008,-1.8008,-1.8008,-1.8008,-1.8008,-1.031,-0.9291,-0.9452,-1.2202,-1.338,-1.3543,-1.2313,-1.1851,-1.1671,-1.1663,-1.2624,0.0,0.0,0.0,0.0,0.0,0.0,0.0,0.0,0.0,0.0,0.0,0.0,0.0,0.0,0.0,0.0,0.0,0.0,0.0,0.0,0.0,0.0,0.0,0.0,0.0,0.0,-1.4088,-1.4093,-1.4107,-1.4093,-1.4088,-1.4088,-1.4088,-1.4088,-1.4088,-1.4088,-1.4088,-1.4088,-1.4088,-1.4088,-1.4088,-1.4088,-1.4088,-1.4088,-1.4088,-1.4088,-1.4088,-1.4088,-1.4088,-1.4088,-1.4088,-1.4088,-1.4088,-1.4088,-1.4088,-1.4088,-1.4088,-1.4088,-1.4088,-1.4088,-1.4088,-1.4088,-1.4088,-1.4088,-1.4088,-1.4088,-1.4088,-1.4088,-1.4088,-1.4088,-1.4088,-1.4088,-1.4088,-1.4088,-1.4088,-1.4088,-1.4088,-1.4088,-1.3828,-1.356,-1.3453,-1.3079,-1.2663,-1.2325,-1.2305,-1.2305,-1.2305,-1.2305,-1.2445,-1.2806,-1.3382,-1.4063,-1.4764,-1.5965,-1.6498,-1.6263,-1.7432,-1.7998,-1.8002,-1.7998,-1.8012,-1.054,-0.9787,-0.9994,-1.2956,-1.328,-1.2782,-1.2284,-1.318,-1.3881,-1.3021,-1.287,-1.3564,-1.5788,0.0,0.0,0.0,0.0,0.0,0.0,0.0,0.0,0.0,0.0,0.0,0.0,0.0,0.0,0.0,0.0,0.0,0.0,0.0,0.0,0.0,0.0,0.0,0.0,-1.4088,-1.4088,-1.4088,-1.4088,-1.4088,-1.4088,-1.4088,-1.4088,-1.4088,-1.4088,-1.4088,-1.4088,-1.4088,-1.4088,-1.4088,-1.4088,-1.4088,-1.4088,-1.4088,-1.4088,-1.4088,-1.4088,-1.4088,-1.4088,-1.4088,-1.4088,-1.4088,-1.4088,-1.4088,-1.4088,-1.4088,-1.4088,-1.4088,-1.4088,-1.4088,-1.4088,-1.4088,-1.4088,-1.4088,-1.4088,-1.4088,-1.4088,-1.4088,-1.4088,-1.4088,-1.4088,-1.4088,-1.4088,-1.4088,-1.4088,-1.4088,-1.4088,-1.3908,-1.3706,-1.3613,-1.3106,-1.2703,-1.2496,-1.2358,-1.2305,-1.2305,-1.2305,-1.2305,-1.2305,-1.2915,-1.3382,-1.3709,-1.5013,-1.5631,-1.5497,-1.6749,-1.7611,-1.7995,-1.7987,-1.8004,-1.0061,-1.0318,-1.1146,-1.4515,-1.4119,-1.2486,-1.0958,-1.4447,-1.7248,-1.4632,-1.4104,-1.3726,-1.258,0.0,0.0,0.0,0.0,0.0,0.0,0.0,0.0,0.0,0.0,0.0,0.0,0.0,0.0,0.0,0.0,0.0,0.0,0.0,0.0,0.0,0.0,0.0,0.0,-1.4088,-1.4088,-1.4088,-1.4088,-1.4088,-1.4088,-1.4088,-1.4088,-1.4088,-1.4088,-1.4088,-1.4088,-1.4088,-1.4088,-1.4088,-1.4088,-1.4088,-1.4088,-1.4088,-1.4088,-1.4088,-1.4088,-1.4088,-1.4088,-1.4088,-1.4088,-1.4088,-1.4088,-1.4088,-1.4088,-1.4088,-1.4088,-1.4088,-1.4088,-1.4088,-1.4088,-1.4088,-1.4088,-1.4088,-1.4088,-1.4088,-1.4088,-1.4088,-1.4088,-1.4088,-1.4088,-1.4088,-1.4088,-1.4088,-1.4088,-1.4088,-1.4088,-1.4088,-1.3975,-1.3633,-1.3106,-1.279,-1.279,-1.2516,-1.2311,-1.2311,-1.2311,-1.2305,-1.2305,-1.2305,-1.2732,-1.3673,-1.3709,-1.4469,-1.6077,-1.6097,-1.6733,-1.796,-1.7964,-1.8005,-1.1707,-1.2129,0.0,-1.3397,0.0,0.0,-1.1725,-1.5006,-1.7271,-1.4645,-1.4115,-1.4538,-1.6055,0.0,0.0,0.0,0.0,0.0,0.0,0.0,0.0,0.0,0.0,0.0,0.0,0.0,0.0,0.0,0.0,0.0,0.0,0.0,0.0,0.0,0.0,0.0,0.0,0.0,-1.4088,-1.4088,-1.4088,-1.4088,-1.4088,-1.4088,-1.4088,-1.4088,-1.4088,-1.4088,-1.4088,-1.4088,-1.4088,-1.4088,-1.4088,-1.4088,-1.4088,-1.4088,-1.4088,-1.4088,-1.4088,-1.4088,-1.4088,-1.4088,-1.4088,-1.4088,-1.4088,-1.4088,-1.4088,-1.4088,-1.4088,-1.4088,-1.4088,-1.4088,-1.4088,-1.4088,-1.4088,-1.4088,-1.4088,-1.4088,-1.4088,-1.4088,-1.4088,-1.4088,-1.4088,-1.4088,-1.4088,-1.4088,-1.4088,-1.4088,-1.4088,-1.4088,-1.3975,-1.3633,-1.3447,-1.3293,-1.3093,-1.2993,-1.2939,-1.2939,-1.277,-1.2556,-1.2311,-1.2305,-1.2445,-1.2696,-1.3601,-1.3854,-1.3417,-1.6132,-1.6263,-1.4067,-1.6741,-1.8646,-1.157,-1.2368,0.0,-1.2896,-1.2067,-1.2039,-1.4951,0.0,0.0,0.0,0.0,-1.4579,0.0,0.0,0.0,0.0,0.0,0.0,0.0,0.0,0.0,0.0,0.0,0.0,0.0,0.0,0.0,0.0,0.0,0.0,0.0,0.0,0.0,0.0,0.0,0.0,0.0,0.0,0.0,-1.4088,-1.4088,-1.4088,-1.4088,-1.4088,-1.4088,-1.4088,-1.4088,-1.4088,-1.4088,-1.4088,-1.4088,-1.4088,-1.4088,-1.4088,-1.4088,-1.4088,-1.4088,-1.4088,-1.4088,-1.4088,-1.4088,-1.4088,-1.4088,-1.4088,-1.4088,-1.4088,-1.4088,-1.4088,-1.4088,-1.4088,-1.4088,-1.4088,-1.4088,-1.4088,-1.4088,-1.4088,-1.4088,-1.4088,-1.4088,-1.4088,-1.4088,-1.4088,-1.4088,-1.4088,-1.4088,-1.4088,-1.4088,-1.4088,-1.4088,-1.4088,-1.4015,-1.3841,-1.3673,-1.3533,-1.336,-1.3273,-1.3213,-1.3213,-1.3033,-1.2846,-1.2545,-1.2388,-1.2305,-1.2305,-1.3033,-1.3078,-1.2328,-1.4614,-1.5319,-1.4645,-1.7639,-1.9601,-1.0332,-1.1564,-1.2949,-1.3077,-1.2723,0.0,-1.9128,-2.0376,-1.917,-1.4962,0.0,0.0,0.0,0.0,0.0,0.0,0.0,0.0,0.0,0.0,0.0,0.0,0.0,0.0,0.0,0.0,0.0,0.0,0.0,0.0,0.0,0.0,0.0,0.0,0.0,0.0,0.0,0.0,0.0,0.0,-1.4088,-1.4088,-1.4088,-1.4088,-1.4088,-1.4088,-1.4088,-1.4088,-1.4088,-1.4088,-1.4088,-1.4088,-1.4088,-1.4088,-1.4088,-1.4088,-1.4088,-1.4088,-1.4088,-1.4088,-1.4088,-1.4088,-1.4088,-1.4088,-1.4088,-1.4088,-1.4088,-1.4088,-1.4088,-1.4088,-1.4088,-1.4088,-1.4088,-1.4088,-1.4088,-1.4088,-1.4088,-1.4088,-1.4088,-1.4088,-1.4088,-1.4088,-1.4088,-1.4088,-1.4088,-1.4088,-1.4088,-1.4088,-1.4088,-1.4088,-1.4088,-1.4088,-1.3848,-1.3646,-1.3646,-1.34,-1.3293,-1.3293,-1.3267,-1.316,-1.2982,-1.2565,-1.2328,-1.2301,-1.2284,-1.2392,-1.2552,-1.289,-1.4803,-1.8167,-1.9806,-2.0616,-1.0668,-1.1575,0.0,0.0,-1.3582,-1.3388,-1.7602,-1.8577,-1.7705,0.0,0.0,0.0,0.0,0.0,0.0,0.0,0.0,0.0,0.0,0.0,0.0,0.0,0.0,0.0,0.0,0.0,0.0,0.0,0.0,0.0,0.0,0.0,0.0,0.0,0.0,0.0,-1.4088,-1.4088,-1.4088,0.0,-1.4088,-1.4088,-1.4088,-1.4088,-1.4088,-1.4088,-1.4088,-1.4088,-1.4088,-1.4088,-1.4088,-1.4088,-1.4088,-1.4088,-1.4088,-1.4088,-1.4088,-1.4088,-1.4088,-1.4088,-1.4088,-1.4088,-1.4088,-1.4088,-1.4088,-1.4088,-1.4088,-1.4088,-1.4088,-1.4088,-1.4088,-1.4088,-1.4088,-1.4088,-1.4088,-1.4088,-1.4088,-1.4088,-1.4088,-1.4088,-1.4088,-1.4088,-1.4088,-1.4088,-1.4088,-1.4088,-1.4088,-1.4088,-1.4088,-1.4088,-1.4088,-1.4088,-1.4035,-1.3988,-1.3988,-1.3935,-1.3901,-1.3901,-1.3681,-1.3507,-1.3459,-1.3028,-1.2634,-1.2309,-1.2291,-1.3045,-1.4581,-1.7439,-1.8877,-1.9054,-2.0108,-2.0611,-1.0548,0.0,0.0,-1.6029,0.0,-1.2806,-1.4811,-1.5253,-1.4866,0.0,0.0,0.0,0.0,0.0,0.0,0.0,0.0,0.0,0.0,0.0,0.0,0.0,0.0,0.0,0.0,0.0,0.0,0.0,0.0,0.0,0.0,0.0,0.0,0.0,0.0,0.0,-1.4088,-1.4088,-1.4088,-1.4088,-1.4088,-1.4088,-1.4088,-1.4088,-1.4088,-1.4088,-1.4088,-1.4088,-1.4088,-1.4088,-1.4088,-1.4088,-1.4088,-1.4088,-1.4088,-1.4088,-1.4088,-1.4088,-1.4088,-1.4088,-1.4088,-1.4088,-1.4088,-1.4088,-1.4088,-1.4088,-1.4088,-1.4088,-1.4088,-1.4088,-1.4088,-1.4088,-1.4088,-1.4088,-1.4088,-1.4088,-1.4088,-1.4088,-1.4088,-1.4088,-1.4088,-1.4088,-1.4088,-1.4088,-1.4088,-1.4088,-1.4088,-1.4088,-1.4088,-1.4088,-1.4088,-1.4088,-1.4088,-1.4088,-1.4088,-1.4088,-1.4088,-1.4088,-1.3941,-1.3854,-1.3854,-1.3619,-1.3286,-1.2888,-1.25,-1.3367,-1.5577,-1.7469,-1.8904,-1.9919,-2.0393,-2.0602,-1.0514,0.0,-1.4016,-1.6847,-1.5411,0.0,-1.2452,-1.2283,0.0,0.0,0.0,0.0,0.0,0.0,0.0,0.0,0.0,0.0,0.0,0.0,0.0,0.0,0.0,0.0,0.0,0.0,0.0,0.0,0.0,0.0,0.0,0.0,0.0,0.0,0.0,-1.4111,-1.4122,-1.408,-1.408,-1.408,-1.4085,-1.409,-1.4088,-1.4088,-1.4088,-1.4088,-1.4088,-1.4088,-1.4088,-1.4088,-1.4088,-1.4088,-1.4088,-1.4088,-1.4088,-1.4088,-1.4088,-1.4088,-1.4088,-1.4088,-1.4088,-1.4088,-1.4088,-1.4088,-1.4088,-1.4088,-1.4088,-1.4088,-1.4088,-1.4088,-1.4088,-1.4088,-1.4088,-1.4088,-1.4088,-1.4088,-1.4088,-1.4088,-1.4088,-1.4088,-1.4088,-1.4088,-1.4088,-1.4088,-1.4088,-1.4088,-1.4088,-1.4088,-1.4088,-1.4088,-1.4088,-1.4088,-1.4088,-1.4088,-1.4088,-1.4088,-1.4088,-1.4088,-1.4088,-1.4088,-1.4088,-1.4088,-1.3951,-1.3601,-1.2951,-1.3686,-1.5895,-1.5991,-1.7368,-1.9937,-2.0014,-2.0051,-1.135,0.0,-1.5174,0.0,-1.6501,-1.6355,0.0,0.0,0.0,0.0,0.0,0.0,0.0,0.0,0.0,0.0,0.0,0.0,0.0,0.0,0.0,0.0,0.0,0.0,0.0,0.0,0.0,0.0,0.0,0.0,0.0,0.0,-1.3612,-1.2563,-1.3559,0.0,-1.4102,-1.4102,-1.4102,-1.4109,-1.4096,-1.4082,-1.4088,-1.4088,-1.4088,-1.4088,-1.4088,-1.4088,-1.4088,-1.4088,-1.4088,-1.4088,-1.4088,-1.4088,-1.4088,-1.4088,-1.4088,-1.4088,-1.4088,-1.4088,-1.4088,-1.4088,-1.4088,-1.4088,-1.4088,-1.4088,-1.4088,-1.4088,-1.4088,-1.4088,-1.4088,-1.4088,-1.4088,-1.4088,-1.4088,-1.4088,-1.4088,-1.4088,-1.4088,-1.4088,-1.4088,-1.4088,-1.4088,-1.4088,-1.4088,-1.4088,-1.4088,-1.4088,-1.4088,-1.4088,-1.4088,-1.4088,-1.4088,-1.4088,-1.4088,-1.4088,-1.4088,-1.4088,-1.4088,-1.4088,-1.4088,-1.4088,-1.4055,-1.4017,-1.3926,-1.4392,-1.5483,-1.5966,-1.654,-1.7232,-1.7569,-1.773,-0.9376,-1.0833,-1.2306,0.0,-1.5976,-1.5633,-1.2144,0.0,0.0,0.0,0.0,0.0,0.0,0.0,0.0,0.0,0.0,0.0,0.0,0.0,0.0,0.0,0.0,0.0,0.0,0.0,0.0,0.0,0.0,0.0,0.0,-1.2792,-1.2859,-1.2311,-1.2818,0.0,-1.3081,-1.3081,-1.3081,-1.3081,-1.3794,-1.4109,-1.4082,-1.4082,-1.4115,-1.4088,-1.4088,-1.4088,-1.4088,-1.4088,-1.4088,-1.4088,-1.4088,-1.4088,-1.4088,-1.4088,-1.4088,-1.4088,-1.4088,-1.4088,-1.4088,-1.4088,-1.4088,-1.4088,-1.4088,-1.4088,-1.4088,-1.4088,-1.4088,-1.4088,-1.4088,-1.4088,-1.4088,-1.4088,-1.4088,-1.4088,-1.4088,-1.4088,-1.4088,-1.4088,-1.4088,-1.4088,-1.4088,-1.4088,-1.4088,-1.4088,-1.4088,-1.4088,-1.4088,-1.4088,-1.4088,-1.4088,-1.4088,-1.4088,-1.4088,-1.4088,-1.4088,-1.4088,-1.4088,-1.4088,-1.4088,-1.4088,-1.4088,-1.4088,-1.3912,-1.4109,-1.4662,-1.4717,-1.5204,-1.6121,-1.6326,-1.6723,0.0,0.0,-0.9597,-1.2885,-1.3933,-1.3532,0.0,0.0,0.0,0.0,0.0,0.0,0.0,0.0,0.0,0.0,0.0,0.0,0.0,0.0,0.0,0.0,0.0,0.0,0.0,0.0,0.0,0.0,0.0,0.0,-1.2314,-1.2293,-1.2298,-1.2311,-1.2317,-1.2311,-1.2279,-1.2279,-1.2317,-1.2302,-1.3224,-1.3651,-1.3635,-1.3953,-1.4117,-1.4103,-1.4112,-1.409,-1.412,-1.4104,-1.4088,-1.4088,-1.4088,-1.4088,-1.4088,-1.4088,-1.4088,-1.4088,-1.4088,-1.4088,-1.4088,-1.4088,-1.4088,-1.4088,-1.4088,-1.4088,-1.4088,-1.4088,-1.4088,-1.4088,-1.4088,-1.4088,-1.4088,-1.4088,-1.4088,-1.4088,-1.4088,-1.4088,-1.4088,-1.4088,-1.4088,-1.4088,-1.4088,-1.4088,-1.4088,-1.4088,-1.4088,-1.4088,-1.4088,-1.4088,-1.4088,-1.4088,-1.4088,-1.4088,-1.4088,-1.4088,-1.4088,-1.4088,-1.4088,-1.4088,-1.4088,-1.4088,-1.4088,-1.4088,-1.3868,-1.3868,-1.4088,-1.3868,-1.4269,-1.5296,-1.5296,-1.5711,0.0,-0.7888,0.0,-0.9094,-1.0,0.0,0.0,0.0,0.0,0.0,0.0,0.0,0.0,0.0,0.0,0.0,0.0,0.0,0.0,0.0,0.0,0.0,0.0,0.0,0.0,0.0,0.0,0.0,0.0,0.0,-1.2281,-1.2311,-1.2318,-1.2308,-1.2294,-1.2288,-1.2308,-1.2308,-1.2315,-1.2292,-1.2375,-1.2402,-1.2428,-1.3591,-1.4104,-1.4106,-1.4082,-1.4115,-1.4111,-1.4114,-1.4088,-1.4088,-1.4088,-1.4088,-1.4088,-1.4088,-1.4088,-1.4088,-1.4088,-1.4088,-1.4088,-1.4088,-1.4088,-1.4088,-1.4088,-1.4088,-1.4088,-1.4088,-1.4088,-1.4088,-1.4088,-1.4088,-1.4088,-1.4088,-1.4088,-1.4088,-1.4088,-1.4088,-1.4088,-1.4088,-1.4088,-1.4088,-1.4088,-1.4088,-1.4088,-1.4088,-1.4088,-1.4088,-1.4088,-1.4088,-1.4088,-1.4088,-1.4088,-1.4088,-1.4088,-1.4088,-1.4088,-1.4088,-1.4088,-1.4088,-1.4088,-1.4088,-1.4088,-1.4088,-1.4075,-1.4075,-1.4088,-1.4075,-1.411,-1.4166,-1.4166,-1.4208,0.0,0.0,0.0,-0.8602,-0.9137,0.0,0.0,0.0,0.0,0.0,0.0,0.0,0.0,0.0,0.0,0.0,0.0,0.0,0.0,0.0,0.0,0.0,0.0,0.0,0.0,0.0,0.0,0.0,0.0,0.0,-1.2305,-1.2305,-1.2305,-1.2305,-1.2305,-1.2305,-1.2305,-1.2305,-1.2308,-1.2289,-1.2289,-1.2316,-1.2323,-1.2759,-1.2929,-1.2956,-1.2947,-1.3383,-1.4081,-1.4084,-1.4082,-1.4102,-1.409,-1.4088,-1.4088,-1.4088,-1.4079,-1.4083,-1.4083,-1.4087,-1.4104,-1.4104,-1.4104,-1.4104,-1.4104,-1.4104,-1.4104,-1.4104,-1.4094,-1.4083,-1.4083,-1.4086,-1.4088,-1.4088,-1.4088,-1.4088,-1.4088,-1.4088,-1.4088,-1.4088,-1.4088,-1.4088,-1.4088,-1.4088,-1.4088,-1.4088,-1.4088,-1.4088,-1.4088,-1.4088,-1.4088,-1.4088,-1.4088,-1.4088,-1.4088,-1.4088,-1.4088,-1.4088,-1.4088,-1.4088,-1.4088,-1.4088,-1.4088,-1.4088,-1.4088,-1.4088,-1.4088,-1.4088,-1.4088,-1.4088,-1.4088,-1.4088,-0.6825,0.0,0.0,0.0,0.0,0.0,0.0,0.0,0.0,0.0,0.0,0.0,0.0,0.0,0.0,0.0,0.0,0.0,0.0,0.0,0.0,0.0,0.0,0.0,0.0,0.0,0.0,0.0,0.0,0.0,-1.2303,-1.2306,-1.228,-1.228,-1.2295,-1.2305,-1.2305,-1.2294,-1.2308,-1.2308,-1.2311,-1.23,-1.2261,-1.0897,-1.0297,-1.0274,-1.0297,-1.1504,-1.3373,-1.2059,-1.2537,-1.409,-1.4094,-1.409,-1.4097,-1.4106,-1.4094,-1.3857,-1.2289,-1.1768,-1.1732,-1.1732,-1.1732,-1.1732,-1.1732,-1.1732,-1.177,-1.1736,-1.1772,-1.2091,-1.3711,-1.4086,-1.4088,-1.4088,-1.4088,-1.4088,-1.4088,-1.4088,-1.4088,-1.4088,-1.4088,-1.4088,-1.4088,-1.4088,-1.4088,-1.4088,-1.4088,-1.4088,-1.4088,-1.4088,-1.4088,-1.4088,-1.4088,-1.4088,-1.4088,-1.4088,-1.4088,-1.4088,-1.4088,-1.4088,-1.4088,-1.4088,-1.4088,-1.4088,-1.4088,-1.4088,-1.4088,-1.4088,-1.4088,-1.4088,-1.4088,-1.4088,0.0,0.0,0.0,0.0,0.0,0.0,0.0,0.0,0.0,0.0,0.0,0.0,0.0,0.0,0.0,0.0,0.0,0.0,0.0,0.0,0.0,0.0,0.0,0.0,0.0,0.0,0.0,0.0,0.0,-1.2248,-1.2308,-1.2256,-1.226,-1.2295,-1.2297,-1.2285,-1.2291,-1.2304,-1.2232,-1.2114,-1.2105,-1.2119,-1.1992,-0.8094,-0.6318,-0.6318,-0.6318,-0.8525,-1.1814,-0.7893,-0.9287,-1.3851,-1.3862,-1.3886,-1.3884,-1.39,-1.3875,-1.325,-0.869,-0.712,-0.712,-0.712,-0.712,-0.712,-0.712,-0.712,-0.7109,-0.7093,-0.7208,-0.8347,-1.2923,-1.4088,-1.4088,-1.4088,-1.4088,-1.4088,-1.4088,-1.4088,-1.4088,-1.4088,-1.4088,-1.4088,-1.4088,-1.4088,-1.4088,-1.4088,-1.4088,-1.4088,-1.4088,-1.4088,-1.4088,-1.4088,-1.4088,-1.4088,-1.4088,-1.4088,-1.4088,-1.4088,-1.4088,-1.4088,-1.4088,-1.4088,-1.4088,-1.4088,-1.4088,-1.4088,-1.4088,-1.4088,-1.4088,-1.4088,-1.4088,-1.413,-0.7874,0.0,0.0,0.0,0.0,0.0,0.0,0.0,0.0,0.0,0.0,0.0,0.0,0.0,0.0,0.0,0.0,0.0,0.0,0.0,0.0,0.0,0.0,0.0,0.0,0.0,0.0,0.0,0.0,-1.1434,-1.2252,-1.151,-1.1433,-1.2262,-1.2305,-1.2297,-1.2312,-1.2292,-1.0845,-0.7974,-0.7974,-0.7956,-0.7918,-0.6801,-0.6308,-0.63,-0.63,-0.6922,-0.7862,-0.6763,-0.7149,-0.8444,-0.8459,-0.868,-0.9025,-0.9036,-0.9051,-0.886,-0.7541,-0.7115,-0.7099,-0.7099,-0.7099,-0.7099,-0.7099,-0.7099,-0.7088,-0.7081,-0.9563,-1.2453,-1.375,-1.4088,-1.4088,-1.4088,-1.4088,-1.4088,-1.4088,-1.4088,-1.4088,-1.4088,-1.4088,-1.4088,-1.4088,-1.4088,-1.4088,-1.4088,-1.4088,-1.4088,-1.4088,-1.4088,-1.4088,-1.4088,-1.4088,-1.4088,-1.4088,-1.4088,-1.4088,-1.4088,-1.4088,-1.4088,-1.4088,-1.4088,-1.4088,-1.4088,-1.4088,-1.4088,-1.4088,-1.4088,-1.4088,-1.4088,-1.4088,-1.4531,-0.6943,-0.6507,-0.5889,0.0,0.0,0.0,0.0,0.0,0.0,0.0,0.0,0.0,0.0,0.0,0.0,0.0,0.0,0.0,0.0,0.0,0.0,0.0,0.0,0.0,0.0,0.0,0.0,0.0,-1.0608,-1.09,-1.1553,-1.0945,-1.089,-1.158,-1.1573,-1.1582,-1.1587,-1.206,-1.0267,-0.6307,-0.6315,-0.6311,-0.6297,-0.6297,-0.6311,-0.63,-0.63,-0.63,-0.6303,-0.6291,-0.6318,-0.6313,-0.6304,-0.6478,-0.6778,-0.6996,-0.7083,-0.7107,-0.7082,-0.7119,-0.7095,-0.7095,-0.7095,-0.7095,-0.7095,-0.7095,-0.7085,-0.7085,-1.0492,-1.409,-1.4107,-1.409,-1.4099,-1.4099,-1.4115,-1.4088,-1.4088,-1.4088,-1.4088,-1.4088,-1.4088,-1.4088,-1.4088,-1.4088,-1.4088,-1.4088,-1.4088,-1.4088,-1.4088,-1.4088,-1.4088,-1.4088,-1.4088,-1.4088,-1.4088,-1.4088,-1.4088,-1.4088,-1.4088,-1.4088,-1.4088,-1.4088,-1.4088,-1.4088,-1.4088,-1.4088,-1.4088,-1.4088,-1.4088,-1.4088,-1.4088,-1.4454,-0.6727,-0.6991,-0.676,-0.5737,0.0,0.0,-0.5332,-0.6184,0.0,0.0,0.0,0.0,0.0,0.0,0.0,0.0,0.0,0.0,0.0,0.0,0.0,0.0,0.0,0.0,0.0,0.0,0.0,-1.0593,-1.0588,-1.0587,-1.0587,-1.0599,-1.0425,-1.0022,-1.0005,-1.0014,-1.0003,-1.1037,-0.9763,-0.6305,-0.6304,-0.6282,-0.63,-0.63,-0.63,-0.63,-0.63,-0.63,-0.63,-0.63,-0.63,-0.6313,-0.6317,-0.6291,-0.6341,-0.6822,-0.7066,-0.71,-0.7115,-0.7119,-0.7119,-0.7092,-0.7095,-0.7095,-0.7095,-0.7095,-0.7085,-0.7085,-1.012,-1.3299,-1.3299,-1.3317,-1.3438,-1.3966,-1.4077,-1.4102,-1.4115,-1.4102,-1.4088,-1.4102,-1.4095,-1.4088,-1.4088,-1.4088,-1.4088,-1.4088,-1.4088,-1.4088,-1.4088,-1.4088,-1.4088,-1.4088,-1.4088,-1.4088,-1.4088,-1.4088,-1.4088,-1.4088,-1.4088,-1.4088,-1.4088,-1.4088,-1.4088,-1.4088,-1.4088,-1.4088,-1.4088,-1.4088,-1.4088,-1.4088,-1.4088,-1.4166,-0.6931,-0.6991,-0.6954,-0.6732,0.0,0.0,0.0,-0.6187,0.0,0.0,0.0,0.0,0.0,0.0,0.0,0.0,0.0,0.0,0.0,0.0,0.0,0.0,0.0,0.0,0.0,0.0,-1.0593,-1.0593,-1.0611,-1.0613,-1.0613,-1.0607,-0.9311,-0.649,-0.6424,-0.641,-0.6403,-0.664,-0.6604,-0.6305,-0.6309,-0.6298,-0.63,-0.63,-0.63,-0.63,-0.63,-0.63,-0.63,-0.63,-0.63,-0.6303,-0.6291,-0.6291,-0.6314,-0.6414,-0.6723,-0.7111,-0.7097,-0.7102,-0.708,-0.7105,-0.7095,-0.7095,-0.7095,-0.7095,-0.7085,-0.7085,-0.7748,-0.8461,-0.8461,-0.8453,-0.9436,-1.3213,-1.4097,-1.4087,-1.4087,-1.411,-1.4108,-1.409,-1.4093,-1.4088,-1.4088,-1.4088,-1.4088,-1.4088,-1.4088,-1.4088,-1.4088,-1.4088,-1.4088,-1.4088,-1.4088,-1.4088,-1.4088,-1.4088,-1.4088,-1.4088,-1.4088,-1.4088,-1.4088,-1.4088,-1.4088,-1.4088,-1.4088,-1.4088,-1.4088,-1.4088,-1.4088,-1.4088,-1.4088,-1.4573,-0.7904,-0.7907,-0.7896,-0.7901,0.0,0.0,0.0,0.0,0.0,0.0,0.0,0.0,0.0,0.0,0.0,0.0,0.0,0.0,0.0,0.0,0.0,0.0,0.0,0.0,0.0,0.0,-1.0608,-1.0588,-1.0618,-0.9838,-0.8082,-0.8004,-0.72,-0.5466,-0.5389,-0.5401,-0.5403,-0.5399,-0.5557,-0.5851,-0.6172,-0.6298,-0.6305,-0.6304,-0.6301,-0.6308,-0.6304,-0.63,-0.63,-0.63,-0.63,-0.63,-0.63,-0.6305,-0.6294,-0.6281,-0.6478,-0.6702,-0.6717,-0.6886,-0.7085,-0.7095,-0.7095,-0.7095,-0.7095,-0.7095,-0.7092,-0.7112,-0.7085,-0.7108,-0.7108,-0.7088,-0.7701,-1.0028,-1.0611,-1.1252,-1.3577,-1.2272,-1.1304,-1.3645,-1.4106,-1.4088,-1.4088,-1.4088,-1.4088,-1.4088,-1.4088,-1.4088,-1.4088,-1.4088,-1.4088,-1.4088,-1.4088,-1.4088,-1.4088,-1.4088,-1.4088,-1.4088,-1.4088,-1.4088,-1.4088,-1.4088,-1.4088,-1.4088,-1.4088,-1.4088,-1.4088,-1.4088,-1.4088,-1.4088,-1.4088,-1.437,0.0,0.0,0.0,0.0,0.0,-0.7533,0.0,0.0,0.0,-0.5354,0.0,0.0,0.0,0.0,0.0,0.0,0.0,0.0,0.0,0.0,0.0,0.0,0.0,0.0,0.0,0.0,-1.026,-1.0255,-0.9845,-0.8385,-0.5548,-0.5391,-0.5394,-0.5394,-0.5394,-0.5395,-0.5395,-0.5413,-0.5383,-0.5413,-0.5888,-0.6144,-0.6137,-0.6119,-0.6192,-0.6309,-0.6318,-0.6311,-0.63,-0.63,-0.63,-0.63,-0.63,-0.63,-0.6313,-0.6307,-0.6308,-0.6304,-0.6315,-0.6668,-0.7084,-0.7097,-0.7101,-0.7101,-0.7101,-0.7078,-0.7102,-0.7102,-0.7119,-0.7095,-0.7095,-0.7112,-0.7085,-0.7085,-0.7084,-0.8123,-1.1918,-0.9794,-0.8473,-1.3187,-1.4103,-1.4108,-1.4088,-1.4088,-1.4088,-1.4088,-1.4088,-1.4088,-1.4088,-1.4088,-1.4088,-1.4088,-1.4088,-1.4088,-1.4088,-1.4088,-1.4088,-1.4088,-1.4088,-1.4088,-1.4088,-1.4088,-1.4088,-1.4088,-1.4088,-1.4088,-1.4088,-1.4088,-1.4088,-1.4088,-1.4088,-1.4088,0.0,0.0,0.0,0.0,-0.8685,0.0,0.0,0.0,-0.6529,-0.5513,0.0,0.0,0.0,0.0,0.0,0.0,0.0,0.0,0.0,0.0,0.0,0.0,0.0,0.0,0.0,0.0,0.0,-0.8994,-0.7124,-0.5806,-0.5419,-0.5411,-0.541,-0.541,-0.5389,-0.5395,-0.5395,-0.5412,-0.5386,-0.541,-0.5464,-0.5498,-0.5506,-0.5486,-0.5788,-0.6302,-0.6319,-0.6291,-0.63,-0.63,-0.63,-0.63,-0.63,-0.63,-0.6303,-0.6317,-0.6285,-0.6308,-0.6304,-0.665,-0.7093,-0.7085,-0.7094,-0.7094,-0.7094,-0.7109,-0.7089,-0.7089,-0.7088,-0.7095,-0.7095,-0.7092,-0.7088,-0.7088,-0.7095,-0.7253,-0.7797,-0.7494,-0.8469,-1.3169,-1.4077,-1.409,-1.4102,-1.4088,-1.4088,-1.4088,-1.4088,-1.4088,-1.4088,-1.4088,-1.4088,-1.4088,-1.4088,-1.4088,-1.4088,-1.4088,-1.4088,-1.4088,-1.4088,-1.4088,-1.4088,-1.4088,-1.4088,-1.4088,-1.4088,-1.4088,-1.4088,-1.4088,-1.4088,-1.4088,-1.4088,-1.4088,0.0,0.0,0.0,0.0,0.0,0.0,0.0,0.0,-0.6868,0.0,0.0,0.0,0.0,0.0,0.0,0.0,0.0,0.0,0.0,0.0,0.0,0.0,0.0,0.0,0.0,0.0,0.0,0.0,0.0,-0.4866,-0.4866,-0.4884,-0.5047,-0.5392,-0.5392,-0.5404,-0.5395,-0.5395,-0.5393,-0.5389,-0.5389,-0.5416,-0.5408,-0.5386,-0.5531,-0.5779,-0.6161,-0.6289,-0.6284,-0.6284,-0.6298,-0.63,-0.63,-0.63,-0.63,-0.63,-0.63,-0.6281,-0.6298,-0.6431,-0.6622,-0.6651,-0.6615,-0.6615,-0.6615,-0.6635,-0.6708,-0.7018,-0.7121,-0.7095,-0.7095,-0.7095,-0.7095,-0.7095,-0.7082,-0.7115,-0.7092,-0.7085,-0.7672,-0.9664,-1.0043,-1.0898,-1.3619,-1.4122,-1.4088,-1.4088,-1.4088,-1.4088,-1.4088,-1.4088,-1.4088,-1.4088,-1.4088,-1.4088,-1.4088,-1.4088,-1.4088,-1.4088,-1.4088,-1.4088,-1.4088,-1.4088,-1.4088,-1.4088,-1.4088,-1.4088,-1.4088,-1.4088,-1.4088,-1.4088,-1.4088,-1.4088,-0.8796,0.0,0.0,0.0,0.0,0.0,0.0,0.0,0.0,0.0,0.0,0.0,0.0,0.0,0.0,0.0,0.0,0.0,0.0,0.0,0.0,0.0,0.0,0.0,0.0,0.0,0.0,0.0,0.0,0.0,-0.4492,-0.45,-0.4703,-0.5133,-0.5315,-0.5414,-0.5399,-0.5408,-0.5395,-0.5395,-0.5395,-0.5395,-0.5399,-0.5406,-0.5408,-0.5416,-0.5881,-0.6053,-0.6083,-0.6243,-0.629,-0.628,-0.6282,-0.63,-0.63,-0.63,-0.63,-0.6313,-0.6297,-0.6291,-0.6308,-0.6293,-0.6285,-0.6285,-0.6285,-0.6303,-0.6415,-0.6937,-0.7086,-0.7118,-0.7119,-0.7085,-0.7095,-0.7088,-0.7095,-0.7095,-0.7095,-0.7115,-0.7092,-0.7092,-0.7088,-0.8198,-1.159,-1.3241,-1.4115,-1.4088,-1.4088,-1.4088,-1.4088,-1.4088,-1.4088,-1.4088,-1.4088,-1.4088,-1.4088,-1.4088,-1.4088,-1.4088,-1.4088,-1.4088,-1.4088,-1.4088,-1.4088,-1.4088,-1.4088,-1.4088,-1.4088,-1.4088,-1.4048,-1.3968,-1.4048,-1.4088,0.0,0.0,0.0,-0.8805,0.0,0.0,0.0,0.0,-0.6988,0.0,0.0,0.0,0.0,0.0,0.0,-0.5482,0.0,0.0,0.0,0.0,0.0,0.0,0.0,0.0,0.0,0.0,0.0,0.0,0.0,0.0,-0.4456,-0.4511,-0.4517,-0.452,-0.5109,-0.5396,-0.5399,-0.5389,-0.5395,-0.5395,-0.5395,-0.5395,-0.5395,-0.5399,-0.5413,-0.541,-0.5416,-0.5425,-0.5486,-0.6046,-0.6305,-0.6286,-0.628,-0.63,-0.63,-0.63,-0.63,-0.63,-0.6306,-0.6306,-0.6306,-0.6313,-0.6313,-0.6313,-0.6313,-0.6291,-0.6404,-0.694,-0.7104,-0.7094,-0.7119,-0.7114,-0.7102,-0.7109,-0.7095,-0.7095,-0.7095,-0.7095,-0.7095,-0.7095,-0.7102,-0.7138,-0.7303,-1.1086,-1.4097,-1.4102,-1.4088,-1.4088,-1.4088,-1.4088,-1.4088,-1.4088,-1.4088,-1.4088,-1.4088,-1.4088,-1.4088,-1.4088,-1.4088,-1.4088,-1.4088,-1.4088,-1.4088,-1.4088,-1.4088,-1.4088,-1.4088,-1.4088,-1.3941,-1.3626,-1.3955,-1.4088,0.0,0.0,-0.7814,-0.8606,0.0,0.0,0.0,0.0,0.0,0.0,0.0,0.0,0.0,0.0,-0.8063,-0.7683,-0.6324,0.0,0.0,0.0,0.0,0.0,0.0,0.0,0.0,0.0,0.0,0.0,0.0,0.0,0.0,-0.4274,-0.4487,-0.4506,-0.471,-0.5002,-0.5392,-0.5386,-0.5395,-0.5395,-0.5395,-0.5395,-0.5395,-0.5395,-0.5389,-0.5403,-0.5403,-0.5416,-0.5418,-0.5633,-0.5939,-0.6316,-0.6318,-0.63,-0.63,-0.63,-0.63,-0.63,-0.63,-0.63,-0.63,-0.63,-0.63,-0.63,-0.63,-0.6316,-0.6348,-0.6511,-0.6583,-0.6584,-0.6592,-0.6822,-0.7094,-0.7102,-0.7112,-0.7098,-0.7113,-0.709,-0.7118,-0.7078,-0.7085,-0.7088,-0.7087,-1.1004,-1.4097,-1.4108,-1.4088,-1.4088,-1.4088,-1.4088,-1.4088,-1.4088,-1.4088,-1.4088,-1.4088,-1.4088,-1.4088,-1.4088,-1.4088,-1.4088,-1.4088,-1.4088,-1.4088,-1.4088,-1.4088,-1.4088,-1.4088,-1.3846,-1.3652,-1.3552,-1.3507,-1.3507,-0.8802,-0.8227,0.0,0.0,-0.8212,0.0,-0.7096,0.0,0.0,0.0,0.0,0.0,0.0,0.0,0.0,-0.8811,-0.7168,0.0,0.0,0.0,0.0,0.0,0.0,0.0,0.0,0.0,-0.3212,-0.3035,-0.3567,0.0,0.0,0.0,-0.4269,-0.4487,-0.4497,-0.4783,-0.538,-0.5403,-0.5406,-0.5395,-0.5395,-0.5395,-0.5395,-0.5395,-0.5395,-0.5395,-0.5395,-0.5416,-0.5412,-0.5412,-0.5747,-0.631,-0.6294,-0.6298,-0.6304,-0.6318,-0.63,-0.63,-0.63,-0.63,-0.63,-0.63,-0.63,-0.63,-0.63,-0.6283,-0.6314,-0.6314,-0.6304,-0.6306,-0.6311,-0.6576,-0.6805,-0.6816,-0.6829,-0.681,-0.682,-0.697,-0.7121,-0.7078,-0.7095,-0.7115,-0.7118,-1.1003,-1.4101,-1.4115,-1.4088,-1.4088,-1.4088,-1.4088,-1.4088,-1.4088,-1.4088,-1.4088,-1.4088,-1.4088,-1.4088,-1.4088,-1.4088,-1.4088,-1.4088,-1.4088,-1.4088,-1.4088,-1.4088,-1.4088,-1.4088,-1.3698,-1.3411,-1.3299,-1.314,-1.2986]}]]